[[{"header":{"parameterUnit":"m.s-1","parameterCategory":1,"la1":30.6,"la2":29.2853,"lo1":-89.7004,"lo2":-87.6739,"dy":0.0162,"dx":0.0183,"nx":112,"ny":82,"refTime":"2025-04-15T06:00:00:Z","depth":0,"parameterNumber":2,"parameterNumberName":"U-component_of_WINDS"},"data":[0.0,0.0,0.0,0.0,0.0,0.0,0.0,0.0,0.0,0.0,0.0,0.0,0.0,0.0,0.0,0.0,0.0,0.0,0.0,0.0,0.0,0.0,0.0,0.0,0.0,0.0,0.0,0.0,0.0,0.0,0.0,0.0,0.0,0.0,0.0,0.0,0.0,0.0,0.0,0.0,0.0,0.0,0.0,0.0,0.0,0.0,0.0,0.0,0.0,0.0,0.0,0.0,0.0,0.0,0.0,0.0,0.0,0.0,0.0,0.0,0.0,0.0,0.0,0.0,0.0,0.0,0.0,0.0,0.0,0.0,0.0,0.0,0.0,0.0,0.0,0.0,0.0,0.0,0.0,0.0,0.0,0.0,0.0,0.0,0.0,0.0,0.0,0.0,0.0,0.0,0.0,2.1711,2.3337,2.373,2.2164,2.2813,2.1941,1.8804,0.0,0.0,0.0,0.0,0.0,0.0,0.0,0.0,0.0,0.0,0.0,0.0,0.0,0.0,0.0,0.0,0.0,0.0,0.0,0.0,0.0,0.0,0.0,0.0,0.0,0.0,0.0,0.0,0.0,0.0,0.0,0.0,0.0,0.0,0.0,0.0,0.0,0.0,0.0,0.0,0.0,0.0,0.0,0.0,0.0,0.0,0.0,0.0,0.0,0.0,0.0,0.0,0.0,0.0,0.0,0.0,0.0,0.0,0.0,0.0,0.0,0.0,0.0,0.0,0.0,0.0,0.0,0.0,0.0,0.0,0.0,0.0,0.0,0.0,0.0,0.0,0.0,0.0,0.0,0.0,0.0,0.0,0.0,0.0,0.0,0.0,0.0,0.0,0.0,0.0,0.0,0.0,0.0,0.0,0.0,0.0,0.0,0.0,0.0,0.0,0.0,0.0,0.0,0.0,2.0813,2.3418,2.4842,2.4838,2.2818,2.3038,2.1941,1.8804,0.0,0.0,0.0,0.0,0.0,0.0,0.0,0.0,0.0,0.0,0.0,0.0,0.0,0.0,0.0,0.0,0.0,0.0,0.0,0.0,0.0,0.0,0.0,0.0,0.0,0.0,0.0,0.0,0.0,0.0,0.0,0.0,0.0,0.0,0.0,0.0,0.0,0.0,0.0,0.0,0.0,0.0,0.0,0.0,0.0,0.0,0.0,0.0,0.0,0.0,0.0,0.0,0.0,0.0,0.0,0.0,0.0,0.0,0.0,0.0,0.0,0.0,0.0,0.0,0.0,0.0,0.0,0.0,0.0,0.0,0.0,0.0,0.0,0.0,0.0,0.0,0.0,0.0,0.0,0.0,0.0,0.0,0.0,0.0,0.0,0.0,0.0,0.0,0.0,0.0,0.0,0.0,0.0,0.0,0.0,0.0,0.0,0.0,0.0,0.0,0.0,0.0,0.0,2.0758,2.1886,2.3879,2.5181,2.5253,2.3635,2.3953,2.281,1.9457,1.9371,0.0,0.0,0.0,0.0,0.0,0.0,0.0,0.0,0.0,0.0,0.0,0.0,0.0,0.0,0.0,0.0,0.0,0.0,0.0,0.0,0.0,0.0,0.0,0.0,0.0,0.0,0.0,0.0,0.0,0.0,0.0,0.0,0.0,0.0,0.0,0.0,0.0,0.0,0.0,0.0,0.0,0.0,0.0,0.0,0.0,0.0,0.0,0.0,0.0,0.0,0.0,0.0,0.0,0.0,0.0,0.0,0.0,0.0,0.0,0.0,0.0,0.0,0.0,0.0,0.0,0.0,0.0,0.0,0.0,0.0,0.0,0.0,0.0,0.0,0.0,0.0,0.0,0.0,0.0,0.0,0.0,0.0,0.0,0.0,0.0,0.0,0.0,0.0,0.0,0.0,0.0,0.0,0.0,0.0,0.0,0.0,0.0,0.0,0.0,0.0,0.0,0.0,2.2564,2.3309,2.4218,2.5154,2.5249,2.4187,2.4274,2.3076,2.0,1.956,0.0,0.0,0.0,0.0,0.0,0.0,0.0,0.0,0.0,0.0,0.0,0.0,0.0,0.0,0.0,0.0,0.0,0.0,0.0,0.0,0.0,0.0,0.0,0.0,0.0,0.0,0.0,0.0,0.0,0.0,0.0,0.0,0.0,0.0,0.0,0.0,0.0,0.0,0.0,0.0,0.0,0.0,0.0,0.0,0.0,0.0,0.0,0.0,0.0,0.0,0.0,0.0,0.0,0.0,0.0,0.0,0.0,0.0,0.0,0.0,0.0,0.0,0.0,0.0,0.0,0.0,0.0,0.0,0.0,0.0,0.0,0.0,0.0,0.0,0.0,0.0,0.0,0.0,0.0,0.0,0.0,0.0,0.0,0.0,0.0,0.0,0.0,0.0,0.0,0.0,0.0,0.0,0.0,0.0,0.0,0.0,0.0,0.0,0.0,0.0,0.0,0.0,2.3431,2.4842,2.4923,2.5018,2.4804,2.416,2.3174,2.1781,1.9925,1.8844,0.0,0.0,0.0,0.0,0.0,0.0,0.0,0.0,0.0,0.0,0.0,0.0,0.0,0.0,0.0,0.0,0.0,0.0,0.0,0.0,0.0,0.0,0.0,0.0,0.0,0.0,0.0,0.0,0.0,0.0,0.0,0.0,0.0,0.0,0.0,0.0,0.0,0.0,0.0,0.0,0.0,0.0,0.0,0.0,0.0,0.0,0.0,0.0,0.0,0.0,0.0,0.0,0.0,0.0,0.0,0.0,0.0,0.0,0.0,0.0,0.0,0.0,0.0,0.0,0.0,0.0,0.0,0.0,0.0,0.0,0.0,0.0,0.0,0.0,0.0,0.0,0.0,0.0,0.0,0.0,0.0,0.0,0.0,0.0,0.0,0.0,0.0,0.0,0.0,0.0,0.0,0.0,0.0,0.0,0.0,0.0,0.0,0.0,0.0,0.0,0.0,0.0,2.4299,2.5772,0.0,2.6034,2.5538,2.49,2.351,2.1976,2.0467,0.0,0.0,0.0,0.0,0.0,0.0,0.0,0.0,0.0,0.0,0.0,0.0,0.0,0.0,0.0,0.0,0.0,0.0,0.0,0.0,0.0,0.0,0.0,0.0,0.0,0.0,0.0,0.0,0.0,0.0,0.0,0.0,0.0,0.0,0.0,0.0,0.0,0.0,0.0,0.0,0.0,0.0,0.0,0.0,0.0,0.0,0.0,0.0,0.0,0.0,0.0,0.0,0.0,0.0,0.0,0.0,0.0,0.0,0.0,0.0,0.0,0.0,0.0,0.0,0.0,0.0,0.0,0.0,0.0,0.0,0.0,0.0,0.0,0.0,0.0,0.0,0.0,0.0,0.0,0.0,0.0,0.0,0.0,0.0,0.0,0.0,0.0,0.0,0.0,0.0,0.0,0.0,0.0,0.0,0.0,0.0,0.0,0.0,0.0,0.0,0.0,0.0,2.2999,2.495,2.6511,0.0,2.6918,2.6306,2.5624,2.3859,2.2198,2.0794,0.0,0.0,0.0,0.0,0.0,0.0,0.0,0.0,0.0,0.0,0.0,0.0,0.0,0.0,0.0,0.0,0.0,0.0,0.0,0.0,0.0,0.0,0.0,0.0,0.0,0.0,0.0,0.0,0.0,0.0,0.0,0.0,0.0,0.0,0.0,0.0,0.0,0.0,0.0,0.0,0.0,0.0,0.0,0.0,0.0,0.0,0.0,0.0,0.0,0.0,0.0,0.0,0.0,0.0,0.0,0.0,0.0,0.0,0.0,0.0,0.0,0.0,0.0,0.0,0.0,0.0,0.0,0.0,0.0,0.0,0.0,0.0,0.0,0.0,0.0,0.0,0.0,0.0,0.0,0.0,0.0,0.0,0.0,0.0,0.0,0.0,0.0,0.0,0.0,0.0,0.0,0.0,0.0,0.0,0.0,0.0,0.0,0.0,0.0,0.0,0.0,0.0,2.3053,2.5343,2.7143,2.7946,2.7541,2.6896,2.6156,2.4074,2.2198,0.0,0.0,0.0,0.0,0.0,0.0,0.0,0.0,0.0,0.0,0.0,0.0,0.0,0.0,0.0,0.0,0.0,0.0,0.0,0.0,0.0,0.0,0.0,0.0,0.0,0.0,0.0,0.0,0.0,0.0,0.0,0.0,0.0,0.0,0.0,0.0,0.0,0.0,0.0,0.0,0.0,0.0,0.0,0.0,0.0,0.0,0.0,0.0,0.0,0.0,0.0,0.0,0.0,0.0,0.0,0.0,0.0,0.0,0.0,0.0,0.0,0.0,0.0,0.0,0.0,0.0,0.0,0.0,0.0,0.0,0.0,0.0,0.0,0.0,0.0,0.0,0.0,0.0,0.0,0.0,0.0,0.0,0.0,0.0,0.0,0.0,0.0,0.0,0.0,0.0,0.0,0.0,0.0,0.0,0.0,0.0,0.0,0.0,0.0,0.0,0.0,0.0,0.0,2.4272,2.6945,2.8912,2.9425,2.867,2.7482,2.5877,2.4053,2.2182,2.0175,0.0,0.0,0.0,0.0,0.0,0.0,0.0,0.0,0.0,0.0,0.0,0.0,0.0,0.0,0.0,0.0,0.0,0.0,0.0,0.0,0.0,0.0,0.0,0.0,0.0,0.0,0.0,0.0,0.0,0.0,0.0,0.0,0.0,0.0,0.0,0.0,0.0,0.0,0.0,0.0,0.0,0.0,0.0,0.0,0.0,0.0,0.0,0.0,0.0,0.0,0.0,0.0,0.0,0.0,0.0,0.0,0.0,0.0,0.0,0.0,0.0,0.0,0.0,0.0,0.0,0.0,0.0,0.0,0.0,0.0,0.0,0.0,0.0,0.0,0.0,0.0,0.0,0.0,0.0,0.0,0.0,0.0,0.0,0.0,0.0,0.0,0.0,0.0,0.0,0.0,0.0,0.0,0.0,0.0,0.0,0.0,0.0,0.0,0.0,0.0,0.0,0.0,2.5127,2.785,2.9835,3.0393,2.9524,2.8091,2.6148,2.4616,2.2734,2.0326,0.0,0.0,0.0,0.0,0.0,0.0,0.0,0.0,0.0,0.0,0.0,0.0,0.0,0.0,0.0,0.0,0.0,0.0,0.0,0.0,0.0,0.0,0.0,0.0,0.0,0.0,0.0,0.0,0.0,0.0,0.0,0.0,0.0,0.0,0.0,0.0,0.0,0.0,0.0,0.0,0.0,0.0,0.0,0.0,0.0,0.0,0.0,0.0,0.0,0.0,0.0,0.0,0.0,0.0,0.0,0.0,0.0,0.0,0.0,0.0,0.0,0.0,0.0,0.0,0.0,0.0,0.0,0.0,0.0,0.0,0.0,0.0,0.0,0.0,0.0,0.0,0.0,0.0,0.0,0.0,0.0,0.0,0.0,0.0,0.0,0.0,0.0,0.0,0.0,0.0,0.0,0.0,0.0,0.0,0.0,0.0,0.0,0.0,0.0,0.0,0.0,0.0,2.5588,2.8115,3.0007,3.0846,3.004,2.8653,2.6735,2.5536,2.3703,2.0943,0.0,0.0,0.0,0.0,0.0,0.0,0.0,0.0,0.0,0.0,0.0,0.0,0.0,0.0,0.0,0.0,0.0,0.0,0.0,0.0,0.0,0.0,0.0,0.0,0.0,0.0,0.0,0.0,0.0,0.0,0.0,0.0,0.0,0.0,0.0,0.0,0.0,0.0,0.0,0.0,0.0,0.0,0.0,0.0,0.0,0.0,0.0,0.0,0.0,0.0,0.0,0.0,0.0,0.0,0.0,0.0,0.0,0.0,0.0,0.0,1.7501,1.6624,0.0,0.0,0.0,0.0,0.0,0.0,0.0,0.0,0.0,0.0,0.0,0.0,0.0,0.0,0.0,0.0,0.0,0.0,0.0,0.0,0.0,0.0,0.0,0.0,0.0,0.0,0.0,0.0,0.0,0.0,0.0,0.0,0.0,0.0,0.0,0.0,0.0,0.0,0.0,0.0,2.5018,2.7455,2.9415,3.0208,2.9453,2.8405,2.7221,2.6063,2.4255,2.1507,2.0499,0.0,0.0,0.0,0.0,0.0,0.0,0.0,0.0,0.0,0.0,0.0,0.0,0.0,0.0,0.0,0.0,0.0,0.0,0.0,0.0,0.0,0.0,0.0,0.0,0.0,0.0,0.0,0.0,0.0,0.0,0.0,0.0,0.0,0.0,0.0,0.0,0.0,0.0,0.0,0.0,0.0,0.0,0.0,0.0,0.0,0.0,0.0,0.0,0.0,0.0,0.0,0.0,0.0,0.0,0.0,0.0,0.0,0.0,0.0,1.9849,1.904,0.0,0.0,0.0,0.0,0.0,0.0,0.0,0.0,0.0,0.0,0.0,0.0,0.0,0.0,0.0,0.0,0.0,0.0,0.0,0.0,0.0,0.0,0.0,0.0,0.0,0.0,0.0,0.0,0.0,0.0,0.0,0.0,0.0,0.0,0.0,0.0,0.0,0.0,0.0,0.0,2.5852,2.8023,2.9574,2.9777,2.9211,2.8391,2.7379,2.6532,2.5075,2.2824,2.1374,0.0,0.0,0.0,0.0,0.0,0.0,0.0,0.0,0.0,0.0,0.0,0.0,0.0,0.0,0.0,0.0,0.0,0.0,0.0,0.0,0.0,0.0,0.0,0.0,0.0,0.0,0.0,0.0,0.0,0.0,0.0,0.0,0.0,0.0,0.0,0.0,0.0,0.0,0.0,0.0,0.0,0.0,0.0,0.0,0.0,0.0,0.0,0.0,0.0,0.0,0.0,0.0,0.0,2.1988,2.2477,2.2499,2.3351,2.3744,2.3697,2.2736,2.2187,2.1843,2.0402,0.0,0.0,0.0,0.0,0.0,0.0,0.0,0.0,0.0,0.0,0.0,0.0,0.0,0.0,0.0,0.0,0.0,0.0,0.0,0.0,0.0,0.0,2.1154,2.1822,2.2594,2.2492,1.9946,0.0,0.0,0.0,0.0,0.0,0.0,0.0,0.0,0.0,0.0,0.0,2.6834,2.876,2.9832,2.938,2.8999,2.8405,2.7494,2.6952,2.5954,2.4381,2.2459,2.0882,0.0,0.0,0.0,0.0,0.0,0.0,0.0,0.0,0.0,0.0,0.0,0.0,0.0,0.0,0.0,0.0,0.0,0.0,0.0,0.0,0.0,0.0,0.0,0.0,0.0,0.0,0.0,0.0,0.0,0.0,0.0,0.0,1.5255,1.5791,0.0,0.0,0.0,0.0,0.0,0.0,0.0,0.0,0.0,0.0,0.0,0.0,0.0,2.0348,2.1213,2.2748,2.3647,2.395,2.5297,2.5951,2.5973,2.6496,2.6715,2.6693,2.6167,0.0,2.331,2.1887,0.0,0.0,0.0,0.0,0.0,0.0,0.0,0.0,0.0,0.0,0.0,0.0,0.0,0.0,0.0,0.0,0.0,0.0,0.0,0.0,0.0,0.0,2.4353,2.3594,2.387,2.404,2.321,2.2077,2.1067,2.0514,1.9781,1.8999,0.0,0.0,0.0,0.0,0.0,0.0,2.6504,2.8377,2.9347,2.8769,2.8398,2.8147,2.8021,2.7512,2.6683,2.546,2.3768,2.2412,2.1507,1.9978,0.0,0.0,0.0,0.0,0.0,0.0,0.0,0.0,0.0,0.0,0.0,0.0,0.0,0.0,0.0,0.0,0.0,0.0,0.0,0.0,0.0,0.0,0.0,0.0,0.0,0.0,0.0,0.0,0.0,1.5461,1.668,1.7125,1.7363,1.7344,0.0,0.0,0.0,0.0,0.0,0.0,0.0,0.0,0.0,2.1669,2.2083,2.2832,2.395,2.5209,2.5806,2.5679,2.6585,2.6998,2.702,2.7479,2.7697,2.7697,2.75,2.6889,2.5973,2.4028,2.2779,2.2036,0.0,0.0,0.0,0.0,2.2788,2.2799,2.4655,2.5081,2.4696,2.3758,0.0,0.0,0.0,0.0,0.0,0.0,0.0,2.3292,2.3244,2.42,2.5162,2.4989,2.512,2.5229,2.4989,2.4387,2.3446,2.1986,2.2052,2.1706,1.9661,2.0227,0.0,0.0,0.0,2.6655,2.7601,2.8774,2.9193,2.8402,2.8188,2.8097,2.8097,2.7871,2.7544,2.7042,2.5419,2.406,2.3073,2.143,2.0244,0.0,0.0,0.0,0.0,0.0,0.0,0.0,0.0,0.0,0.0,0.0,0.0,0.0,0.0,0.0,0.0,0.0,0.0,0.0,0.0,0.0,0.0,0.0,0.0,0.0,0.0,0.0,0.0,1.7129,1.8201,1.8613,1.9122,1.9201,0.0,0.0,0.0,0.0,0.0,0.0,2.1231,2.1133,2.2062,2.4261,2.4666,2.5407,2.6553,2.7443,2.78,2.7696,2.7823,2.8003,2.8244,2.8461,2.8547,2.857,2.8439,2.8395,2.8221,2.6103,2.477,2.4115,2.4115,2.3591,2.3097,2.488,2.5231,2.5069,2.7143,2.7516,2.69,2.5887,2.4812,2.369,2.2491,0.0,0.0,0.0,0.0,2.4203,2.4717,2.5228,2.5621,2.5841,2.5994,2.6059,2.5928,2.5906,2.5373,2.3642,2.4109,2.3983,2.1456,2.2021,0.0,0.0,0.0,2.7478,2.8539,2.9193,2.9181,2.8188,2.8105,2.8097,2.8097,2.8097,2.8097,2.8097,2.6942,2.5812,2.4883,2.3226,2.2157,2.1783,0.0,0.0,0.0,0.0,0.0,0.0,0.0,0.0,0.0,0.0,0.0,0.0,0.0,0.0,0.0,0.0,0.0,0.0,0.0,0.0,0.0,0.0,0.0,0.0,0.0,0.0,0.0,0.0,0.0,2.041,2.1211,0.0,0.0,0.0,0.0,2.0546,2.2012,2.2947,2.3049,2.3769,2.4667,2.5761,2.6681,2.7633,2.8644,2.9144,2.9816,3.0687,2.9794,2.9862,3.069,3.0297,3.0076,3.0054,2.962,2.9425,2.9316,2.7785,2.7129,2.7064,2.7064,2.678,2.6473,2.7669,2.7813,2.7493,2.8061,2.7946,2.7431,2.6774,2.5248,2.3996,2.5462,2.4517,0.0,0.0,2.5078,2.5226,2.5709,2.6169,2.6431,2.6016,2.6235,2.6453,2.5994,2.5906,2.5884,2.5751,2.507,2.43,2.3626,0.0,2.3502,2.5281,2.6009,2.6931,2.8582,2.9374,2.9336,2.8128,2.8071,2.8097,2.8097,2.8097,2.8097,2.8097,2.8021,2.772,2.716,2.5536,2.4406,2.3869,2.1857,0.0,0.0,0.0,0.0,0.0,0.0,0.0,0.0,0.0,0.0,0.0,0.0,0.0,0.0,0.0,0.0,0.0,0.0,0.0,0.0,0.0,0.0,0.0,0.0,0.0,0.0,0.0,0.0,2.2186,2.3242,0.0,2.2869,2.3084,2.3435,2.3845,2.4449,2.5152,2.604,2.6074,2.6818,2.8419,2.8547,2.9199,3.0513,3.0766,3.104,3.1367,3.1018,3.104,3.1342,3.1167,3.1102,3.108,3.0905,3.0865,3.0843,3.0668,2.9467,2.7719,2.7413,2.7195,2.7108,2.7502,2.7745,2.7878,2.8055,2.801,2.7789,2.7239,2.6584,2.6122,2.6741,2.6373,2.5883,2.6402,2.6778,2.6955,2.6846,2.7151,2.7369,2.6911,2.6911,2.6998,2.6846,2.7042,2.726,2.726,2.6256,2.5142,2.4355,2.4935,2.549,2.5497,2.6526,2.7626,2.8659,2.9013,2.8851,2.8081,2.8374,2.8456,2.8062,2.8381,2.8781,2.9176,2.8831,2.8355,2.7846,2.6214,2.5059,2.4515,2.2934,2.1362,0.0,0.0,0.0,0.0,0.0,0.0,0.0,0.0,0.0,0.0,0.0,0.0,0.0,0.0,0.0,0.0,0.0,0.0,0.0,0.0,0.0,0.0,0.0,0.0,0.0,0.0,2.3669,2.3939,2.5019,2.559,2.5117,2.5352,2.5762,2.6323,2.6615,2.7103,2.7858,2.7734,2.8252,2.9601,2.9568,3.0078,3.1222,3.1482,3.1654,3.1798,3.1654,3.1691,3.187,3.1669,3.1604,3.1604,3.1778,3.187,3.1913,3.2241,3.1236,2.9465,2.9314,2.9161,2.903,2.903,2.8985,2.8941,2.8614,2.8504,2.8417,2.796,2.7697,2.7544,2.7544,2.7413,2.7282,2.7282,2.7522,2.7697,2.7369,2.7653,2.7871,2.7413,2.7413,2.7479,2.7326,2.7544,2.7828,2.7958,2.726,2.6409,2.5797,2.6416,2.6949,2.6699,2.7387,2.8145,2.8597,2.8674,2.8483,2.7974,2.8341,2.8434,2.8027,2.8548,2.8987,2.9189,2.8844,2.8455,2.8104,2.649,2.5585,2.5541,2.4278,2.2734,2.0974,0.0,0.0,0.0,0.0,0.0,0.0,0.0,0.0,0.0,0.0,0.0,0.0,0.0,0.0,0.0,0.0,0.0,0.0,0.0,0.0,0.0,0.0,0.0,2.2557,2.3669,2.482,2.5698,2.6557,2.6934,2.6523,2.7252,2.7741,2.7761,2.8496,2.8769,2.8398,2.8769,2.9033,2.9179,2.9761,3.0284,3.0752,3.1365,3.1836,3.2204,3.1841,3.1953,3.2437,3.1909,3.1691,3.1713,3.2219,3.2437,3.2442,3.2442,3.242,3.2464,3.2879,3.277,3.2398,3.2398,3.1738,3.0777,2.9884,2.9578,2.9491,2.9055,2.8528,2.8089,2.8089,2.7762,2.7392,2.7392,2.7392,2.7392,2.7392,2.7741,2.7936,2.75,2.7741,2.7936,2.7479,2.7392,2.7522,2.7958,2.8045,2.8045,2.8002,2.7631,2.7701,2.8879,2.8606,0.0,2.8398,2.8453,2.8316,2.7861,2.7939,2.8013,2.8013,2.8572,2.8648,2.8051,2.8071,2.8085,2.811,2.6515,2.6063,2.6968,2.5923,2.4253,2.2019,0.0,0.0,0.0,0.0,0.0,0.0,0.0,0.0,0.0,0.0,0.0,0.0,0.0,0.0,0.0,0.0,0.0,0.0,0.0,0.0,0.0,2.2893,2.4281,2.3945,2.5547,2.6973,2.7519,2.834,2.8855,2.8738,2.8613,2.8828,2.9481,2.9461,2.9657,3.0156,3.0293,3.0579,3.1035,3.1232,3.1602,3.2154,3.2746,3.2893,3.2566,3.3341,3.3545,3.3262,3.3573,3.3699,3.3677,3.3508,3.3399,3.3377,3.3054,3.2901,3.2857,3.2241,3.1935,3.1826,3.1826,3.1626,3.1364,3.1102,3.1014,3.0993,3.0887,3.0515,3.0122,3.0122,2.9773,2.9399,2.9399,2.9399,2.9399,2.9399,2.9487,2.9552,2.9421,2.9487,2.9552,2.9421,2.9399,2.9358,2.9139,2.9379,2.9268,2.8176,2.7893,2.7808,2.7811,2.7657,0.0,2.8268,2.805,2.7957,2.8275,2.8471,2.8572,2.8572,2.8729,2.8748,2.8592,2.783,2.7753,2.8562,2.7372,2.6719,2.6765,2.5151,2.435,0.0,0.0,0.0,0.0,0.0,0.0,0.0,0.0,0.0,0.0,0.0,0.0,0.0,0.0,0.0,0.0,0.0,0.0,0.0,0.0,0.0,0.0,2.3954,2.5534,2.5388,2.7005,2.8284,2.8501,2.8971,2.9193,2.8944,2.9222,2.9623,3.0121,3.048,3.0908,3.1436,3.1455,3.1505,3.1661,3.1743,3.1859,3.2047,3.2426,3.2462,3.2106,3.2987,3.3372,3.331,3.3838,3.4125,3.4207,3.4141,3.3988,3.3792,3.3704,3.3683,3.3573,0.0,0.0,0.0,0.0,3.2219,3.2219,3.2219,3.2219,3.2219,3.2219,3.1913,3.152,3.152,3.1192,3.0774,3.0774,3.0774,3.0774,3.0774,3.0774,3.0774,3.0774,3.0774,3.0774,3.0774,3.0622,3.0472,3.0384,3.045,0.0,2.9356,2.905,2.8766,2.8287,2.8222,2.8205,2.8188,2.7942,2.7935,2.837,2.8321,2.8305,2.8305,2.8354,0.0,0.0,0.0,2.7018,2.7732,2.7247,0.0,0.0,0.0,0.0,0.0,0.0,0.0,0.0,2.4394,2.4449,0.0,0.0,0.0,0.0,0.0,0.0,0.0,0.0,0.0,0.0,0.0,0.0,0.0,0.0,0.0,0.0,2.4703,2.6473,2.6796,2.7995,2.8849,2.8756,2.8761,2.8586,2.8163,2.921,2.9986,3.0076,3.1213,3.1921,3.2061,3.2061,0.0,0.0,0.0,3.1471,3.1176,3.1359,3.143,3.1354,3.1871,3.2364,3.2886,3.3339,3.366,3.3901,3.4245,3.4185,3.3835,3.4245,3.4441,3.4419,3.3573,3.3251,3.3251,3.3185,3.3163,3.3163,3.312,0.0,0.0,3.3098,3.2813,3.2486,3.2486,3.2154,3.1756,3.1756,3.1756,3.1756,3.1756,3.1756,3.1756,3.1756,3.1756,3.1756,3.1756,3.1455,3.1258,3.1604,3.1367,3.104,3.0996,3.0603,3.0122,2.9665,2.9578,2.9226,2.8308,2.8133,2.8163,2.836,2.797,0.0,2.7711,2.7754,2.7516,2.6944,2.6566,2.6373,2.6463,2.6864,2.7788,2.9273,2.9539,2.9632,2.9568,2.9537,2.9879,3.0458,2.7554,2.6906,0.0,0.0,0.0,0.0,0.0,0.0,0.0,0.0,0.0,0.0,0.0,0.0,0.0,0.0,0.0,2.3786,2.5458,2.6864,2.7558,2.8176,2.8553,2.8563,2.8551,2.862,2.8796,2.8803,2.9149,2.9974,2.9972,3.0297,3.1103,3.1133,3.1094,3.1016,3.1035,3.1247,3.1667,3.2166,3.2182,3.1726,3.2767,0.0,3.276,3.3318,3.3881,3.4332,3.4076,3.3879,3.3814,3.3901,3.4163,3.4485,3.4288,3.425,3.4185,3.3792,3.3661,3.3595,3.3229,3.3098,3.3098,3.3098,3.3032,3.2967,3.2967,3.2901,0.0,3.2813,3.2813,3.2813,3.2813,3.2813,3.2813,3.2813,3.2813,3.2813,3.2813,3.2748,3.2595,3.2285,3.2154,3.1957,3.1538,3.1083,3.0603,3.0144,3.0078,2.986,2.927,2.8878,2.8715,2.8835,2.8448,2.8208,2.8321,2.7891,2.7413,2.6946,2.7165,2.7349,2.7434,2.8435,2.9239,2.9819,2.9179,2.9199,2.9889,2.9777,3.0289,3.1315,2.9092,2.8997,0.0,0.0,0.0,0.0,0.0,0.0,0.0,0.0,0.0,0.0,0.0,2.1352,2.2038,0.0,2.3934,2.4388,2.5839,2.6837,2.6759,2.7361,2.7871,2.803,2.7892,2.7655,2.733,2.7784,2.8313,2.8827,2.9977,3.0876,3.1386,3.1875,3.2148,3.2148,3.1953,3.2038,3.2451,3.2502,3.2452,3.2277,3.3077,3.3469,3.3526,3.4066,3.4504,3.4862,3.46,3.4382,3.4163,3.4163,3.4288,3.4507,3.4507,3.4507,3.4463,3.425,3.4163,3.4119,3.3879,3.3792,3.3792,3.3792,3.3792,3.3792,3.3792,3.3644,3.3447,3.3447,3.3447,3.3447,3.3447,3.3617,3.3792,3.3792,3.3792,3.3792,3.3792,3.3622,3.3382,3.3136,3.2923,3.2595,3.2088,3.1804,3.1389,3.0668,3.0559,3.0384,2.9904,2.9665,2.9434,2.9276,2.8833,2.8478,2.8269,2.7537,2.6987,2.6764,2.6763,2.7044,2.7719,2.8327,2.913,3.0176,2.9751,2.9844,3.0492,3.0703,3.1365,3.2414,3.1432,3.1415,0.0,0.0,0.0,0.0,0.0,0.0,0.0,0.0,2.0125,2.1796,2.2345,2.2672,2.3134,2.4034,2.4727,2.4765,2.5974,2.6681,2.5913,2.6577,2.7264,2.768,2.7247,2.6651,2.5993,2.6919,2.7724,2.7983,3.0006,3.1322,3.1441,3.2207,3.2612,3.2535,3.2552,3.2695,3.2975,3.2911,3.2986,3.3155,3.348,3.3901,3.4444,3.4827,3.5062,3.519,3.5102,3.4906,3.4637,3.4637,3.4681,3.4768,3.4768,3.4768,3.4775,3.4572,3.4507,3.4507,3.4507,3.4507,3.4485,3.4376,3.4419,3.4485,3.4376,3.4163,3.3945,3.3945,3.3945,3.3945,3.3945,3.4163,3.4354,3.4354,3.4354,3.4354,3.4354,3.4141,3.3945,3.3945,3.3579,3.312,3.2748,3.2529,3.2088,3.1171,3.104,3.0865,3.0406,3.0341,3.0166,2.9709,2.9294,2.8835,2.8199,2.7282,2.6737,2.6737,2.6453,2.6847,2.8055,2.821,2.9028,3.0719,3.0656,3.0811,3.1221,3.1643,3.2306,3.3184,3.3249,3.3334,1.6718,1.6827,1.7435,1.7985,1.8605,1.9549,0.0,0.0,2.1989,2.3151,2.3386,2.3591,2.4268,2.4763,2.5148,2.5453,2.5961,2.636,2.655,2.6934,2.7431,2.8052,2.7064,2.6488,2.6962,2.7157,2.7733,2.8943,2.9007,2.9243,2.9846,2.9956,2.9859,2.9516,3.0952,3.1996,3.2554,3.3969,3.4715,3.4731,3.4774,3.4853,3.4933,3.4976,3.5062,3.519,3.4747,3.4768,3.5124,3.5124,3.5386,3.583,3.583,3.583,3.5721,3.484,3.4507,3.4507,3.4507,3.4507,3.4419,3.401,3.4163,3.4419,3.401,3.4141,3.4419,3.4419,3.4419,3.4419,3.4419,3.4163,3.3879,3.3879,3.3879,3.3879,3.3879,3.4163,3.4419,3.4419,3.4054,3.3704,3.3639,3.294,3.2197,3.1604,3.1516,3.1342,3.0887,3.0821,3.0646,3.0188,3.0078,2.9663,2.8769,2.7785,2.7217,2.7217,2.7566,2.8188,2.9179,2.9623,3.05,3.198,3.1543,3.1538,3.2063,3.2,3.2243,3.2778,3.3112,3.3763,1.8202,0.0,0.0,0.0,2.0051,2.0874,2.202,2.2429,2.2895,2.3949,2.4309,2.4674,2.5388,2.5945,2.6374,0.0,2.701,2.7343,2.7296,2.7232,2.7232,2.7312,2.6994,2.6962,2.7421,2.7328,2.7431,2.7994,2.8461,2.8838,2.9141,2.9707,2.9942,2.9765,3.0465,3.0843,3.0885,3.2869,3.3779,3.3564,3.4938,3.5575,3.5575,3.5575,3.5613,3.5655,3.5481,3.5299,3.5212,3.5212,3.5168,3.5124,3.5124,3.5124,3.5102,3.4971,3.4928,3.4928,3.4928,3.4928,3.4928,3.5037,3.5218,3.5277,3.4775,3.4578,3.4441,3.4185,3.4098,3.4098,3.4098,3.4163,3.4141,3.3857,3.3792,3.3726,3.3447,3.3557,3.3683,3.3683,3.3748,3.3704,3.3447,3.3289,3.3027,3.2547,3.1979,3.1516,3.132,3.1323,3.1149,3.0668,3.0362,2.9925,2.925,2.8571,2.8024,2.7741,2.7631,2.8143,2.9366,2.9597,3.0332,3.1717,3.1512,3.1512,3.1738,3.2352,3.3013,3.3773,3.4558,3.5444,1.9343,0.0,0.0,2.0712,2.1354,2.2042,2.2752,2.326,2.3832,2.469,2.5151,2.558,2.6216,2.682,2.72,2.72,2.7772,2.8103,2.7865,2.7645,2.7423,2.7297,2.7391,2.7629,2.7979,2.7693,2.7534,2.7629,2.8274,2.8594,2.8494,2.9172,2.9549,2.9445,2.9917,3.0183,3.0155,3.2267,3.332,3.3326,3.5023,3.5935,3.6112,3.618,3.6202,3.618,3.6049,3.5787,3.5408,3.5408,3.5212,3.4906,3.4747,3.4681,3.4703,3.4949,3.5102,3.5233,3.5364,3.5408,3.5452,3.5721,3.5874,3.5896,3.5364,3.5081,3.484,3.4491,3.4431,3.436,3.4229,3.436,3.4376,3.3923,3.3683,3.3513,3.3163,3.3098,3.3098,3.3098,3.3382,3.3557,3.3338,3.3469,3.3557,3.3316,3.2547,3.1979,3.1848,3.1691,3.1473,3.1127,3.069,3.0253,2.9928,2.9445,2.9006,2.8635,2.8286,2.8768,3.0211,3.0277,3.0884,3.2294,3.2315,3.2315,3.2315,3.3144,3.404,3.4957,3.5752,3.6681,0.0,0.0,2.0648,2.1682,2.2477,2.3149,2.3877,2.4577,2.5151,2.5501,2.5882,2.6263,2.6629,2.6962,2.72,2.72,2.7772,2.8183,2.8183,2.8167,2.8313,2.8697,2.8408,2.8344,0.0,2.8408,2.8344,2.8729,2.8427,2.8093,2.7759,2.7743,2.7617,2.7316,2.8937,3.029,3.124,3.2993,3.4363,3.5314,3.5376,3.5746,3.6389,3.6573,3.6675,3.6653,3.6202,3.5983,3.5983,3.5983,3.5961,3.5896,3.5386,3.519,3.5124,3.4681,3.479,3.5277,3.5808,3.5983,3.5896,3.5386,3.5561,3.5896,3.5364,3.5539,3.594,3.594,3.5918,3.5808,3.5299,3.4812,3.4376,3.3923,3.3447,3.312,3.3098,3.3098,3.3098,3.3098,3.3098,3.3251,3.3704,3.3426,3.3273,3.3704,3.3382,3.2879,3.2442,3.1935,3.1582,3.1582,3.1171,3.0865,3.0865,3.0428,3.0141,3.012,3.0122,3.0802,3.2348,3.2418,3.3094,3.458,3.4603,3.4603,3.4603,3.4628,3.5121,3.6044,3.6096,3.6914,0.0,0.0,2.2275,2.2835,2.3721,2.4531,2.4992,2.5469,2.5929,2.6247,2.6263,2.6279,2.6645,2.6962,2.728,2.7518,2.7897,2.8357,2.8869,2.8519,2.823,2.8392,2.8106,0.0,0.0,0.0,0.0,2.8392,2.8297,2.804,2.7723,2.7897,2.7976,2.7884,2.9176,3.0018,3.0387,3.2992,3.4457,3.4825,3.6098,3.6859,3.7071,3.7131,3.7156,3.7164,3.7011,3.6748,3.6457,3.6457,3.6289,3.5983,3.5808,3.5743,3.5677,3.5168,3.5052,3.5233,3.5408,3.5452,3.5496,3.5677,3.5852,3.5896,3.5364,3.5561,3.5918,3.5561,3.5743,3.5961,3.5787,3.5634,3.5364,3.4862,3.4382,3.3945,3.3617,3.3316,3.301,3.2704,3.2879,3.3054,3.2901,3.301,3.3054,3.2874,3.301,3.3032,3.2879,3.2442,3.2132,3.2132,3.1673,3.1236,3.093,3.0756,3.0537,3.0207,3.0185,3.0648,3.166,3.2229,3.2957,3.3905,3.4429,3.4883,3.5242,3.5576,3.6251,3.7184,3.7978,3.8795,2.1402,2.2513,2.3499,2.3962,2.4801,2.5548,2.5771,2.612,2.6391,2.6502,2.6438,2.6391,2.6502,2.6804,2.7169,2.7611,2.8088,2.8583,2.9043,2.8821,2.8503,2.8214,2.7897,2.7834,0.0,0.0,0.0,2.8183,2.8183,2.804,2.7723,2.8008,2.8183,2.8183,2.8907,2.9662,3.048,3.2442,3.3817,3.4593,3.6165,3.6933,3.6964,3.728,3.7404,3.7404,3.7404,3.7251,3.6937,3.6937,3.6792,3.6486,3.6333,3.6246,3.6202,3.567,3.5474,3.543,3.5081,3.4971,3.5015,3.5343,3.559,3.5655,3.5299,3.5561,3.5918,3.5561,3.5743,3.5961,3.5765,3.5721,3.5634,3.5277,3.4834,3.4463,3.4338,3.3923,3.3442,3.2984,3.3141,3.3207,3.2726,3.2901,3.2988,3.2704,3.2901,3.2967,3.2617,3.2486,3.242,3.242,3.2241,3.2001,3.172,3.1699,3.1567,3.1258,3.1083,3.1448,3.2461,3.2859,3.3601,3.481,3.5324,3.5867,3.6391,3.691,3.76,3.8406,3.9382,3.9968,2.2675,2.3639,2.4354,2.4992,2.5707,2.6232,2.6232,2.647,2.6613,2.6279,2.6422,2.6518,0.0,0.0,2.6851,2.75,2.8265,2.8793,2.8856,2.9107,2.9075,0.0,0.0,0.0,0.0,0.0,0.0,2.8246,2.8246,2.8103,2.7802,2.8072,2.8246,2.8246,2.8385,2.9437,3.1549,3.17,3.2803,3.4851,3.5776,3.6205,3.6227,3.7065,3.7426,3.7404,3.7404,3.7404,3.7404,3.7404,3.7404,3.7361,3.6894,3.6741,3.6675,3.6224,3.6027,3.5896,3.4928,3.455,3.4528,3.4528,3.4812,3.5168,3.5168,3.5517,3.5961,3.5961,3.5983,3.5874,3.5364,3.5255,3.5255,3.5255,3.4884,3.4659,3.5102,3.4812,3.4354,3.3879,3.3792,3.3639,3.3207,3.3141,3.312,3.3076,3.3054,3.2726,3.1804,3.211,3.242,3.242,3.277,3.3032,3.3054,3.3054,3.3076,3.3098,3.2709,3.3175,3.4614,3.4346,3.5088,3.7139,3.7186,3.7462,3.7989,3.8479,3.9012,3.9564,4.0115,4.029,2.3946,2.4911,2.5722,2.5866,2.6247,2.6566,2.6566,2.6645,2.6677,2.6597,2.5993,2.5405,0.0,0.0,0.0,2.6518,2.7566,0.0,2.9441,2.9631,0.0,2.9405,0.0,2.9028,2.9341,2.9171,0.0,0.0,2.9028,2.898,2.89,2.898,2.9028,2.9028,3.0656,3.1809,3.2399,3.424,3.579,3.7019,3.7266,3.7444,3.7601,3.7832,3.7724,3.7404,3.7404,3.7404,3.7404,3.7404,3.7404,3.7404,3.7273,3.7199,3.7156,3.6675,3.65,3.6413,3.583,3.5343,3.5009,3.5009,3.4884,3.4659,3.4659,3.5037,3.5408,3.5408,3.5699,3.5961,3.583,3.5808,3.5808,3.5808,3.5386,3.5059,3.5168,3.4812,3.4354,3.3879,3.3792,3.3748,3.3639,3.3617,3.3377,3.2682,3.2573,3.2617,3.2726,3.2529,3.242,3.242,3.2154,3.2154,3.2551,3.2573,3.2726,3.3076,3.3599,3.4083,3.4451,3.5495,3.6352,3.6898,3.7119,3.7455,3.7919,3.7678,3.7989,3.8872,3.9458,3.9915,2.507,2.585,2.6407,2.6407,2.6677,2.6819,2.655,2.6597,2.6486,2.5723,2.5294,0.0,0.0,0.0,0.0,0.0,0.0,0.0,2.9488,2.9817,2.9897,0.0,2.9282,0.0,2.9345,2.9186,2.9123,0.0,2.9441,2.9393,2.9111,2.9218,2.9298,2.9298,3.1012,3.2403,3.338,3.5588,3.6973,3.7494,3.792,3.8167,3.8289,3.8354,3.816,3.7702,3.7702,3.7571,3.7404,3.7404,3.7404,3.7404,3.7404,3.7404,3.7382,3.709,3.7003,3.6959,3.6705,3.626,3.5823,3.5605,3.5212,3.479,3.479,3.4834,3.4878,3.4878,3.5102,3.5343,3.5343,3.5343,3.5386,3.5583,3.5408,3.5277,3.5496,3.5343,3.5015,3.4513,3.4076,3.3792,3.3792,3.3792,3.3551,3.2813,3.2704,3.2726,3.2792,3.2573,3.242,3.242,3.2306,3.2372,3.2682,3.2704,3.2813,3.3076,3.3378,3.3843,3.4521,3.5183,3.601,3.6949,3.7118,3.7554,3.829,3.8243,3.8606,3.9352,3.9926,4.0206,2.5977,2.6534,2.6836,2.6788,2.6978,2.701,2.6343,2.6311,2.5993,2.4466,0.0,2.4404,2.3228,2.4086,2.5214,2.5993,0.0,2.8853,2.9314,2.9917,3.0108,2.9568,2.927,2.9095,2.9143,2.9159,2.9254,2.9488,2.979,2.9663,2.8984,2.9155,2.9369,2.9497,3.0622,3.2228,3.428,3.6078,3.7011,3.7112,3.7933,3.8344,3.8357,3.8529,3.8412,3.808,3.7984,3.7815,3.7492,3.7426,3.7404,3.7404,3.7404,3.7404,3.7404,3.7404,3.7404,3.7404,3.7404,3.7112,3.6697,3.6246,3.5743,3.5321,3.5321,3.4971,3.4594,3.4594,3.455,3.4507,3.4507,3.4507,3.4594,3.5015,3.5124,3.5233,3.5699,3.5808,3.5699,3.5277,3.4534,3.3988,3.3988,3.3988,3.3792,3.3273,3.3251,3.3098,3.2573,3.2398,3.2285,3.2285,3.266,3.2923,3.2988,3.301,3.3032,3.3098,3.2832,3.3272,3.4608,3.439,3.5159,3.7117,3.7139,3.7631,3.8674,3.9151,3.9649,4.0204,4.0676,4.0688,2.6407,2.7057,2.7471,2.7185,2.7153,2.701,2.6343,2.5548,0.0,0.0,0.0,2.2958,2.2978,2.3718,2.4593,2.5564,0.0,0.0,0.0,0.0,3.0378,0.0,0.0,0.0,0.0,0.0,0.0,0.0,3.0686,3.0378,2.9679,2.9425,2.9712,3.0693,3.1824,3.2997,3.428,3.5553,3.6525,3.7112,3.7266,3.7442,3.7598,3.7645,3.7707,3.7846,3.7451,3.7548,3.7942,3.7579,3.7404,3.7404,3.7404,3.7404,3.7404,3.7404,3.7404,3.7404,3.7404,3.7361,3.7208,3.6719,3.6268,3.5874,3.5874,3.5474,3.5081,3.5081,3.479,3.4507,3.4507,3.4507,3.4507,3.4594,3.4616,3.4637,3.4725,3.4775,3.4862,3.5146,3.5081,3.4971,3.4971,3.4971,3.4666,3.3792,3.401,3.3945,3.3098,3.2241,3.1735,3.1735,3.18,3.2044,3.2486,3.2529,3.2682,3.3076,3.37,3.4155,3.4442,3.5074,3.5868,3.6847,3.6874,3.726,3.806,3.8088,3.8625,3.9638,3.973,4.0199,2.6756,2.7328,2.7611,2.7296,2.72,2.6883,2.5643,0.0,0.0,0.0,0.0,2.2593,2.201,0.0,0.0,0.0,0.0,0.0,0.0,0.0,0.0,0.0,0.0,0.0,0.0,0.0,3.1083,3.0908,3.0718,3.0426,3.0092,2.9758,3.0013,3.0977,3.2105,3.3224,3.428,3.5806,3.6742,3.7112,3.7461,3.7673,3.7765,3.8148,3.8257,3.8178,3.8047,3.8025,3.8073,3.7571,3.7404,3.7404,3.7404,3.7404,3.7404,3.7404,3.7404,3.7404,3.7404,3.7404,3.7382,3.7142,3.677,3.6377,3.6377,3.5998,3.5634,3.5634,3.5452,3.5277,3.5277,3.5081,3.4856,3.4856,3.4659,3.4507,3.4507,3.4507,3.4572,3.479,3.4862,3.4862,3.4862,3.5059,3.4971,3.4272,3.4382,3.4245,3.3557,3.2809,3.2372,3.2372,3.2154,3.2219,3.2726,3.2551,3.2507,3.2726,3.3492,3.4142,3.4583,3.5399,3.6349,3.7419,3.7742,3.8336,3.9264,3.9479,4.0187,4.1268,4.1268,4.1386,2.6914,2.7407,2.7611,2.7296,2.7153,2.6644,2.4991,2.4404,0.0,0.0,2.2137,2.2343,2.1338,0.0,0.0,0.0,0.0,0.0,0.0,0.0,0.0,0.0,0.0,0.0,0.0,0.0,0.0,3.1131,3.0759,3.0473,3.033,2.996,3.0078,3.0703,3.1999,3.312,3.3935,3.5874,3.6843,3.6876,3.7394,3.7662,3.7696,3.8416,3.8603,3.8419,3.8539,3.8463,3.8226,3.7614,3.7404,3.7404,3.7404,3.7404,3.7404,3.7404,3.7404,3.7404,3.7404,3.7404,3.7404,3.7404,3.7164,3.685,3.685,3.653,3.6158,3.6158,3.6071,3.6005,3.6005,3.5699,3.5364,3.5364,3.5102,3.484,3.484,3.4725,3.4637,3.4637,3.4572,3.4507,3.4507,3.479,3.4899,3.455,3.4572,3.4463,3.401,3.3732,3.3513,3.3426,3.2988,3.2901,3.336,3.3049,3.2853,3.2853,3.339,3.4022,3.4698,3.527,3.6173,3.7617,3.809,3.8994,4.0314,4.0823,4.1629,4.2704,4.2716,4.2521,2.6645,2.7216,2.7611,2.7296,2.6962,2.6375,2.4943,0.0,0.0,2.2112,2.1735,2.1629,2.1857,2.2318,0.0,0.0,0.0,0.0,0.0,0.0,0.0,0.0,0.0,0.0,0.0,3.2269,3.2142,3.184,3.149,3.1014,3.0346,2.996,2.9843,2.992,3.173,3.2736,3.2841,3.5005,3.6084,3.6084,3.6152,3.6186,3.6219,3.6944,3.7608,3.8138,3.7964,3.8227,3.8675,3.7767,3.7404,3.7404,3.7404,3.7404,3.7404,3.7404,3.7404,3.7404,3.7404,3.7404,3.7404,3.7404,3.7382,3.7339,3.7339,3.7003,3.6631,3.6631,3.6333,3.6005,3.6005,3.5961,3.5918,3.5918,3.5896,3.5874,3.5874,3.5474,3.5146,3.5146,3.479,3.4507,3.4507,3.4528,3.455,3.4507,3.4856,3.4971,3.4485,3.4775,3.484,3.4397,3.3945,3.3857,3.4332,3.4332,3.431,3.431,3.4371,3.4427,3.451,3.418,3.4795,3.6433,3.6499,3.759,3.9669,4.0158,4.0981,4.209,4.2091,4.2358,2.655,2.7185,2.7611,2.7296,2.6946,2.6279,2.4657,0.0,2.2724,2.1846,2.1703,2.1735,2.1645,2.2116,0.0,0.0,0.0,0.0,0.0,0.0,0.0,0.0,0.0,0.0,0.0,0.0,3.2507,3.1967,3.1586,3.1268,3.0982,3.0632,3.0251,2.9801,3.1899,3.2914,3.2701,3.4902,3.5982,3.5982,3.5982,3.5982,3.605,3.7159,3.7863,3.8134,3.8669,3.8846,3.8741,3.8095,3.7636,3.7404,3.7404,3.7404,3.7404,3.7404,3.7404,3.7404,3.7404,3.7404,3.7404,3.7404,3.7404,3.7404,3.7404,3.7273,3.7142,3.7142,3.6989,3.6836,3.6836,3.6639,3.6355,3.6071,3.6005,3.6005,3.6005,3.583,3.5699,3.5699,3.5517,3.5299,3.4993,3.4928,3.484,3.4528,3.4659,3.4703,3.4507,3.4659,3.484,3.4899,3.425,3.3988,3.4463,3.425,3.4076,3.4076,3.4543,3.4821,3.4848,3.5133,3.6034,3.7532,3.7891,3.89,4.067,4.151,4.2176,4.2675,4.3318,4.3379,2.6327,2.6962,2.7359,2.7105,2.682,2.6088,0.0,0.0,2.2819,2.1634,2.1719,2.1873,2.146,2.1915,2.245,0.0,0.0,0.0,0.0,0.0,0.0,0.0,0.0,3.1379,0.0,3.2786,3.2587,3.211,3.1649,3.1395,3.1395,3.1522,3.1205,3.0474,3.2248,3.3215,3.3189,3.504,3.5982,3.5982,3.5982,3.5982,3.605,3.7461,3.8109,3.8154,3.9153,3.9306,3.8763,3.8313,3.7811,3.7404,3.7404,3.7404,3.7404,3.7404,3.7404,3.7404,3.7404,3.7404,3.7404,3.7404,3.7404,3.7404,3.7404,3.7404,3.7404,3.7404,3.7404,3.7404,3.7404,3.7134,3.6806,3.6486,3.6421,3.6421,3.6421,3.6311,3.6224,3.6224,3.6093,3.5874,3.5496,3.543,3.5277,3.4768,3.4703,3.4637,3.4507,3.4507,3.4616,3.4971,3.4403,3.4272,3.4906,3.4644,3.4447,3.4447,3.498,3.5316,3.5371,3.6002,3.6821,3.7816,3.8594,3.9641,4.0999,4.1983,4.2682,4.3071,4.3652,4.3508,2.5898,2.6438,2.6709,2.6709,2.6438,2.5723,0.0,2.3488,2.3092,2.1682,2.1719,2.1873,2.146,2.1735,2.2112,0.0,0.0,0.0,0.0,0.0,0.0,0.0,0.0,3.0357,3.1792,3.2221,3.2412,3.2412,3.1776,3.1395,3.1395,3.2512,3.2806,3.1993,3.2764,3.3551,3.428,3.5416,3.5982,3.5982,3.5982,3.5982,3.605,3.7461,3.8109,3.8154,3.9153,3.9306,3.8763,3.8313,3.7811,3.7404,3.7404,3.7404,3.7404,3.7404,3.7404,3.7404,3.7404,3.7404,3.7404,3.7404,3.7404,3.7404,3.7404,3.7404,3.7404,3.7404,3.7404,3.7404,3.7404,3.7404,3.7404,3.7404,3.7404,3.7404,3.7404,3.7003,3.6697,3.6697,3.6333,3.6005,3.5983,3.5983,3.5808,3.5277,3.519,3.5009,3.455,3.4507,3.4507,3.4507,3.4507,3.4906,3.5896,3.5983,3.5983,3.5983,3.5961,3.6012,3.6012,3.6307,3.6487,3.6515,3.7756,3.8955,4.003,4.09,4.1862,4.2894,4.2358,4.2117,2.4247,2.4976,2.5548,2.531,2.5007,2.4482,2.339,2.3152,2.2883,2.1989,2.1905,2.1952,2.1841,2.1687,2.193,2.301,0.0,0.0,0.0,0.0,0.0,2.9627,3.13,3.2507,0.0,3.2873,3.2722,3.2428,3.1999,3.1649,3.1411,3.1763,3.1993,3.1993,3.3803,3.4635,3.4314,3.5416,3.5982,3.5982,3.5982,3.6253,3.6775,3.7696,3.8395,3.8892,3.9715,3.9809,3.9328,3.8794,3.8282,3.7833,3.7535,3.7404,3.7404,3.7404,3.7404,3.7404,3.7404,3.7404,3.7404,3.7404,3.7404,3.7404,3.7404,3.7404,3.7404,3.7404,3.7404,3.7404,3.7404,3.7404,3.7404,3.7404,3.7404,3.7404,3.7404,3.7295,3.7186,3.7186,3.7055,3.6858,3.6522,3.6486,3.6333,3.583,3.5765,3.5539,3.503,3.4993,3.4862,3.4528,3.4507,3.4616,3.4949,3.4971,3.4971,3.4971,3.4971,3.4971,3.4971,3.5636,3.6017,3.6017,3.7593,3.8573,3.8904,4.0517,4.1676,4.2358,4.2197,4.209,0.0,2.3898,2.4438,2.4245,2.4023,2.3642,2.2799,2.2815,2.2815,2.2127,2.2096,2.2143,2.2016,2.1809,2.1899,2.2799,0.0,0.0,0.0,0.0,0.0,2.9441,0.0,0.0,3.2888,3.2976,3.2849,3.2444,3.211,3.176,3.1411,3.1711,3.2109,3.2636,3.4072,3.487,3.4918,3.5675,3.5982,3.5982,3.6287,3.664,3.7146,3.8063,3.8781,3.9243,3.9986,4.0028,0.0,3.9034,3.8522,3.8051,3.7571,3.7404,3.7404,3.7404,3.7404,3.7404,3.7404,3.7404,3.7404,3.7404,3.7404,3.7404,3.7404,3.7404,3.7404,3.7404,3.7404,3.7404,3.7404,3.7404,3.7404,3.7404,3.7404,3.7404,3.7404,3.7404,3.7404,3.7404,3.7404,3.7317,3.7003,3.6959,3.6784,3.6333,3.6268,3.6093,3.5561,3.5496,3.5386,3.5102,3.5059,3.5059,3.5059,3.4703,3.4507,3.4507,3.4819,3.5013,3.5013,3.6145,3.6611,3.6286,3.8,3.8841,3.8712,4.0645,4.1813,4.2138,4.255,4.2731,0.0,2.3025,2.3327,2.3295,2.3295,2.3041,2.2127,2.2418,0.0,2.208,2.2239,2.2382,2.208,2.1984,2.1984,2.2139,0.0,0.0,0.0,2.6199,0.0,0.0,3.0998,3.1991,3.1991,3.2618,3.2865,3.2444,3.2126,3.1792,3.1411,3.2144,3.2901,3.3674,3.3675,3.4408,3.6001,3.5982,3.5982,3.6016,3.6674,3.7079,3.7213,3.8516,3.9177,3.933,4.0018,4.0028,3.9547,3.9034,3.8522,3.8051,3.7571,3.7404,3.7404,3.7404,3.7404,3.7404,3.7404,3.7404,3.7404,3.7404,3.7404,3.7404,3.7404,3.7404,3.7404,3.7404,3.7404,3.7404,3.7404,3.7404,3.7404,3.7404,3.7404,3.7404,3.7404,3.7404,3.7404,3.7404,3.7404,3.7404,3.7404,3.7404,3.7273,3.6806,3.6741,3.6566,3.6115,3.6049,3.6027,3.6005,3.6005,3.6005,3.6005,3.5146,3.4622,3.4706,3.5462,3.5936,3.6018,3.7616,3.8096,3.7244,3.8887,3.9617,3.9387,4.1235,4.2135,4.229,4.3328,4.3798,2.0139,0.0,2.1454,2.1195,2.1131,2.1131,0.0,2.147,0.0,0.0,0.0,0.0,0.0,0.0,0.0,0.0,0.0,0.0,2.5707,0.0,0.0,3.1157,3.238,3.3111,3.3111,3.327,3.3095,3.2459,3.2332,3.203,3.1427,3.1349,3.2048,3.3638,3.3463,3.4188,3.5982,3.5982,3.5982,3.5982,3.6186,3.6809,3.7896,3.8229,3.8958,4.0051,4.0214,4.0028,3.9547,3.9034,3.8522,3.8051,3.7571,3.7404,3.7404,3.7404,3.7404,3.7404,3.7404,3.7404,3.7404,3.7404,3.7404,3.7404,3.7404,3.7404,3.7404,3.7404,3.7404,3.7404,3.7404,3.7404,3.7404,3.7404,3.7404,3.7404,3.7404,3.7404,3.7404,3.7404,3.7404,3.7404,3.7404,3.7404,3.7382,3.7273,3.7251,3.7076,3.6588,3.6552,3.6421,3.6027,3.6005,3.6005,3.6005,3.5787,3.5943,3.6663,3.6918,3.7369,3.8073,3.907,3.9234,3.8434,3.9398,4.0424,4.1406,4.1901,4.2345,4.2814,4.3488,4.3592,1.9129,2.0003,2.0851,2.0661,2.0639,2.0686,2.0851,0.0,0.0,0.0,0.0,0.0,0.0,0.0,0.0,0.0,2.3832,0.0,0.0,0.0,3.0839,3.1586,3.2745,3.3492,3.3492,3.3492,3.319,3.2459,3.2412,3.2046,3.1188,3.0807,3.126,3.2652,3.286,3.393,3.5982,3.5982,3.6284,3.6822,3.6624,3.7179,3.8473,3.8212,3.8561,3.9287,3.9287,3.9227,3.9066,3.8538,3.8251,3.8051,3.7571,3.7404,3.7404,3.7404,3.7404,3.7404,3.7404,3.7404,3.7404,3.7404,3.7404,3.7404,3.7404,3.7404,3.7404,3.7404,3.7404,3.7404,3.7404,3.7404,3.7404,3.7404,3.7404,3.7404,3.7404,3.7404,3.7404,3.7404,3.7404,3.7404,3.7404,3.7404,3.7404,3.7404,3.7404,3.7317,3.7046,3.7003,3.6915,3.6683,3.6639,3.6639,3.6639,3.6639,3.67,3.6758,3.7514,3.8171,3.8676,3.9922,4.0411,3.9974,4.0384,4.1091,4.2157,4.2386,4.2967,4.3834,4.4386,4.4623,1.8995,1.9994,2.0915,2.0645,2.0693,2.0804,0.0,0.0,0.0,0.0,0.0,0.0,0.0,0.0,0.0,0.0,0.0,0.0,2.7516,2.9615,3.1115,3.1427,3.2666,3.3492,3.3492,3.3429,3.3127,3.2459,3.2316,3.184,3.0956,3.0473,3.0607,3.1459,3.2154,3.3489,3.5566,3.5942,3.6577,3.7505,3.7205,3.7611,3.8607,3.8128,3.8009,3.8109,3.8146,3.825,3.8359,3.8018,3.7893,3.7964,3.7579,3.7404,3.7404,3.7404,3.7404,3.7404,3.7404,3.7404,3.7404,3.7404,3.7404,3.7404,3.7404,3.7404,3.7404,3.7404,3.7404,3.7404,3.7404,3.7404,3.7404,3.7404,3.7404,3.7404,3.7404,3.7404,3.7404,3.7404,3.7404,3.7404,3.7404,3.7404,3.7404,3.7404,3.7404,3.7404,3.7404,3.7404,3.7404,3.7404,3.7404,3.7404,3.7404,3.7525,3.7264,3.6502,3.7948,3.8995,3.9276,4.0739,4.1553,4.1553,4.1634,4.1931,4.2465,4.3006,4.383,4.4915,4.5395,4.5875,1.9908,2.0724,2.0953,1.9503,1.9812,2.04,0.0,0.0,0.0,0.0,0.0,0.0,0.0,0.0,0.0,0.0,0.0,2.7421,0.0,0.0,3.1443,3.1792,3.2809,3.3492,3.3492,3.3247,3.2897,3.2444,3.1872,3.1347,3.0924,3.0251,3.0381,3.1459,3.1608,3.229,3.3623,3.5607,3.6494,3.6284,3.6598,3.6989,3.7382,3.7301,3.7562,3.8121,3.8339,3.8241,3.7901,3.7996,3.7828,3.7514,3.7426,3.7404,3.7404,3.7404,3.7404,3.7404,3.7404,3.7404,3.7404,3.7404,3.7404,3.7404,3.7404,3.7404,3.7404,3.7404,3.7404,3.7404,3.7404,3.7404,3.7404,3.7404,3.7404,3.7404,3.7404,3.7404,3.7404,3.7404,3.7404,3.7404,3.7404,3.7404,3.7404,3.7404,3.7404,3.7404,3.7404,3.7404,3.7404,3.7404,3.7404,3.7404,3.7404,3.8126,3.8536,3.8378,3.936,4.066,4.2264,4.2571,4.2735,4.2735,4.3233,4.3561,4.3643,4.4186,4.478,4.5475,4.5555,4.5662,1.9391,2.0169,2.0661,1.9852,2.0607,2.1481,0.0,0.0,0.0,0.0,0.0,0.0,0.0,0.0,2.4882,2.6485,0.0,2.8408,2.8757,3.0124,3.13,3.1856,3.2682,3.3231,3.3231,3.2873,3.2444,3.1903,3.1395,3.0871,3.033,2.996,3.0041,3.0571,3.117,3.1832,3.256,3.4893,3.6141,3.6313,3.6556,3.6976,3.7475,3.6793,3.6876,3.7541,3.7423,3.7522,3.7795,3.7629,3.7496,3.7404,3.7404,3.7404,3.7404,3.7404,3.7404,3.7404,3.7404,3.7404,3.7404,3.7404,3.7404,3.7404,3.7404,3.7404,3.7404,3.7404,3.7404,3.7404,3.7404,3.7404,3.7404,3.7404,3.7404,3.7404,3.7404,3.7404,3.7404,3.7404,3.7404,3.7404,3.7404,3.7404,3.7404,3.7404,3.7404,3.7404,3.7404,3.7404,3.7404,3.7404,3.7404,3.7616,3.8126,3.8544,3.9233,4.0257,4.0721,4.1553,4.2933,4.3014,4.3014,4.3014,4.357,4.4037,4.434,4.491,4.5502,4.6086,4.6086,4.6086,1.9201,1.9883,2.0559,2.0718,0.0,0.0,0.0,0.0,0.0,0.0,0.0,0.0,0.0,2.4785,0.0,2.75,2.8519,2.9206,2.9282,3.0304,3.1227,3.1729,3.2332,3.2754,3.2754,3.2301,3.1824,3.13,3.0908,3.0426,2.9928,2.9833,2.9817,2.9897,3.084,3.1496,3.1741,3.4052,3.5546,3.6191,3.6553,3.6947,3.7343,3.6411,3.6423,3.7072,3.6661,3.6965,3.7763,3.7345,3.7265,3.7404,3.7404,3.7492,3.7549,3.7549,3.7614,3.7724,3.7724,3.7724,3.7724,3.7724,3.7724,3.7724,3.7724,3.7724,3.7724,3.7724,3.7724,3.7702,3.7571,3.7549,3.7549,3.7549,3.7492,3.7448,3.7557,3.7549,3.7623,3.7702,3.7724,3.7724,3.7724,3.7645,3.7549,3.7549,3.7492,3.7404,3.7404,3.7404,3.7404,3.7404,3.7404,3.7796,3.8723,3.8996,3.9849,4.1492,4.1606,4.2033,4.2958,4.3014,4.3014,4.3014,4.3708,4.4285,4.4695,4.5448,4.606,4.6509,4.6509,4.6509,2.0391,2.0804,2.1036,2.1714,0.0,0.0,0.0,0.0,0.0,0.0,0.0,0.0,0.0,2.6628,2.7913,2.7723,2.9087,2.9997,2.9377,3.0489,3.1379,3.1427,3.176,3.1999,3.1999,3.1379,3.0988,3.094,3.0283,2.9976,3.0267,2.996,2.9928,3.023,3.0713,3.0942,3.0974,3.3243,3.4595,3.502,3.6139,3.6499,3.6142,3.6035,3.6423,3.7072,3.6795,3.7093,3.7784,3.7505,3.7388,3.7404,3.7404,3.7658,3.8051,3.8051,3.8335,3.8697,3.8697,3.8697,3.8697,3.8697,3.8697,3.8697,3.8697,3.8697,3.8697,3.8697,3.8697,3.8588,3.8182,3.8051,3.8051,3.8051,3.7702,3.7535,3.7964,3.8051,3.8182,3.861,3.8697,3.8697,3.8697,3.8357,3.8051,3.8051,3.768,3.7404,3.7404,3.7404,3.7404,3.7404,3.7404,3.7796,3.8723,3.9615,4.0524,4.1549,4.1606,4.2033,4.2958,4.3014,4.3014,4.3014,4.4068,4.4641,4.4695,4.5875,4.6456,4.6509,4.6509,4.6509,1.9455,2.0233,2.101,2.1502,0.0,0.0,0.0,0.0,0.0,0.0,0.0,0.0,0.0,0.0,2.8056,2.8614,2.925,2.9743,2.9901,3.0203,3.0585,3.1052,3.1211,3.1268,3.1268,3.0807,3.0442,3.0235,2.9981,2.9849,2.996,3.0055,3.0299,3.0648,3.0829,3.0893,3.0893,3.2907,3.391,3.3855,3.5772,3.6445,3.5982,3.5982,3.6467,3.7266,3.6859,3.7192,3.7941,3.7567,3.7404,3.7448,3.7702,3.8117,3.8522,3.8522,3.8653,3.8806,3.8806,3.8806,3.8806,3.8806,3.8806,3.8806,3.8806,3.8806,3.8806,3.8806,3.9056,3.9165,3.8685,3.8522,3.8522,3.8522,3.8392,3.8335,3.8479,3.8522,3.8588,3.8763,3.8806,3.8806,3.8806,3.8653,3.8522,3.8522,3.837,3.8292,3.8292,3.8029,3.7833,3.7833,3.8094,3.8641,3.9586,4.0001,4.0841,4.2372,4.2457,4.2625,4.2986,4.3014,4.3014,4.3014,4.3791,4.4203,4.4203,4.4991,4.5582,4.5928,4.5928,4.6139,1.9129,1.986,2.0734,0.0,0.0,0.0,0.0,0.0,0.0,0.0,0.0,0.0,0.0,0.0,0.0,2.9186,2.9472,2.9743,3.0071,2.9928,2.9997,3.0473,3.0537,3.0537,3.0537,3.0315,3.006,2.9801,2.9881,2.9992,3.014,3.0362,3.0648,3.1052,3.0956,3.0893,3.0893,3.2494,3.3197,3.2985,3.5088,3.5976,3.582,3.5866,3.6363,3.7207,3.6923,3.7307,3.8073,3.7571,3.7492,3.7636,3.7964,3.8488,3.9056,3.9056,3.9165,3.9265,3.9265,3.9265,3.9265,3.9265,3.9265,3.9265,3.9265,3.9265,3.9265,3.9265,3.9537,3.9743,3.9384,3.9165,3.9056,3.9056,3.8915,3.885,3.9034,3.9056,3.91,3.9221,3.9265,3.9265,3.9265,3.9165,3.9056,3.9056,3.8893,3.8806,3.8806,3.8522,3.8304,3.8304,3.8612,3.9205,4.0167,4.0329,4.1104,4.2705,4.2922,4.3014,4.3014,4.3014,4.3014,4.3014,4.357,4.3899,4.3899,4.4639,4.518,4.5609,4.5795,4.6113,1.9813,1.9909,0.0,0.0,0.0,0.0,0.0,0.0,0.0,0.0,0.0,0.0,0.0,0.0,0.0,2.9298,2.987,3.0166,2.9833,2.9785,2.9785,2.9785,2.9785,2.9785,2.9785,2.9785,2.9785,2.9785,3.014,3.0473,3.0877,3.0908,3.1067,3.1379,3.1083,3.0893,3.0893,3.1965,3.2508,3.2508,3.3979,3.4941,3.5404,3.5592,3.6107,3.6795,3.7023,3.7467,3.8051,3.7571,3.768,3.8117,3.8117,3.8738,3.9622,3.9622,3.9896,4.0312,4.0312,4.0312,4.0312,4.0312,4.0312,4.0312,4.0312,4.0312,4.0312,4.0312,4.0312,4.0312,4.0312,3.9962,3.9622,3.9622,3.9187,3.8937,3.9481,3.9622,3.9722,4.0224,4.0312,4.0312,4.0312,3.9896,3.9622,3.9622,3.9143,3.8806,3.8806,3.8806,3.8806,3.8806,3.8806,3.9223,4.0233,4.0688,4.136,4.2351,4.2807,4.3014,4.3014,4.3014,4.3014,4.3014,4.357,4.3899,4.3899,4.5018,4.5582,4.5609,4.6219,4.6509,1.8898,1.9669,0.0,0.0,0.0,0.0,0.0,0.0,0.0,0.0,0.0,0.0,0.0,0.0,0.0,2.9218,2.9679,3.0013,3.0119,2.9928,2.9785,2.9785,2.9785,2.9881,3.014,3.0135,3.0135,3.0135,3.0505,3.0781,3.0893,3.1131,3.1284,3.1379,3.0791,3.0734,3.1263,3.1859,3.2373,3.2866,3.3825,3.4492,3.4935,3.5453,3.5924,3.6339,3.6876,3.7305,3.7623,3.747,3.7876,3.8588,3.8588,3.9209,4.0093,4.0093,4.0181,4.0312,4.0312,4.0312,4.0312,4.0312,4.0312,4.0312,4.0312,4.0312,4.0312,4.0312,4.0312,4.0312,4.0312,4.0203,4.0093,4.0093,3.9984,3.9886,4.0071,4.0093,4.0137,4.029,4.0312,4.0312,4.0312,4.0181,4.0093,4.0093,3.9962,3.9733,3.9416,3.9372,3.9209,3.885,3.9419,4.0233,4.1212,4.2036,4.2914,4.3875,4.4044,4.379,4.3039,4.3014,4.3014,4.3014,4.3182,4.3265,4.3265,4.4039,4.4821,4.5597,4.6221,4.6921,1.9352,0.0,0.0,0.0,0.0,0.0,0.0,0.0,0.0,0.0,0.0,0.0,2.8329,2.8595,0.0,2.9806,3.0092,3.0315,3.0505,3.0235,2.9992,2.9992,2.9992,3.0092,3.0262,3.0442,3.0537,3.0537,3.0908,3.1115,3.1115,3.1179,3.1109,3.0966,3.0674,3.067,3.0952,3.177,3.2369,3.2776,3.3747,3.4361,3.4599,3.5271,3.5796,3.6258,3.6941,3.7292,3.7404,3.7404,3.7833,3.8522,3.8741,3.9296,4.005,4.0246,4.0312,4.0312,4.0312,4.0312,4.0312,4.0312,4.0312,4.0312,4.0312,4.0312,4.0312,4.0312,4.0312,4.0312,4.0312,4.0312,4.0312,4.0312,4.0312,4.0312,4.0312,4.0312,4.0312,4.0312,4.0312,4.0312,4.0312,4.0312,4.0312,4.0312,4.0312,4.0203,3.9896,3.9875,3.9765,3.9449,4.0302,4.1289,4.2247,4.3054,4.3944,4.4911,4.4715,4.4288,4.3664,4.3639,4.3639,4.3639,4.3639,4.3639,4.3639,4.4484,4.525,4.5952,4.678,4.754,0.0,0.0,0.0,0.0,0.0,0.0,0.0,0.0,0.0,0.0,0.0,2.8856,2.9139,2.9536,3.0044,3.0733,3.0908,3.094,3.0908,3.0569,3.0362,3.0362,3.0362,3.0378,3.041,3.0712,3.0956,3.0956,3.1211,3.1331,3.13,3.0988,3.0638,3.0235,3.051,3.0567,3.0389,3.1597,3.2301,3.2497,3.3823,3.4463,3.4517,3.5201,3.5849,3.6545,3.7132,3.7404,3.7404,3.7404,3.7689,3.816,3.8566,3.9056,3.9569,4.0006,4.017,4.0246,4.0246,4.0268,4.0312,4.0312,4.0312,4.0312,4.0312,4.0312,4.0312,4.0312,4.0312,4.0312,4.0312,4.0312,4.0312,4.0312,4.0312,4.0312,4.0312,4.0312,4.0312,4.0312,4.0312,4.0312,4.0312,4.0312,4.0312,4.0312,4.0312,4.0312,4.0312,4.0312,4.0312,4.0312,4.1229,4.2229,4.3216,4.3872,4.4599,4.5543,4.507,4.474,4.474,4.464,4.4589,4.4589,4.4589,4.4589,4.4589,4.5799,4.6445,4.6525,4.7724,4.83,0.0,2.0702,0.0,0.0,0.0,0.0,0.0,0.0,0.0,2.8456,2.8344,2.836,2.8405,2.9167,2.9928,3.0362,3.0902,3.1211,3.094,3.0829,3.0781,3.0781,3.0781,3.0855,3.1125,3.1236,3.1268,3.1268,3.1131,3.0893,3.0569,3.0235,2.9886,2.952,2.9033,2.9552,3.1162,3.0905,3.1584,3.3205,3.4382,3.5049,3.5201,3.588,3.6575,3.7193,3.7344,3.7404,3.7404,3.7404,3.7689,3.8117,3.8226,3.8554,3.8959,3.9068,3.9384,3.9743,3.9743,3.9984,4.0312,4.0312,4.0312,4.0312,4.0312,4.0312,4.0312,4.0312,4.0312,4.0312,4.0312,4.0312,4.0312,4.0312,4.0312,4.0312,4.0312,4.0312,4.0312,4.0312,4.0312,4.0312,4.0312,4.0312,4.0312,4.0312,4.0312,4.0312,4.0312,4.0312,4.0312,4.0312,4.1454,4.2483,4.3248,4.4848,4.5915,4.6095,4.6024,4.5919,4.5919,4.5066,4.4589,4.4589,4.4589,4.4589,4.4589,4.5799,4.6628,4.7129,4.8341,4.9168,0.0,0.0,0.0,0.0,0.0,0.0,0.0,0.0,2.8932,2.8567,2.8487,2.8535,2.871,2.9202,2.9727,3.0235,3.0632,3.0871,3.0893,3.0893,3.0893,3.0893,3.0893,3.0908,3.0871,3.0871,3.0807,3.0648,3.0473,3.0203,2.9854,2.9504,2.9234,2.9079,2.9007,2.9764,3.1428,3.1553,3.2418,3.4043,3.5308,3.6308,3.703,3.6921,3.7071,3.7404,3.7404,3.7404,3.7404,3.7404,3.7527,3.7789,3.8008,3.827,3.8479,3.8719,3.9143,3.9622,3.9622,3.9896,4.0312,4.0312,4.0312,4.0312,4.0312,4.0312,4.0312,4.0312,4.0312,4.0312,4.0312,4.0312,4.0312,4.0312,4.0312,4.0312,4.0312,4.0312,4.0312,4.0312,4.0312,4.0312,4.0312,4.0312,4.0312,4.0312,4.0312,4.0312,4.0312,4.0312,4.0312,4.0312,4.0938,4.2007,4.3623,4.4884,4.5787,4.6271,4.6301,4.6301,4.6301,4.5719,4.5392,4.5392,4.5392,4.5392,4.5417,4.6679,4.7414,4.7759,4.8986,4.9683,0.0,0.0,0.0,0.0,0.0,0.0,2.7961,2.8471,2.8809,2.8809,2.8856,2.8968,2.9171,2.925,2.9488,3.0044,3.0187,3.033,3.067,3.0765,3.0797,3.0797,3.0797,3.0686,3.0346,3.0267,3.0087,2.9817,2.9738,2.9584,2.9218,2.8968,2.8847,2.8994,2.9535,3.0446,3.1799,3.2618,3.3667,3.4903,3.6301,3.7678,3.8893,3.8029,3.7623,3.7535,3.7535,3.7461,3.7404,3.7404,3.7404,3.7448,3.7833,3.7986,3.8029,3.8413,3.8947,3.9459,3.9459,3.9831,4.0312,4.0312,4.0312,4.0312,4.0312,4.0312,4.0312,4.0312,4.0312,4.0312,4.0312,4.0312,4.0312,4.0312,4.0312,4.0312,4.0312,4.0312,4.0312,4.0312,4.0312,4.0312,4.0312,4.0312,4.0312,4.0312,4.0312,4.0312,4.0312,4.0312,4.0312,4.0312,4.0906,4.2038,4.3802,4.4638,4.5428,4.624,4.6301,4.6301,4.6301,4.6301,4.6301,4.6301,4.6301,4.6301,4.6301,4.7438,4.8084,4.823,4.9328,4.9897,0.0,0.0,2.4209,0.0,2.6709,2.7312,0.0,0.0,2.8809,0.0,2.9047,2.9155,2.892,2.9091,2.9329,2.9409,2.9695,2.9901,2.9949,3.0203,3.0394,3.0394,3.0394,3.0378,3.0315,3.006,2.9833,2.9785,2.9536,2.9218,2.8888,2.8825,2.9069,2.9745,2.9832,3.087,3.297,3.3103,3.3997,3.5653,3.7008,3.8305,3.9459,3.8881,3.837,3.8008,3.8008,3.7767,3.7404,3.7404,3.7404,3.7426,3.7492,3.7483,3.7514,3.7549,3.816,3.8893,3.8893,3.9515,4.0312,4.0312,4.0312,4.0312,4.0312,4.0312,4.0312,4.0312,4.0312,4.0312,4.0312,4.0312,4.0312,4.0312,4.0312,4.0312,4.0312,4.0312,4.0312,4.0312,4.0312,4.0312,4.0312,4.0312,4.0312,4.0312,4.0312,4.0312,4.0312,4.0312,4.0312,4.0312,4.3428,4.47,4.2736,4.473,4.615,4.6271,4.6301,4.6301,4.6301,4.6301,4.6301,4.6301,4.6301,4.6301,4.6301,4.6993,4.7619,4.8201,4.8926,4.9501,2.0384,2.2227,2.4102,0.0,2.639,2.6994,2.7359,2.782,2.8297,2.8729,2.892,2.9012,2.9059,2.9063,2.9059,2.9266,2.9425,2.96,2.9754,2.9912,2.9928,2.9774,2.9743,2.9584,2.9151,2.9202,2.9155,2.8913,2.898,2.8837,2.8487,2.9082,2.9652,3.0152,3.0789,3.2006,3.3808,3.3808,3.4921,3.7102,3.8105,3.9056,3.9984,3.9733,3.9231,3.8457,3.8226,3.7986,3.7767,3.7514,3.7404,3.7404,3.7404,3.7404,3.7404,3.7404,3.7986,3.8806,3.8806,3.9471,4.0312,4.0312,4.0312,4.0312,4.0312,4.0312,4.0345,4.0607,4.0498,4.0377,4.0607,4.0476,4.0312,4.0312,4.0312,4.0312,4.0312,4.0312,4.0312,4.0312,4.0312,4.0312,4.0312,4.0312,4.0312,4.0312,4.0312,4.0312,4.0312,4.2261,4.3678,4.3678,4.4576,4.5031,4.4576,4.5123,4.5702,4.624,4.5762,4.5702,4.6271,4.5762,4.5702,4.6271,4.6301,4.6301,4.6301,4.6934,4.7353,4.7648,4.864,4.9244,0.0,0.0,2.3232,2.4803,2.5755,2.6422,0.0,0.0,2.7738,2.8376,2.8681,2.8888,2.9107,2.8984,2.8856,2.8996,2.9107,2.925,2.952,2.9631,2.96,2.9329,2.9298,2.9091,2.8516,2.8662,2.8697,2.8376,2.8895,2.9102,2.8793,2.9964,3.0857,3.1375,3.2205,3.3312,3.4746,3.4899,3.6161,3.8395,3.8946,3.9571,4.0312,4.0312,3.9886,3.9165,3.8685,3.8335,3.8073,3.7724,3.7514,3.7404,3.7404,3.7404,3.7404,3.7404,3.7986,3.8806,3.8806,3.9471,4.0312,4.0312,4.0312,4.0312,4.0312,4.0399,4.052,4.076,4.0651,4.052,4.076,4.0541,4.0312,4.0312,4.0312,4.0312,4.0312,4.0312,4.0312,4.0312,4.0312,4.0312,4.0312,4.0312,4.0312,4.0312,4.0312,4.0312,4.0312,4.3802,4.6301,4.6301,4.5398,4.5214,4.621,4.5611,4.5489,4.624,4.558,4.5519,4.6271,4.558,4.5519,4.6271,4.6301,4.6301,4.6301,4.6755,4.7116,4.7471,4.8437,4.9043,0.0,2.075,0.0,2.3639,2.4689,0.0,0.0,2.6978,2.7343,2.7675,2.8313,2.8809,2.8825,2.8809,2.8697,2.8329,2.8567,2.884,2.8856,2.9107,2.9314,2.9298,2.9298,2.9282,2.925,2.8948,2.8793,2.8777,2.981,3.0404,3.0387,3.1739,3.3031,3.407,3.4139,3.4762,3.5913,3.6606,3.7683,3.9144,3.9177,3.9571,4.0312,4.0312,4.029,4.0203,3.9722,3.8978,3.8117,3.8073,3.7789,3.7404,3.7404,3.7404,3.7404,3.7404,3.7986,3.8806,3.8806,3.9471,4.0312,4.0312,4.0312,4.0312,4.0312,4.0607,4.0891,4.0432,4.0629,4.0869,4.0465,4.0334,4.0312,4.0312,4.0312,4.0312,4.0312,4.0312,4.0312,4.0312,4.0312,4.0312,4.0312,4.0312,4.0312,4.0312,4.0312,4.0312,4.0312,4.3802,4.6301,4.6301,4.624,4.621,4.6271,4.624,4.624,4.6301,4.624,4.624,4.6301,4.624,4.624,4.6301,4.6301,4.6301,4.6301,4.6331,4.6989,4.8143,4.8201,4.8868,0.0,0.0,0.0,2.2382,2.3607,2.4625,2.5229,2.612,2.6962,2.7312,2.7772,2.817,2.8376,2.8789,2.9059,2.8932,2.9028,2.9107,2.9107,2.9218,2.9218,2.898,2.9,2.8869,2.863,2.871,2.8809,2.8809,2.937,3.005,3.0775,3.1316,3.2438,3.4245,3.3623,3.4022,3.5602,3.6606,3.7816,3.9177,3.9177,3.9571,4.0312,4.0312,4.0312,4.0312,4.0115,3.9678,3.9022,3.8357,3.8008,3.7811,3.7535,3.7404,3.7404,3.7404,3.7789,3.837,3.8697,3.9253,3.9896,4.0203,4.0312,4.0377,4.0651,4.0869,4.1087,4.1524,4.135,4.1044,4.1153,4.0738,4.0312,4.0312,4.0312,4.0312,4.0312,4.0312,4.0312,4.0312,4.0312,4.0312,4.0312,4.0312,4.0312,4.0312,4.0312,4.0312,4.0312,4.3083,4.5031,4.5031,4.5787,4.6301,4.6301,4.5702,4.5611,4.624,4.5068,4.4945,4.624,4.5671,4.5641,4.6271,4.6301,4.6301,4.6301,4.6301,4.6725,4.756,4.7997,4.8637,1.8866,0.0,0.0,0.0,2.243,2.3368,2.4642,2.542,2.6057,2.6851,2.7312,2.7627,2.7961,2.85,2.8932,2.8932,2.8932,2.898,2.9107,2.9123,2.9075,2.9,2.8984,2.8853,2.8614,2.8805,2.8984,2.8984,2.9547,3.0195,3.096,3.1349,3.2228,3.3727,3.3415,3.3935,3.5378,3.6302,3.7549,3.9177,3.8946,3.9341,4.0312,4.0312,4.0312,4.0312,4.0312,4.0028,3.9557,3.8891,3.8401,3.8073,3.7745,3.7557,3.7404,3.7404,3.768,3.816,3.8457,3.9012,3.9634,3.9962,4.0181,4.0377,4.0672,4.0978,4.1328,4.1808,4.159,4.1262,4.1415,4.0869,4.0312,4.0312,4.0312,4.0312,4.0312,4.0312,4.0312,4.0312,4.0312,4.0312,4.0312,4.0312,4.0312,4.0312,4.0312,4.0409,4.0744,4.2673,4.4113,4.4422,4.555,4.6301,4.6301,4.5398,4.5245,4.624,4.473,4.4546,4.621,4.5641,4.5611,4.6271,4.6301,4.6301,4.6301,4.6301,4.6606,4.7235,4.788,4.8637,0.0,0.0,0.0,0.0,0.0,0.0,2.4771,2.4738,2.4529,2.6295,2.6899,2.7248,2.7596,2.7929,2.8151,2.8151,2.8183,2.8344,2.8729,2.8793,2.892,2.9218,2.9266,2.9266,2.9266,2.9266,2.9266,2.9266,3.0269,3.0926,3.0961,3.207,3.263,3.2561,3.3656,3.4621,3.5305,3.5753,3.7059,3.9155,3.8441,3.8871,4.0312,4.0312,4.0312,4.0312,4.0312,4.005,3.9644,3.9622,3.9022,3.8139,3.8117,3.7811,3.7426,3.7426,3.768,3.8095,3.8095,3.876,3.9601,3.9601,3.9918,4.0312,4.0334,4.0956,4.1612,4.1197,4.1371,4.159,4.1109,4.0629,4.0312,4.0312,4.0312,4.0312,4.0312,4.0312,4.0312,4.0312,4.0312,4.0312,4.0312,4.0312,4.0312,4.0312,4.0344,4.0712,4.1678,4.2681,4.3716,4.47,4.5702,4.6301,4.6301,4.5398,4.5245,4.624,4.5367,4.5276,4.624,4.6301,4.6301,4.6301,4.6301,4.6301,4.6301,4.6301,4.6606,4.7235,4.7909,4.8868,1.7976,0.0,0.0,0.0,0.0,0.0,2.2236,2.2768,2.3448,2.5183,2.5628,2.5945,2.6803,2.7248,2.7486,2.7486,2.7865,2.823,2.836,2.8376,2.8408,2.8468,2.8484,2.8484,2.8484,2.8484,2.8484,2.8484,2.8798,2.9339,3.0169,3.1285,3.1149,2.9512,3.2103,3.3453,3.3367,3.4508,3.6307,3.8753,3.8014,3.8608,4.0312,4.0312,4.0312,4.0312,4.0312,4.0224,4.0071,3.9722,3.9416,3.9109,3.8379,3.8029,3.7855,3.7535,3.7492,3.7636,3.7986,3.851,3.91,3.9459,3.9918,4.0443,4.1121,4.1481,4.1808,4.242,4.2158,4.1503,4.0694,4.0421,4.0312,4.0312,4.0312,4.0312,4.0312,4.0312,4.0312,4.0312,4.0312,4.0312,4.0312,4.0312,4.0312,4.0312,4.1132,4.1751,4.1806,4.331,4.4515,4.4761,4.5702,4.6301,4.6301,4.5398,4.5245,4.624,4.5367,4.5276,4.624,4.6301,4.6301,4.6301,4.6301,4.6301,4.6301,4.6301,4.6606,4.7235,4.835,4.9244,0.0,0.0,0.0,0.0,0.0,0.0,2.1677,2.2057,2.2613,2.469,2.5103,2.5389,2.6327,2.6661,2.6836,2.6962,2.7312,2.7677,2.7945,2.7976,2.804,2.8167,2.8183,2.8183,2.8183,2.8183,2.8183,2.8183,2.8183,2.8494,2.9147,2.9816,2.9782,2.8907,3.1208,3.2585,3.2766,3.434,3.6034,3.7845,3.7695,3.8444,4.0006,4.0006,4.0115,4.0312,4.0312,4.0312,4.029,4.0006,3.9765,3.9503,3.8707,3.8292,3.8051,3.7549,3.7404,3.7448,3.7702,3.8217,3.885,3.9165,3.9743,4.0443,4.1175,4.1546,4.1852,4.2638,4.2289,4.1481,4.052,4.0312,4.0312,4.0312,4.0312,4.0312,4.0312,4.0312,4.0312,4.0312,4.0312,4.0312,4.0312,4.0312,4.0507,4.1035,4.1655,4.2325,4.2988,4.4082,4.4945,4.5398,4.5969,4.6301,4.6301,4.5398,4.5245,4.624,4.5367,4.5276,4.624,4.6301,4.6301,4.6301,4.6301,4.6301,4.6301,4.6301,4.6725,4.7645,4.8379,4.9185,0.0,0.0,0.0,0.0,0.0,0.0,2.2005,2.1915,2.1946,2.42,2.4674,2.4881,2.5691,2.5929,2.6088,2.6422,2.6534,2.6819,2.7532,2.7643,2.7754,2.804,2.8072,2.8072,2.8072,2.8072,2.8072,2.8072,2.8072,2.8072,2.8072,2.8072,2.8587,2.9664,3.0799,3.1856,3.2854,3.4662,3.5921,3.6625,3.7371,3.8326,3.9407,3.9471,3.9765,4.0224,4.0224,4.0268,4.0312,4.0312,4.005,3.9612,3.9034,3.8544,3.8117,3.7571,3.7404,3.7404,3.7404,3.7986,3.8741,3.8784,3.9449,4.0334,4.0847,4.1328,4.1786,4.2201,4.2027,4.1481,4.052,4.0312,4.0312,4.0312,4.0312,4.0312,4.0312,4.0312,4.0312,4.0312,4.0312,4.0312,4.0312,4.0312,4.0744,4.2038,4.207,4.2641,4.4576,4.4884,4.5306,4.621,4.6301,4.6301,4.6301,4.5489,4.5367,4.624,4.5458,4.5367,4.624,4.6301,4.6301,4.6301,4.6301,4.6301,4.6301,4.6301,4.693,4.8084,4.8169,4.8811,0.0,0.0,0.0,0.0,0.0,0.0,2.0194,2.0353,2.0893,2.1915,2.1915,2.2105,2.3387,2.4116,2.4609,2.4959,2.5469,2.6152,2.7169,2.7312,2.7328,2.7391,2.7407,2.7407,2.7407,2.7407,2.7407,2.7407,2.7407,2.7407,2.7407,2.7407,2.7894,2.8959,2.9998,3.1027,3.2115,3.3811,3.4929,3.5451,3.6666,3.7559,3.8156,3.8716,3.9231,3.9754,3.9754,3.994,4.0312,4.0312,4.0268,4.0071,3.9165,3.8741,3.8544,3.7702,3.7404,3.7404,3.7404,3.7767,3.8313,3.8675,3.9231,3.9875,4.0738,4.1328,4.1699,4.1808,4.1765,4.1481,4.052,4.0312,4.0312,4.0312,4.0312,4.0312,4.0312,4.0312,4.0312,4.0312,4.0312,4.0312,4.0312,4.0312,4.0647,4.1742,4.2546,4.3435,4.4638,4.5519,4.609,4.6271,4.6301,4.6301,4.6301,4.612,4.609,4.6271,4.612,4.609,4.6271,4.6301,4.6301,4.6301,4.6301,4.6301,4.6301,4.6301,4.6691,4.7412,4.7938,4.8579,0.0,0.0,0.0,1.9654,0.0,0.0,0.0,2.0155,2.048,2.1719,2.1518,2.1534,2.2756,2.3034,2.3273,2.3943,2.4499,2.5151,2.6041,2.6454,2.6709,2.6709,2.6709,2.6772,2.6914,2.6946,2.701,2.7185,2.72,2.72,2.72,2.72,2.7915,2.9511,3.0033,3.1051,3.2626,3.4141,3.4857,3.4765,3.6464,3.7338,3.7475,3.8155,3.875,3.9209,3.9481,3.9722,3.9962,4.0203,4.0312,4.0246,3.9471,3.9034,3.8719,3.8008,3.7593,3.7404,3.7404,3.7702,3.8182,3.8653,3.9165,3.9765,4.0716,4.1503,4.2049,4.2049,4.1874,4.1524,4.0825,4.0454,4.0312,4.0312,4.0312,4.0312,4.0312,4.0312,4.0312,4.0312,4.0312,4.0312,4.0312,4.0312,4.0637,4.1646,4.2229,4.3091,4.4607,4.5245,4.5732,4.624,4.6301,4.6301,4.6301,4.6301,4.6301,4.6301,4.6301,4.6301,4.6301,4.6301,4.6301,4.6301,4.6301,4.6301,4.6301,4.6301,4.6606,4.7235,4.788,4.8521,0.0,0.0,0.0,0.0,0.0,2.0146,0.0,0.0,0.0,2.1528,2.1312,2.1201,2.2148,2.1921,2.1889,2.2756,2.334,2.3877,2.442,2.507,2.5658,2.6025,2.6136,2.6327,2.6582,2.655,2.6628,2.6978,2.6994,2.7026,2.7089,2.7169,2.8147,3.0242,3.0307,3.1309,3.3386,3.461,3.4953,3.4423,3.6187,3.6991,3.6986,3.7533,3.8102,3.8697,3.9241,3.9503,3.9644,4.0115,4.0312,4.0268,3.9765,3.9253,3.8741,3.8292,3.7789,3.7404,3.7404,3.7636,3.8051,3.8501,3.9078,3.9787,4.0825,4.1677,4.2255,4.2364,4.2136,4.1699,4.1153,4.0716,4.0388,4.0334,4.0312,4.0312,4.0312,4.0312,4.0312,4.0312,4.0312,4.0312,4.0312,4.0312,4.0637,4.1646,4.1943,4.2768,4.4576,4.4976,4.5398,4.621,4.6301,4.6301,4.6301,4.6301,4.6301,4.6301,4.6301,4.6301,4.6301,4.6301,4.6301,4.6301,4.6301,4.6301,4.6301,4.6301,4.6571,4.7027,4.7821,4.8463,0.0,0.0,0.0,0.0,2.1708,0.0,0.0,0.0,2.013,1.9376,0.0,1.9233,1.9725,0.0,0.0,2.0686,2.1587,2.2282,2.2334,2.2684,2.3594,2.5437,2.5993,2.62,2.6232,2.5929,2.5898,2.6279,2.6295,2.6438,2.6757,2.7026,2.8147,3.0242,3.0307,3.1309,3.3386,3.4141,3.4485,3.4423,3.5232,3.5953,3.6456,3.6569,3.7173,3.8226,3.8675,3.9165,3.9644,4.0115,4.0312,4.0268,3.9765,3.9253,3.8741,3.8292,3.7789,3.7404,3.7404,3.7448,3.7579,3.8029,3.8794,3.9831,4.123,4.1677,4.1874,4.2255,4.2342,4.2136,4.124,4.0956,4.0825,4.0421,4.0312,4.0312,4.0312,4.0312,4.0312,4.0312,4.0312,4.0312,4.0312,4.0312,4.0637,4.1646,4.2555,4.3529,4.4669,4.558,4.618,4.6271,4.6301,4.6301,4.6301,4.6301,4.6301,4.6301,4.6301,4.6301,4.6301,4.6301,4.6301,4.6301,4.6301,4.6301,4.6301,4.6301,4.6331,4.6421,4.7615,4.823,0.0,0.0,0.0,0.0,0.0,0.0,1.9797,0.0,1.9479,0.0,0.0,0.0,0.0,0.0,0.0,0.0,2.0648,2.1141,2.1322,2.1857,2.2684,2.393,2.3909,2.4098,2.491,2.5357,2.5786,2.6184,2.5993,2.6088,2.6677,2.7393,2.8554,3.0242,3.0908,3.1937,3.3386,3.4047,3.4204,3.3827,3.4891,3.5541,3.5819,3.6208,3.6866,3.7724,3.8457,3.8915,3.9187,3.9973,4.0312,4.029,4.0093,3.97,3.9187,3.8675,3.8226,3.7767,3.7483,3.7404,3.7535,3.827,3.8991,3.9853,4.1262,4.1699,4.1852,4.2638,4.2638,4.2267,4.1568,4.1197,4.0891,4.0388,4.0312,4.0312,4.0312,4.0312,4.0312,4.0312,4.0312,4.0312,4.0312,4.0312,4.0442,4.0874,4.1783,4.2776,4.381,4.4822,4.5641,4.624,4.6301,4.6301,4.6301,4.6301,4.6301,4.6301,4.6301,4.6301,4.6301,4.6301,4.6301,4.6301,4.6301,4.6301,4.6301,4.6301,4.6301,4.6331,4.7611,4.8201,2.2923,0.0,0.0,0.0,0.0,0.0,0.0,0.0,0.0,0.0,0.0,0.0,0.0,0.0,0.0,0.0,0.0,2.0416,2.0496,2.095,2.1602,2.2454,2.2307,2.2573,2.3686,2.4372,2.4992,2.5595,2.5342,2.5548,2.6342,2.7553,2.8804,3.0115,3.1286,3.2384,3.3386,3.389,3.3985,3.367,3.4485,3.5139,3.5665,3.5993,3.6585,3.747,3.837,3.8806,3.8872,3.9886,4.0312,4.0312,4.0312,4.0093,3.97,3.9056,3.8501,3.8029,3.7549,3.7404,3.7527,3.8479,3.9165,3.9853,4.1262,4.1786,4.207,4.2922,4.29,4.2485,4.1852,4.1437,4.1044,4.0432,4.0312,4.0312,4.0312,4.0312,4.0312,4.0312,4.0312,4.0312,4.0312,4.0312,4.0312,4.0312,4.1367,4.2483,4.3216,4.4398,4.5489,4.621,4.6301,4.6301,4.6301,4.6301,4.6301,4.6301,4.6301,4.6301,4.6301,4.6301,4.6301,4.6301,4.6301,4.6301,4.6301,4.6301,4.6301,4.6331,4.7611,4.8201,0.0,0.0,0.0,2.2026,0.0,0.0,0.0,0.0,2.0257,0.0,0.0,0.0,0.0,0.0,0.0,0.0,0.0,0.0,0.0,0.0,0.0,0.0,2.2069,2.2625,2.3006,2.2768,2.305,2.4098,2.4161,2.4593,2.558,2.7273,2.8717,2.9772,3.1189,3.2384,3.3386,3.3418,3.3765,3.436,3.3765,3.4485,3.6361,3.5726,3.6156,3.747,3.837,3.8806,3.8872,3.9886,4.0312,4.0312,4.0312,4.0312,4.0181,3.9155,3.8501,3.8029,3.7549,3.7404,3.7527,3.8479,3.9165,3.9853,4.1262,4.2027,4.2507,4.3032,4.3197,4.2957,4.1939,4.1677,4.1437,4.053,4.0312,4.0312,4.0312,4.0312,4.0312,4.0312,4.0312,4.0312,4.0312,4.0312,4.0312,4.0312,4.1984,4.3279,4.331,4.5037,4.624,4.6301,4.6301,4.6301,4.6301,4.6301,4.6301,4.6301,4.6301,4.6301,4.6301,4.6301,4.6301,4.6301,4.6301,4.6301,4.6301,4.6301,4.6301,4.6331,4.7611,4.8201,2.469,2.4754,2.4452,2.3136,2.2386,0.0,0.0,0.0,0.0,0.0,0.0,0.0,0.0,0.0,0.0,0.0,0.0,0.0,0.0,0.0,0.0,0.0,0.0,0.0,2.1306,2.2021,2.2831,2.3657,2.3721,2.4247,2.5533,2.7421,2.8877,2.9768,3.1546,3.2799,3.3386,3.3386,3.3513,3.3733,3.3513,3.4235,3.5726,3.5479,3.6126,3.7448,3.8073,3.8501,3.885,3.9569,4.0028,4.0312,4.0312,4.0312,4.0203,3.9155,3.8697,3.8435,3.7658,3.7404,3.7623,3.8913,3.9459,3.9918,4.1634,4.2289,4.2529,4.3032,4.3219,4.2979,4.1939,4.1699,4.1459,4.053,4.0312,4.0312,4.0312,4.0312,4.0312,4.0312,4.0312,4.0312,4.0312,4.0841,4.1293,4.1293,4.2428,4.356,4.4213,4.5458,4.6301,4.6301,4.6301,4.6301,4.6301,4.6301,4.6301,4.6301,4.6301,4.6301,4.6301,4.6301,4.6301,4.6301,4.6301,4.6301,4.6301,4.6301,4.6301,4.6301,4.7142,4.7792,2.4833,2.4944,2.4738,2.3755,2.3213,2.2573,2.1268,0.0,2.1385,0.0,0.0,0.0,0.0,0.0,0.0,0.0,0.0,0.0,0.0,1.8947,0.0,0.0,0.0,0.0,0.0,2.1179,2.2053,2.3232,2.3513,2.4263,2.5675,2.7892,2.9438,3.009,3.1858,3.2988,3.3386,3.3386,3.3386,3.3386,3.3386,3.411,3.5387,3.5387,3.6126,3.7448,3.8073,3.8522,3.885,3.9569,4.0028,4.0312,4.0312,4.0203,3.9962,3.909,3.8588,3.8226,3.7593,3.7514,3.7855,3.9153,3.9809,4.0399,4.1939,4.2551,4.2748,4.3097,4.3219,4.2979,4.1939,4.1699,4.1459,4.053,4.0312,4.0312,4.0312,4.0312,4.0312,4.0312,4.0312,4.0312,4.0312,4.1132,4.1806,4.1806,4.2965,4.4058,4.473,4.5671,4.6301,4.6301,4.6301,4.6301,4.6301,4.6301,4.6301,4.6301,4.6301,4.6301,4.6301,4.6301,4.6301,4.6301,4.6301,4.6301,4.6301,4.6301,4.6301,4.6301,4.6934,4.756]},{"header":{"parameterUnit":"m.s-1","parameterCategory":1,"la1":30.6,"la2":29.2853,"lo1":-89.7004,"lo2":-87.6739,"dy":0.0162,"dx":0.0183,"nx":112,"ny":82,"refTime":"2025-04-15T06:00:00:Z","depth":0,"parameterNumber":3,"parameterNumberName":"V-component_of_WINDS"},"data":[0.0,0.0,0.0,0.0,0.0,0.0,0.0,0.0,0.0,0.0,0.0,0.0,0.0,0.0,0.0,0.0,0.0,0.0,0.0,0.0,0.0,0.0,0.0,0.0,0.0,0.0,0.0,0.0,0.0,0.0,0.0,0.0,0.0,0.0,0.0,0.0,0.0,0.0,0.0,0.0,0.0,0.0,0.0,0.0,0.0,0.0,0.0,0.0,0.0,0.0,0.0,0.0,0.0,0.0,0.0,0.0,0.0,0.0,0.0,0.0,0.0,0.0,0.0,0.0,0.0,0.0,0.0,0.0,0.0,0.0,0.0,0.0,0.0,0.0,0.0,0.0,0.0,0.0,0.0,0.0,0.0,0.0,0.0,0.0,0.0,0.0,0.0,0.0,0.0,0.0,0.0,2.2531,2.4219,2.4816,2.3716,2.4978,2.4502,2.1489,0.0,0.0,0.0,0.0,0.0,0.0,0.0,0.0,0.0,0.0,0.0,0.0,0.0,0.0,0.0,0.0,0.0,0.0,0.0,0.0,0.0,0.0,0.0,0.0,0.0,0.0,0.0,0.0,0.0,0.0,0.0,0.0,0.0,0.0,0.0,0.0,0.0,0.0,0.0,0.0,0.0,0.0,0.0,0.0,0.0,0.0,0.0,0.0,0.0,0.0,0.0,0.0,0.0,0.0,0.0,0.0,0.0,0.0,0.0,0.0,0.0,0.0,0.0,0.0,0.0,0.0,0.0,0.0,0.0,0.0,0.0,0.0,0.0,0.0,0.0,0.0,0.0,0.0,0.0,0.0,0.0,0.0,0.0,0.0,0.0,0.0,0.0,0.0,0.0,0.0,0.0,0.0,0.0,0.0,0.0,0.0,0.0,0.0,0.0,0.0,0.0,0.0,0.0,0.0,2.1552,2.4303,2.5752,2.5918,2.4389,2.5196,2.4502,2.1489,0.0,0.0,0.0,0.0,0.0,0.0,0.0,0.0,0.0,0.0,0.0,0.0,0.0,0.0,0.0,0.0,0.0,0.0,0.0,0.0,0.0,0.0,0.0,0.0,0.0,0.0,0.0,0.0,0.0,0.0,0.0,0.0,0.0,0.0,0.0,0.0,0.0,0.0,0.0,0.0,0.0,0.0,0.0,0.0,0.0,0.0,0.0,0.0,0.0,0.0,0.0,0.0,0.0,0.0,0.0,0.0,0.0,0.0,0.0,0.0,0.0,0.0,0.0,0.0,0.0,0.0,0.0,0.0,0.0,0.0,0.0,0.0,0.0,0.0,0.0,0.0,0.0,0.0,0.0,0.0,0.0,0.0,0.0,0.0,0.0,0.0,0.0,0.0,0.0,0.0,0.0,0.0,0.0,0.0,0.0,0.0,0.0,0.0,0.0,0.0,0.0,0.0,0.0,2.1496,2.2688,2.4781,2.6076,2.6495,2.5708,2.637,2.5612,2.2732,2.2958,0.0,0.0,0.0,0.0,0.0,0.0,0.0,0.0,0.0,0.0,0.0,0.0,0.0,0.0,0.0,0.0,0.0,0.0,0.0,0.0,0.0,0.0,0.0,0.0,0.0,0.0,0.0,0.0,0.0,0.0,0.0,0.0,0.0,0.0,0.0,0.0,0.0,0.0,0.0,0.0,0.0,0.0,0.0,0.0,0.0,0.0,0.0,0.0,0.0,0.0,0.0,0.0,0.0,0.0,0.0,0.0,0.0,0.0,0.0,0.0,0.0,0.0,0.0,0.0,0.0,0.0,0.0,0.0,0.0,0.0,0.0,0.0,0.0,0.0,0.0,0.0,0.0,0.0,0.0,0.0,0.0,0.0,0.0,0.0,0.0,0.0,0.0,0.0,0.0,0.0,0.0,0.0,0.0,0.0,0.0,0.0,0.0,0.0,0.0,0.0,0.0,0.0,2.3391,2.4137,2.5106,2.6048,2.6606,2.6686,2.687,2.6055,2.3757,2.331,0.0,0.0,0.0,0.0,0.0,0.0,0.0,0.0,0.0,0.0,0.0,0.0,0.0,0.0,0.0,0.0,0.0,0.0,0.0,0.0,0.0,0.0,0.0,0.0,0.0,0.0,0.0,0.0,0.0,0.0,0.0,0.0,0.0,0.0,0.0,0.0,0.0,0.0,0.0,0.0,0.0,0.0,0.0,0.0,0.0,0.0,0.0,0.0,0.0,0.0,0.0,0.0,0.0,0.0,0.0,0.0,0.0,0.0,0.0,0.0,0.0,0.0,0.0,0.0,0.0,0.0,0.0,0.0,0.0,0.0,0.0,0.0,0.0,0.0,0.0,0.0,0.0,0.0,0.0,0.0,0.0,0.0,0.0,0.0,0.0,0.0,0.0,0.0,0.0,0.0,0.0,0.0,0.0,0.0,0.0,0.0,0.0,0.0,0.0,0.0,0.0,0.0,2.429,2.5752,2.5837,2.5907,2.6167,2.6657,2.5653,2.4592,2.3667,2.2483,0.0,0.0,0.0,0.0,0.0,0.0,0.0,0.0,0.0,0.0,0.0,0.0,0.0,0.0,0.0,0.0,0.0,0.0,0.0,0.0,0.0,0.0,0.0,0.0,0.0,0.0,0.0,0.0,0.0,0.0,0.0,0.0,0.0,0.0,0.0,0.0,0.0,0.0,0.0,0.0,0.0,0.0,0.0,0.0,0.0,0.0,0.0,0.0,0.0,0.0,0.0,0.0,0.0,0.0,0.0,0.0,0.0,0.0,0.0,0.0,0.0,0.0,0.0,0.0,0.0,0.0,0.0,0.0,0.0,0.0,0.0,0.0,0.0,0.0,0.0,0.0,0.0,0.0,0.0,0.0,0.0,0.0,0.0,0.0,0.0,0.0,0.0,0.0,0.0,0.0,0.0,0.0,0.0,0.0,0.0,0.0,0.0,0.0,0.0,0.0,0.0,0.0,2.519,2.6863,0.0,2.7584,2.7567,2.8144,2.6661,2.5253,2.4283,0.0,0.0,0.0,0.0,0.0,0.0,0.0,0.0,0.0,0.0,0.0,0.0,0.0,0.0,0.0,0.0,0.0,0.0,0.0,0.0,0.0,0.0,0.0,0.0,0.0,0.0,0.0,0.0,0.0,0.0,0.0,0.0,0.0,0.0,0.0,0.0,0.0,0.0,0.0,0.0,0.0,0.0,0.0,0.0,0.0,0.0,0.0,0.0,0.0,0.0,0.0,0.0,0.0,0.0,0.0,0.0,0.0,0.0,0.0,0.0,0.0,0.0,0.0,0.0,0.0,0.0,0.0,0.0,0.0,0.0,0.0,0.0,0.0,0.0,0.0,0.0,0.0,0.0,0.0,0.0,0.0,0.0,0.0,0.0,0.0,0.0,0.0,0.0,0.0,0.0,0.0,0.0,0.0,0.0,0.0,0.0,0.0,0.0,0.0,0.0,0.0,0.0,2.3894,2.5865,2.7724,0.0,2.8897,2.8771,2.938,2.7447,2.5733,2.4672,0.0,0.0,0.0,0.0,0.0,0.0,0.0,0.0,0.0,0.0,0.0,0.0,0.0,0.0,0.0,0.0,0.0,0.0,0.0,0.0,0.0,0.0,0.0,0.0,0.0,0.0,0.0,0.0,0.0,0.0,0.0,0.0,0.0,0.0,0.0,0.0,0.0,0.0,0.0,0.0,0.0,0.0,0.0,0.0,0.0,0.0,0.0,0.0,0.0,0.0,0.0,0.0,0.0,0.0,0.0,0.0,0.0,0.0,0.0,0.0,0.0,0.0,0.0,0.0,0.0,0.0,0.0,0.0,0.0,0.0,0.0,0.0,0.0,0.0,0.0,0.0,0.0,0.0,0.0,0.0,0.0,0.0,0.0,0.0,0.0,0.0,0.0,0.0,0.0,0.0,0.0,0.0,0.0,0.0,0.0,0.0,0.0,0.0,0.0,0.0,0.0,0.0,2.395,2.63,2.8416,2.9968,2.9598,2.9449,3.0056,2.7725,2.5733,0.0,0.0,0.0,0.0,0.0,0.0,0.0,0.0,0.0,0.0,0.0,0.0,0.0,0.0,0.0,0.0,0.0,0.0,0.0,0.0,0.0,0.0,0.0,0.0,0.0,0.0,0.0,0.0,0.0,0.0,0.0,0.0,0.0,0.0,0.0,0.0,0.0,0.0,0.0,0.0,0.0,0.0,0.0,0.0,0.0,0.0,0.0,0.0,0.0,0.0,0.0,0.0,0.0,0.0,0.0,0.0,0.0,0.0,0.0,0.0,0.0,0.0,0.0,0.0,0.0,0.0,0.0,0.0,0.0,0.0,0.0,0.0,0.0,0.0,0.0,0.0,0.0,0.0,0.0,0.0,0.0,0.0,0.0,0.0,0.0,0.0,0.0,0.0,0.0,0.0,0.0,0.0,0.0,0.0,0.0,0.0,0.0,0.0,0.0,0.0,0.0,0.0,0.0,2.5162,2.7902,3.04,3.2218,3.1426,3.0657,3.0399,2.8412,2.626,2.4018,0.0,0.0,0.0,0.0,0.0,0.0,0.0,0.0,0.0,0.0,0.0,0.0,0.0,0.0,0.0,0.0,0.0,0.0,0.0,0.0,0.0,0.0,0.0,0.0,0.0,0.0,0.0,0.0,0.0,0.0,0.0,0.0,0.0,0.0,0.0,0.0,0.0,0.0,0.0,0.0,0.0,0.0,0.0,0.0,0.0,0.0,0.0,0.0,0.0,0.0,0.0,0.0,0.0,0.0,0.0,0.0,0.0,0.0,0.0,0.0,0.0,0.0,0.0,0.0,0.0,0.0,0.0,0.0,0.0,0.0,0.0,0.0,0.0,0.0,0.0,0.0,0.0,0.0,0.0,0.0,0.0,0.0,0.0,0.0,0.0,0.0,0.0,0.0,0.0,0.0,0.0,0.0,0.0,0.0,0.0,0.0,0.0,0.0,0.0,0.0,0.0,0.0,2.602,2.9092,3.1785,3.3607,3.2971,3.1997,3.0989,2.9368,2.7123,2.4197,0.0,0.0,0.0,0.0,0.0,0.0,0.0,0.0,0.0,0.0,0.0,0.0,0.0,0.0,0.0,0.0,0.0,0.0,0.0,0.0,0.0,0.0,0.0,0.0,0.0,0.0,0.0,0.0,0.0,0.0,0.0,0.0,0.0,0.0,0.0,0.0,0.0,0.0,0.0,0.0,0.0,0.0,0.0,0.0,0.0,0.0,0.0,0.0,0.0,0.0,0.0,0.0,0.0,0.0,0.0,0.0,0.0,0.0,0.0,0.0,0.0,0.0,0.0,0.0,0.0,0.0,0.0,0.0,0.0,0.0,0.0,0.0,0.0,0.0,0.0,0.0,0.0,0.0,0.0,0.0,0.0,0.0,0.0,0.0,0.0,0.0,0.0,0.0,0.0,0.0,0.0,0.0,0.0,0.0,0.0,0.0,0.0,0.0,0.0,0.0,0.0,0.0,2.6497,2.9756,3.2532,3.4146,3.4028,3.3217,3.1721,3.0432,2.8248,2.4903,0.0,0.0,0.0,0.0,0.0,0.0,0.0,0.0,0.0,0.0,0.0,0.0,0.0,0.0,0.0,0.0,0.0,0.0,0.0,0.0,0.0,0.0,0.0,0.0,0.0,0.0,0.0,0.0,0.0,0.0,0.0,0.0,0.0,0.0,0.0,0.0,0.0,0.0,0.0,0.0,0.0,0.0,0.0,0.0,0.0,0.0,0.0,0.0,0.0,0.0,0.0,0.0,0.0,0.0,0.0,0.0,0.0,0.0,0.0,0.0,2.5795,2.4502,0.0,0.0,0.0,0.0,0.0,0.0,0.0,0.0,0.0,0.0,0.0,0.0,0.0,0.0,0.0,0.0,0.0,0.0,0.0,0.0,0.0,0.0,0.0,0.0,0.0,0.0,0.0,0.0,0.0,0.0,0.0,0.0,0.0,0.0,0.0,0.0,0.0,0.0,0.0,0.0,2.5907,2.909,3.1856,3.3512,3.34,3.2966,3.2333,3.1061,2.8906,2.5603,2.3948,0.0,0.0,0.0,0.0,0.0,0.0,0.0,0.0,0.0,0.0,0.0,0.0,0.0,0.0,0.0,0.0,0.0,0.0,0.0,0.0,0.0,0.0,0.0,0.0,0.0,0.0,0.0,0.0,0.0,0.0,0.0,0.0,0.0,0.0,0.0,0.0,0.0,0.0,0.0,0.0,0.0,0.0,0.0,0.0,0.0,0.0,0.0,0.0,0.0,0.0,0.0,0.0,0.0,0.0,0.0,0.0,0.0,0.0,0.0,2.9016,2.7866,0.0,0.0,0.0,0.0,0.0,0.0,0.0,0.0,0.0,0.0,0.0,0.0,0.0,0.0,0.0,0.0,0.0,0.0,0.0,0.0,0.0,0.0,0.0,0.0,0.0,0.0,0.0,0.0,0.0,0.0,0.0,0.0,0.0,0.0,0.0,0.0,0.0,0.0,0.0,0.0,2.7272,3.0216,3.2558,3.3583,3.3715,3.3389,3.2557,3.1585,2.985,2.72,2.4999,0.0,0.0,0.0,0.0,0.0,0.0,0.0,0.0,0.0,0.0,0.0,0.0,0.0,0.0,0.0,0.0,0.0,0.0,0.0,0.0,0.0,0.0,0.0,0.0,0.0,0.0,0.0,0.0,0.0,0.0,0.0,0.0,0.0,0.0,0.0,0.0,0.0,0.0,0.0,0.0,0.0,0.0,0.0,0.0,0.0,0.0,0.0,0.0,0.0,0.0,0.0,0.0,0.0,3.2946,3.3323,3.3356,3.4619,3.5202,3.5092,3.3005,3.2245,3.2384,3.0247,0.0,0.0,0.0,0.0,0.0,0.0,0.0,0.0,0.0,0.0,0.0,0.0,0.0,0.0,0.0,0.0,0.0,0.0,0.0,0.0,0.0,0.0,3.1436,3.2352,3.2913,3.2271,2.8618,0.0,0.0,0.0,0.0,0.0,0.0,0.0,0.0,0.0,0.0,0.0,2.9029,3.1767,3.3534,3.3723,3.4103,3.3889,3.2766,3.2049,3.0897,2.9056,2.6384,2.4288,0.0,0.0,0.0,0.0,0.0,0.0,0.0,0.0,0.0,0.0,0.0,0.0,0.0,0.0,0.0,0.0,0.0,0.0,0.0,0.0,0.0,0.0,0.0,0.0,0.0,0.0,0.0,0.0,0.0,0.0,0.0,0.0,2.6555,2.7283,0.0,0.0,0.0,0.0,0.0,0.0,0.0,0.0,0.0,0.0,0.0,0.0,0.0,3.2564,3.294,3.4738,3.5642,3.5675,3.7593,3.8519,3.8551,3.9329,3.9653,3.962,3.8703,0.0,3.4599,3.2449,0.0,0.0,0.0,0.0,0.0,0.0,0.0,0.0,0.0,0.0,0.0,0.0,0.0,0.0,0.0,0.0,0.0,0.0,0.0,0.0,0.0,0.0,3.6063,3.502,3.5305,3.5473,3.4289,3.1274,2.8437,2.7192,2.6131,2.5155,0.0,0.0,0.0,0.0,0.0,0.0,2.9435,3.2109,3.3649,3.3168,3.3434,3.3544,3.3395,3.2751,3.1764,3.0342,2.8295,2.6475,2.4988,2.3109,0.0,0.0,0.0,0.0,0.0,0.0,0.0,0.0,0.0,0.0,0.0,0.0,0.0,0.0,0.0,0.0,0.0,0.0,0.0,0.0,0.0,0.0,0.0,0.0,0.0,0.0,0.0,0.0,0.0,2.7292,2.889,2.9625,3.0074,3.004,0.0,0.0,0.0,0.0,0.0,0.0,0.0,0.0,0.0,3.6243,3.5992,3.6539,3.7959,3.8496,3.8804,3.8888,3.9693,4.0074,4.0106,4.0787,4.1111,4.1111,4.0819,3.9959,3.8551,3.5623,3.3732,3.2631,0.0,0.0,0.0,0.0,3.1293,3.1236,3.2681,3.2946,3.2551,3.2034,0.0,0.0,0.0,0.0,0.0,0.0,0.0,3.338,3.4219,3.5836,3.7261,3.7048,3.7242,3.7404,3.7048,3.5567,3.3368,3.033,2.97,2.8838,2.627,2.5687,0.0,0.0,0.0,2.993,3.1439,3.2956,3.3731,3.3328,3.3408,3.3484,3.3484,3.3215,3.2826,3.2228,3.0326,2.8611,2.7195,2.5259,2.3703,0.0,0.0,0.0,0.0,0.0,0.0,0.0,0.0,0.0,0.0,0.0,0.0,0.0,0.0,0.0,0.0,0.0,0.0,0.0,0.0,0.0,0.0,0.0,0.0,0.0,0.0,0.0,0.0,2.9668,3.1485,3.2239,3.3163,3.3298,0.0,0.0,0.0,0.0,0.0,0.0,3.6681,3.6603,3.7735,4.0427,3.986,4.0365,4.2136,4.1609,4.1606,4.2143,4.1591,4.1517,4.1873,4.2245,4.2422,4.2407,4.2212,4.2147,4.1888,3.8699,3.6724,3.5752,3.5752,3.4975,3.4083,3.5368,3.5454,3.5186,3.7061,3.7271,3.6561,3.5753,3.4745,3.3482,3.1459,0.0,0.0,0.0,0.0,3.4888,3.643,3.7358,3.794,3.8311,3.8537,3.8634,3.844,3.8408,3.7353,3.3803,3.3375,3.2597,2.9363,2.8893,0.0,0.0,0.0,3.196,3.3674,3.4143,3.4204,3.3968,3.3681,3.3484,3.3484,3.3484,3.3484,3.3484,3.2108,3.0761,2.9654,2.7679,2.623,2.542,0.0,0.0,0.0,0.0,0.0,0.0,0.0,0.0,0.0,0.0,0.0,0.0,0.0,0.0,0.0,0.0,0.0,0.0,0.0,0.0,0.0,0.0,0.0,0.0,0.0,0.0,0.0,0.0,0.0,3.5306,3.6693,0.0,0.0,0.0,0.0,3.5498,3.8125,3.9795,3.9872,4.117,4.2139,4.2716,4.3115,4.3533,4.3951,4.3668,4.4204,4.5549,4.4172,4.4221,4.55,4.4917,4.4642,4.4609,4.3913,4.3573,4.3411,4.1193,4.0268,4.0171,4.0171,3.975,3.9156,3.9423,3.9082,3.8543,3.9385,3.9179,3.8635,3.9093,3.7344,3.5078,3.4806,3.4332,0.0,0.0,3.6277,3.7311,3.807,3.8843,3.9232,3.857,3.894,3.9264,3.8537,3.8408,3.8329,3.8088,3.6993,3.5816,3.4904,0.0,3.2609,3.3284,3.3216,3.3782,3.5813,3.5673,3.5351,3.5125,3.4166,3.3484,3.3484,3.3484,3.3484,3.3484,3.3395,3.3036,3.2333,3.0432,2.9086,2.8414,2.5563,0.0,0.0,0.0,0.0,0.0,0.0,0.0,0.0,0.0,0.0,0.0,0.0,0.0,0.0,0.0,0.0,0.0,0.0,0.0,0.0,0.0,0.0,0.0,0.0,0.0,0.0,0.0,0.0,3.8476,4.0257,0.0,3.966,4.0032,4.0641,4.1352,4.2401,4.3619,4.5046,4.5162,4.5814,4.718,4.6187,4.6055,4.6929,4.6154,4.6018,4.6504,4.5986,4.6018,4.6521,4.6262,4.6164,4.6132,4.5873,4.5759,4.5726,4.5467,4.3686,4.1143,4.069,4.0366,4.0142,4.0204,4.0369,4.061,4.0867,4.0803,4.0528,4.0241,3.9458,3.8592,3.8547,3.8373,3.8282,3.8685,3.9421,4.0009,3.98,4.0301,4.0672,3.9944,3.9944,4.0074,3.98,4.0139,4.0463,4.0463,3.8926,3.7274,3.6108,3.5901,3.5653,3.4974,3.5281,3.572,3.6151,3.6068,3.5747,3.5263,3.4574,3.4253,3.4577,3.4315,3.4338,3.4771,3.4398,3.3829,3.3185,3.124,2.9864,2.9249,2.6852,2.4493,0.0,0.0,0.0,0.0,0.0,0.0,0.0,0.0,0.0,0.0,0.0,0.0,0.0,0.0,0.0,0.0,0.0,0.0,0.0,0.0,0.0,0.0,0.0,0.0,0.0,0.0,4.1048,4.1568,4.3335,4.4268,4.3504,4.391,4.4621,4.565,4.6157,4.7003,4.8191,4.8037,4.8324,4.9204,4.7898,4.7671,4.8657,4.7508,4.7206,4.7814,4.7206,4.7039,4.7249,4.7007,4.691,4.691,4.7169,4.7249,4.7313,4.7799,4.6309,4.3735,4.346,4.3233,4.3039,4.3039,4.3022,4.2957,4.2471,4.2309,4.218,4.1452,4.1063,4.0884,4.0884,4.069,4.0495,4.0495,4.0851,4.1111,4.0625,4.1046,4.1417,4.069,4.069,4.0787,4.056,4.0884,4.1305,4.1547,4.0463,3.9199,3.8246,3.8391,3.8354,3.743,3.7608,3.7777,3.7437,3.7033,3.6538,3.5845,3.5155,3.4879,3.5156,3.4785,3.4776,3.537,3.4642,3.3949,3.353,3.1569,3.039,3.007,2.7806,2.5471,2.3166,0.0,0.0,0.0,0.0,0.0,0.0,0.0,0.0,0.0,0.0,0.0,0.0,0.0,0.0,0.0,0.0,0.0,0.0,0.0,0.0,0.0,0.0,0.0,3.9119,4.1048,4.3044,4.4567,4.6056,4.665,4.594,4.7143,4.7988,4.8022,4.9357,4.983,4.9187,4.983,4.9722,4.8683,4.8329,4.8465,4.9094,4.7725,4.7929,4.965,4.7879,4.7428,4.8091,4.7363,4.7039,4.7072,4.7767,4.8091,4.804,4.804,4.8008,4.8073,4.8688,4.8526,4.7976,4.7976,4.7054,4.5629,4.4253,4.38,4.367,4.2975,4.2294,4.1742,4.1742,4.1208,4.061,4.061,4.061,4.061,4.061,4.1175,4.1515,4.0819,4.1175,4.1515,4.0787,4.061,4.0851,4.1547,4.1677,4.1677,4.1612,4.1013,4.0589,4.0769,4.0244,0.0,3.9721,3.8716,3.7747,3.7014,3.5922,3.5217,3.5217,3.4816,3.4753,3.5187,3.4166,3.3545,3.3575,3.1599,3.0651,3.0955,2.8539,2.6094,2.3638,0.0,0.0,0.0,0.0,0.0,0.0,0.0,0.0,0.0,0.0,0.0,0.0,0.0,0.0,0.0,0.0,0.0,0.0,0.0,0.0,0.0,4.0411,4.2002,4.1474,4.4248,4.6718,4.7665,4.9086,4.9916,4.9713,4.956,4.9932,5.0998,5.0964,5.1302,5.2232,5.2469,5.2303,5.1715,5.1596,5.1507,5.1395,5.0788,5.0833,5.1552,5.0493,5.0264,5.0732,5.0245,5.002,4.9987,4.9677,4.9515,4.9483,4.8947,4.872,4.8656,4.7799,4.7346,4.7184,4.7184,4.6942,4.6553,4.6164,4.6035,4.6002,4.5791,4.5241,4.4658,4.4658,4.414,4.3638,4.3638,4.3638,4.3638,4.3638,4.3767,4.3864,4.367,4.3767,4.3864,4.367,4.3638,4.3524,4.3201,4.3557,4.3443,4.1871,4.145,4.113,4.0655,4.043,0.0,3.9813,3.9009,3.8304,3.7778,3.6646,3.592,3.592,3.5795,3.578,3.5905,3.4714,3.4425,3.5429,3.2512,3.0602,2.9988,2.8025,2.6748,0.0,0.0,0.0,0.0,0.0,0.0,0.0,0.0,0.0,0.0,0.0,0.0,0.0,0.0,0.0,0.0,0.0,0.0,0.0,0.0,0.0,0.0,4.3889,4.5828,4.6577,4.7914,4.9299,5.0568,5.1469,5.2195,5.269,5.2448,5.2626,5.3511,5.3262,5.3467,5.438,5.4414,5.4159,5.3615,5.3157,5.2632,5.2105,5.1455,5.1201,5.138,5.1284,5.1267,5.1354,5.1428,5.1192,5.0714,5.0617,5.039,5.0098,4.9969,4.9936,4.9775,0.0,0.0,0.0,0.0,4.7767,4.7767,4.7767,4.7767,4.7767,4.7767,4.7313,4.673,4.673,4.6245,4.5679,4.5679,4.5679,4.5679,4.5679,4.5679,4.5679,4.5679,4.5679,4.5679,4.5679,4.5452,4.5176,4.5046,4.5144,0.0,4.3573,4.3119,4.2698,4.1938,4.184,4.1522,4.068,4.0185,3.9618,3.8825,3.7841,3.7266,3.7266,3.6786,0.0,0.0,0.0,3.4659,3.4942,3.287,0.0,0.0,0.0,0.0,0.0,0.0,0.0,0.0,2.5261,2.5317,0.0,0.0,0.0,0.0,0.0,0.0,0.0,0.0,0.0,0.0,0.0,0.0,0.0,0.0,0.0,0.0,4.7517,4.9985,5.259,5.1695,5.1448,5.3238,5.3457,5.3905,5.505,5.5298,5.5371,5.5321,5.5451,5.5498,5.5462,5.5462,0.0,0.0,0.0,5.2637,5.1949,5.0923,5.042,5.0421,5.1066,5.1171,5.0883,5.1521,5.1218,5.026,5.083,5.0681,5.0163,5.083,5.1121,5.1089,4.9775,4.9238,4.9238,4.9141,4.9109,4.9109,4.9044,0.0,0.0,4.9012,4.8591,4.8105,4.8105,4.767,4.7136,4.7136,4.7136,4.7136,4.7136,4.7136,4.7136,4.7136,4.7136,4.7136,4.7136,4.6633,4.6342,4.691,4.6504,4.6018,4.5953,4.537,4.4658,4.3929,4.38,4.333,4.2018,4.1759,4.1266,4.0035,3.9258,0.0,3.8627,3.7679,3.7271,3.7687,3.6273,3.4761,3.3306,3.3285,3.308,3.2619,3.2272,3.1707,3.0854,3.0721,3.1042,3.1678,2.8564,2.7832,0.0,0.0,0.0,0.0,0.0,0.0,0.0,0.0,0.0,0.0,0.0,0.0,0.0,0.0,0.0,4.9244,5.099,5.2511,5.4306,5.478,5.5069,5.5459,5.551,5.5869,5.6744,5.6302,5.5772,5.5421,5.4844,5.4308,5.394,5.3923,5.3856,5.3721,5.3484,5.3179,5.2702,5.217,5.2068,5.2347,5.1933,0.0,5.1984,5.186,5.1494,5.0959,5.0519,5.0228,5.0131,5.026,5.0649,5.1186,5.0894,5.0778,5.0681,5.0098,4.9904,4.9807,4.9206,4.9012,4.9012,4.9012,4.8915,4.8817,4.8817,4.872,0.0,4.8591,4.8591,4.8591,4.8591,4.8591,4.8591,4.8591,4.8591,4.8591,4.8591,4.8494,4.8267,4.7864,4.767,4.7378,4.6812,4.6083,4.537,4.469,4.4593,4.4269,4.3395,4.2764,4.1977,4.08,4.0021,3.9184,3.823,3.8256,3.8167,3.7733,3.7865,3.6666,3.3728,3.543,3.543,3.3336,3.3017,3.2895,3.2905,3.2107,3.2269,3.3289,3.039,2.9994,0.0,0.0,0.0,0.0,0.0,0.0,0.0,0.0,0.0,0.0,0.0,4.3477,4.6529,0.0,5.0039,5.2675,5.4021,5.5101,5.6179,5.641,5.6595,5.6996,5.6715,5.6701,5.7378,5.7203,5.6943,5.6729,5.6527,5.6353,5.6116,5.584,5.5683,5.5683,5.5344,5.4798,5.4008,5.343,5.2957,5.2606,5.2615,5.2598,5.2562,5.2772,5.244,5.1685,5.1297,5.0973,5.0649,5.0649,5.0894,5.1218,5.1218,5.1218,5.1153,5.0778,5.0649,5.0584,5.0228,5.0098,5.0098,5.0098,5.0098,5.0098,5.0098,4.9821,4.953,4.953,4.953,4.953,4.953,4.9839,5.0098,5.0098,5.0098,5.0098,5.0098,4.9789,4.9432,4.9127,4.8753,4.8267,4.7572,4.7151,4.6536,4.5467,4.5305,4.5046,4.4334,4.3929,4.3331,4.2398,4.1659,4.0812,3.9861,3.9373,3.8947,3.8626,3.8579,3.7567,3.5399,3.6461,3.6174,3.422,3.4074,3.3993,3.3939,3.3801,3.4042,3.4722,3.334,3.2925,0.0,0.0,0.0,0.0,0.0,0.0,0.0,0.0,4.2853,4.4565,4.5688,4.7135,4.9682,5.1763,5.3637,5.5379,5.6503,5.7381,5.7946,5.7817,5.7971,5.8941,5.7936,5.7481,5.821,5.8476,5.8618,5.8668,5.889,5.8909,5.8668,5.8252,5.7936,5.78,5.7027,5.6133,5.5152,5.4369,5.35,5.2612,5.3192,5.3342,5.3039,5.3629,5.3288,5.2171,5.2041,5.175,5.1413,5.1413,5.1477,5.1607,5.1607,5.1607,5.1556,5.1315,5.1218,5.1218,5.1218,5.1218,5.1186,5.1024,5.1089,5.1186,5.1024,5.0649,5.0325,5.0325,5.0325,5.0325,5.0325,5.0649,5.0991,5.0991,5.0991,5.0991,5.0991,5.0617,5.0325,5.0325,4.9724,4.9044,4.8494,4.817,4.7572,4.6212,4.6018,4.5759,4.5079,4.4982,4.4723,4.3994,4.3379,4.2699,4.1856,4.0495,3.9685,3.9685,3.9264,3.852,3.7357,3.7436,3.6905,3.5612,3.5461,3.5327,3.5173,3.553,3.5722,3.5819,3.5812,3.5358,3.9625,3.8814,3.9102,4.0396,4.1787,4.3334,0.0,0.0,4.8532,4.9157,5.0728,5.2523,5.4189,5.5294,5.6235,5.7168,5.7968,5.8773,5.9544,6.0228,6.1161,6.2638,6.0256,5.9059,6.0558,6.0728,6.0854,6.1109,6.056,5.9708,5.8577,5.8477,5.8131,5.7385,5.649,5.577,5.5265,5.4361,5.3841,5.3738,5.3803,5.3798,5.3793,5.3858,5.3288,5.2171,5.1575,5.1607,5.2074,5.2074,5.2462,5.3058,5.3058,5.3058,5.2896,5.1653,5.1218,5.1218,5.1218,5.1218,5.1089,5.0422,5.0649,5.1089,5.0422,5.0617,5.1089,5.1089,5.1089,5.1089,5.1089,5.0649,5.0228,5.0228,5.0228,5.0228,5.0228,5.0649,5.1089,5.1089,5.0487,4.9969,4.9872,4.8835,4.7734,4.691,4.678,4.6521,4.5791,4.5694,4.5435,4.4755,4.4593,4.3978,4.2602,4.1193,4.0398,4.0398,4.0916,4.0491,3.8809,3.9355,3.9126,3.8028,3.7425,3.7378,3.7958,3.7138,3.6564,3.6244,3.5938,3.5813,4.205,0.0,0.0,0.0,4.5035,4.6678,4.8389,4.9791,5.1123,5.2704,5.4042,5.5419,5.694,5.8274,5.9238,0.0,6.0665,6.1414,6.1307,6.1165,6.1165,6.1343,6.0629,6.0558,6.1679,6.1379,6.1161,6.125,6.0689,6.0121,5.9583,5.926,5.8923,5.8574,5.8213,5.7704,5.7105,5.5941,5.5122,5.4704,5.3929,5.3558,5.3558,5.3558,5.3298,5.2799,5.254,5.2333,5.2203,5.2203,5.2139,5.2074,5.2074,5.2074,5.2041,5.1847,5.1782,5.1782,5.1782,5.1782,5.1782,5.1944,5.2152,5.23,5.1556,5.1264,5.1121,5.0681,5.0552,5.0552,5.0552,5.0649,5.0617,5.0196,5.0098,5.0001,4.953,4.9691,4.9936,4.9936,5.0034,4.9969,4.953,4.9354,4.8965,4.8252,4.741,4.678,4.6488,4.6439,4.618,4.5467,4.5014,4.4366,4.3314,4.2359,4.1597,4.1175,4.1013,4.0379,3.9059,3.9277,3.891,3.7841,3.7554,3.7554,3.7823,3.8174,3.8019,3.7345,3.8004,3.8092,4.3896,0.0,0.0,4.6451,4.7961,4.9579,5.1101,5.2243,5.3528,5.5455,5.649,5.7453,5.8795,6.0151,6.1093,6.1093,6.2378,6.3214,6.2679,6.2092,6.1593,6.1221,6.1521,6.2057,6.2842,6.2199,6.1843,6.2057,6.1508,6.1058,6.0846,6.048,6.0167,5.9956,5.9679,5.9238,5.855,5.7323,5.6355,5.567,5.4711,5.4163,5.4045,5.3765,5.3609,5.3576,5.3382,5.2993,5.2495,5.2495,5.2203,5.175,5.1575,5.1477,5.151,5.1815,5.2041,5.2236,5.243,5.2495,5.256,5.2896,5.3123,5.3155,5.243,5.2009,5.1653,5.1135,5.0986,5.094,5.0746,5.094,5.1024,5.0293,4.9936,4.9627,4.9109,4.9012,4.9012,4.9012,4.9432,4.9691,4.9368,4.9562,4.9691,4.9335,4.8252,4.741,4.7216,4.7039,4.6715,4.6147,4.55,4.4852,4.4318,4.3654,4.3054,4.2504,4.1985,4.1229,4.0183,4.0134,3.9619,3.8529,3.8512,3.8512,3.8512,3.9499,3.9506,3.8697,3.9663,3.9768,0.0,0.0,4.6308,4.8627,5.0411,5.1993,5.3551,5.512,5.649,5.736,5.8131,5.8902,5.9723,6.0558,6.1093,6.1093,6.2378,6.3392,6.3392,6.3357,6.3591,6.4361,6.3805,6.3663,0.0,6.3805,6.3663,6.4432,6.3754,6.3005,6.2256,6.222,6.1848,6.1084,6.016,5.9447,5.8909,5.7945,5.7189,5.6652,5.6614,5.6381,5.5968,5.4865,5.4373,5.4341,5.3609,5.3285,5.3285,5.3285,5.3252,5.3155,5.2462,5.2171,5.2074,5.1477,5.1639,5.23,5.3026,5.3285,5.3155,5.2462,5.2721,5.3155,5.243,5.2689,5.322,5.322,5.3188,5.3026,5.2333,5.1672,5.1024,5.0293,4.953,4.9044,4.9012,4.9012,4.9012,4.9012,4.9012,4.9238,4.9969,4.9497,4.9271,4.9969,4.9432,4.8688,4.804,4.7346,4.6877,4.6877,4.6212,4.5759,4.5759,4.5111,4.4739,4.4707,4.4658,4.4144,4.3024,4.2971,4.2453,4.1302,4.1283,4.1283,4.1283,4.1313,4.0895,4.0031,4.0089,3.9978,0.0,0.0,5.0031,5.1364,5.3278,5.5098,5.6133,5.7204,5.8153,5.8952,5.8902,5.8938,5.9758,6.0558,6.1272,6.1807,6.275,6.3785,6.484,6.4055,6.35,6.377,6.3127,0.0,0.0,0.0,0.0,6.377,6.3555,6.3071,6.2357,6.275,6.2928,6.2628,6.195,6.1546,6.1365,5.929,5.8133,5.7959,5.6527,5.5754,5.5612,5.5244,5.5086,5.5033,5.4806,5.4418,5.4049,5.4049,5.3738,5.3285,5.3026,5.2929,5.2832,5.2139,5.2028,5.2236,5.2495,5.256,5.2624,5.2832,5.3091,5.3155,5.243,5.2721,5.3188,5.2721,5.2929,5.3252,5.2993,5.2767,5.243,5.1685,5.0973,5.0325,4.9839,4.9335,4.8882,4.8429,4.8688,4.8947,4.872,4.8882,4.8947,4.8738,4.8882,4.8915,4.8688,4.804,4.7637,4.7637,4.6957,4.6309,4.5856,4.5597,4.5273,4.4836,4.4804,4.4489,4.3726,4.3308,4.2757,4.2009,4.1581,4.1251,4.0945,4.1379,4.1155,4.0313,4.1175,4.1376,4.8495,5.0566,5.2779,5.3898,5.5705,5.7382,5.7882,5.8581,5.9188,5.9437,5.9295,5.9188,5.9437,6.0115,6.1022,6.2107,6.3178,6.4198,6.5233,6.4733,6.4019,6.3464,6.275,6.2607,0.0,0.0,0.0,6.3392,6.3392,6.3071,6.2357,6.3,6.3392,6.3392,6.3066,6.2714,6.232,6.0614,5.9544,5.9096,5.7179,5.6266,5.6246,5.5661,5.5389,5.5389,5.5389,5.5162,5.4762,5.4762,5.4483,5.4029,5.3803,5.3673,5.3609,5.2883,5.2592,5.2527,5.2009,5.1847,5.1912,5.2398,5.2702,5.2799,5.2333,5.2721,5.3188,5.2721,5.2929,5.3252,5.2961,5.2896,5.2767,5.23,5.1704,5.1153,5.0908,5.0293,4.958,4.89,4.9076,4.9174,4.8461,4.872,4.885,4.8429,4.872,4.8817,4.8299,4.8105,4.8008,4.8008,4.7799,4.7443,4.6972,4.694,4.6746,4.6342,4.6083,4.5597,4.4833,4.4154,4.3543,4.3035,4.2614,4.2415,4.2327,4.2601,4.236,4.1684,4.2324,4.2256,5.1306,5.3015,5.4621,5.6133,5.7653,5.8745,5.8745,5.9366,5.9687,5.8938,5.9259,5.9473,0.0,0.0,6.0308,6.1858,6.3484,6.4575,6.4717,6.5375,6.5304,0.0,0.0,0.0,0.0,0.0,0.0,6.3535,6.3535,6.3214,6.2536,6.3143,6.3535,6.3535,6.3473,6.2949,6.1918,6.1797,6.113,5.9986,5.8525,5.78,5.7694,5.6132,5.5421,5.5389,5.5389,5.5389,5.5389,5.5389,5.5389,5.5324,5.4697,5.447,5.4373,5.3641,5.335,5.3155,5.1782,5.1283,5.1251,5.1251,5.1672,5.2139,5.2139,5.2657,5.3252,5.3252,5.3285,5.3123,5.243,5.2268,5.2268,5.2268,5.1718,5.1445,5.2041,5.1672,5.0991,5.0228,5.0098,4.9872,4.9174,4.9076,4.9044,4.8979,4.8947,4.8461,4.7151,4.7605,4.8008,4.8008,4.8526,4.8915,4.8947,4.8947,4.8979,4.9012,4.8379,4.7489,4.6354,4.5578,4.491,4.4408,4.4317,4.4596,4.5224,4.4756,4.424,4.3748,4.3349,4.2597,5.3862,5.587,5.7604,5.801,5.8866,5.958,5.958,5.9758,5.983,5.9651,5.8381,5.7061,0.0,0.0,0.0,5.9473,6.1914,0.0,6.6125,6.6553,0.0,6.6141,0.0,6.5197,6.5998,6.5518,0.0,0.0,6.5197,6.509,6.4912,6.509,6.5197,6.5197,6.4361,6.3799,6.3501,6.177,6.0158,5.8672,5.8285,5.7658,5.6808,5.642,5.5928,5.5389,5.5389,5.5389,5.5389,5.5389,5.5389,5.5389,5.5195,5.515,5.5086,5.4373,5.4114,5.3984,5.3058,5.2398,5.1963,5.1963,5.1718,5.1445,5.1445,5.1944,5.2495,5.2495,5.2864,5.3252,5.3058,5.3026,5.3026,5.3026,5.2462,5.1977,5.2139,5.1672,5.0991,5.0228,5.0098,5.0034,4.9872,4.9839,4.9483,4.8397,4.8235,4.8299,4.8461,4.817,4.8008,4.8008,4.767,4.767,4.8202,4.8235,4.8461,4.8979,4.8432,4.7949,4.7637,4.652,4.5854,4.5718,4.478,4.4244,4.4104,4.3487,4.2798,4.2051,4.236,4.2199,5.6226,5.7975,5.9223,5.9223,5.983,6.0237,5.9544,5.9651,5.9402,5.7689,5.6811,0.0,0.0,0.0,0.0,0.0,0.0,0.0,6.6232,6.7069,6.7247,0.0,6.5768,0.0,6.5911,6.5554,6.5411,0.0,6.6125,6.6018,6.5288,6.5625,6.5804,6.5804,6.4927,6.42,6.3698,6.1951,6.0631,5.9712,5.9025,5.8353,5.7711,5.7198,5.6575,5.5895,5.5895,5.5701,5.5389,5.5389,5.5389,5.5389,5.5389,5.5389,5.5357,5.4988,5.4859,5.4794,5.4353,5.3758,5.311,5.2786,5.2203,5.1639,5.1639,5.1704,5.1769,5.1769,5.2041,5.2398,5.2398,5.2398,5.2462,5.2754,5.2495,5.23,5.2624,5.2398,5.1912,5.1167,5.0519,5.0098,5.0098,5.0098,4.9742,4.8591,4.8429,4.8461,4.8558,4.8235,4.8008,4.8008,4.7896,4.7993,4.8397,4.8429,4.8591,4.8979,4.8395,4.7832,4.7296,4.6268,4.5627,4.5374,4.4679,4.4262,4.4145,4.3512,4.2876,4.2246,4.235,4.2138,5.826,5.9509,6.0186,6.0079,6.0594,6.0665,5.908,5.9009,5.8296,5.4871,0.0,5.4813,5.2172,5.4099,5.6633,5.8296,0.0,6.4804,6.5839,6.7195,6.7624,6.641,6.5645,6.5253,6.536,6.5395,6.5609,6.6232,6.691,6.6624,6.5003,6.5482,6.5772,6.5672,6.5112,6.4288,6.3218,6.2254,6.175,6.1689,6.0266,5.9542,5.9348,5.8349,5.7488,5.6723,5.6647,5.6195,5.5518,5.5421,5.5389,5.5389,5.5389,5.5389,5.5389,5.5389,5.5389,5.5389,5.5389,5.5021,5.4405,5.3673,5.2929,5.2365,5.2365,5.1847,5.1348,5.1348,5.1283,5.1218,5.1218,5.1218,5.1348,5.1912,5.2074,5.2236,5.2864,5.3026,5.2864,5.23,5.1199,5.039,5.039,5.039,5.0098,4.9271,4.9238,4.9012,4.8235,4.7976,4.7864,4.7864,4.8364,4.8753,4.885,4.8882,4.8915,4.9012,4.839,4.7517,4.6504,4.5741,4.5103,4.4578,4.4408,4.4402,4.4588,4.3961,4.3459,4.316,4.277,4.2272,5.9223,6.0772,6.17,6.1058,6.0986,6.0665,5.908,5.7297,0.0,0.0,0.0,5.1565,5.1685,5.3194,5.5156,5.7418,0.0,0.0,0.0,0.0,6.823,0.0,0.0,0.0,0.0,0.0,0.0,0.0,6.882,6.823,6.666,6.6089,6.5575,6.5078,6.4533,6.3897,6.3218,6.2601,6.2084,6.1689,6.1413,6.0802,5.9878,5.9663,5.8976,5.7863,5.7327,5.6796,5.6251,5.5648,5.5389,5.5389,5.5389,5.5389,5.5389,5.5389,5.5389,5.5389,5.5389,5.5324,5.5098,5.4438,5.3706,5.3123,5.3123,5.2592,5.2009,5.2009,5.1639,5.1218,5.1218,5.1218,5.1218,5.1348,5.138,5.1413,5.1542,5.1556,5.1685,5.2106,5.2009,5.1847,5.1847,5.1847,5.1394,5.0098,5.0422,5.0325,4.9012,4.7799,4.7104,4.7104,4.7201,4.7508,4.8105,4.817,4.8397,4.8979,4.8409,4.7994,4.7788,4.7131,4.6481,4.5859,4.4981,4.4306,4.3879,4.2815,4.2384,4.246,4.2373,4.2361,6.0094,6.1379,6.2107,6.1307,6.1093,6.038,5.7511,0.0,0.0,0.0,0.0,5.0744,4.9508,0.0,0.0,0.0,0.0,0.0,0.0,0.0,0.0,0.0,0.0,0.0,0.0,0.0,6.9712,6.932,6.8892,6.8337,6.7588,6.6839,6.5953,6.4944,6.4393,6.3823,6.3218,6.2411,6.1911,6.1689,6.1432,6.1027,6.051,6.0315,5.9691,5.8719,5.7824,5.7043,5.6446,5.5701,5.5389,5.5389,5.5389,5.5389,5.5389,5.5389,5.5389,5.5389,5.5389,5.5389,5.5357,5.5001,5.445,5.3867,5.3867,5.3369,5.2767,5.2767,5.256,5.23,5.23,5.2009,5.1737,5.1737,5.1445,5.1218,5.1218,5.1218,5.1315,5.1639,5.1685,5.1685,5.1685,5.1977,5.1847,5.0811,5.0973,5.083,4.9691,4.8641,4.7993,4.7993,4.767,4.7767,4.8461,4.8202,4.8138,4.8461,4.7887,4.7426,4.7057,4.6447,4.6006,4.5747,4.5582,4.5084,4.4331,4.4087,4.3761,4.3392,4.3392,4.328,6.0451,6.1557,6.2107,6.1307,6.0986,5.9844,5.6048,5.4813,0.0,0.0,4.9793,5.0257,4.7925,0.0,0.0,0.0,0.0,0.0,0.0,0.0,0.0,0.0,0.0,0.0,0.0,0.0,0.0,6.9819,6.9087,6.8444,6.8123,6.739,6.6481,6.5376,6.4533,6.3877,6.3404,6.2372,6.185,6.183,6.1473,6.1309,6.1288,6.0886,6.0304,5.9586,5.8295,5.736,5.6672,5.5766,5.5389,5.5389,5.5389,5.5389,5.5389,5.5389,5.5389,5.5389,5.5389,5.5389,5.5389,5.5389,5.5033,5.4632,5.4632,5.4094,5.3544,5.3544,5.3414,5.3317,5.3317,5.2864,5.243,5.243,5.2041,5.1653,5.1653,5.1542,5.1413,5.1413,5.1315,5.1218,5.1218,5.1639,5.1801,5.1283,5.1315,5.1153,5.0422,4.995,4.9627,4.9497,4.885,4.872,4.94,4.8997,4.8706,4.8706,4.8244,4.7752,4.7215,4.6593,4.6144,4.5938,4.6207,4.5909,4.5069,4.519,4.5035,4.456,4.4331,4.4031,5.9758,6.1129,6.2107,6.1307,6.0558,5.9152,5.5941,0.0,0.0,4.959,4.8817,4.8651,4.902,5.0054,0.0,0.0,0.0,0.0,0.0,0.0,0.0,0.0,0.0,0.0,0.0,7.2477,7.2191,7.1513,7.0728,6.9658,6.8159,6.739,6.6929,6.6809,6.5057,6.4075,6.4021,6.2908,6.2341,6.2341,6.2302,6.2282,6.2263,6.179,6.1296,6.0738,5.895,5.7892,5.7406,5.5992,5.5389,5.5389,5.5389,5.5389,5.5389,5.5389,5.5389,5.5389,5.5389,5.5389,5.5389,5.5389,5.5357,5.5292,5.5292,5.4859,5.4308,5.4308,5.3803,5.3317,5.3317,5.3252,5.3188,5.3188,5.3155,5.3123,5.3123,5.2592,5.2106,5.2106,5.1639,5.1218,5.1218,5.1251,5.1283,5.1218,5.1737,5.1847,5.1186,5.1556,5.1653,5.1056,5.0325,5.0196,5.0959,5.0959,5.0927,5.0927,5.0838,5.0801,5.0744,5.0024,4.912,4.7966,4.698,4.6162,4.5534,4.4211,4.4091,4.5087,4.4065,4.3863,5.9544,6.1058,6.2107,6.1307,6.0522,5.8938,5.5299,0.0,5.1114,4.9067,4.8746,4.8817,4.8687,4.9674,0.0,0.0,0.0,0.0,0.0,0.0,0.0,0.0,0.0,0.0,0.0,0.0,7.3012,7.1799,7.0942,7.0229,6.9586,6.8801,6.7945,6.7033,6.5583,6.4598,6.4093,6.2966,6.24,6.24,6.24,6.24,6.2361,6.1615,6.1185,6.0879,5.9191,5.8138,5.7503,5.6478,5.5798,5.5389,5.5389,5.5389,5.5389,5.5389,5.5389,5.5389,5.5389,5.5389,5.5389,5.5389,5.5389,5.5389,5.5389,5.5195,5.5001,5.5001,5.4774,5.4547,5.4547,5.4256,5.3835,5.3414,5.3317,5.3317,5.3317,5.3058,5.2864,5.2864,5.2657,5.2333,5.1879,5.1782,5.1653,5.1251,5.1445,5.151,5.1218,5.1445,5.1653,5.1801,5.0778,5.039,5.1153,5.0778,5.0519,5.0519,5.0201,4.9961,4.9942,4.9311,4.8753,4.8255,4.8173,4.7664,4.6734,4.6253,4.6229,4.6674,4.5647,4.5265,5.9045,6.0558,6.145,6.0879,6.0151,5.851,0.0,0.0,5.1328,4.8734,4.8782,4.9055,4.8341,4.9293,5.0423,0.0,0.0,0.0,0.0,0.0,0.0,0.0,0.0,7.0478,0.0,7.353,7.3191,7.212,7.1085,7.0514,7.0514,6.9772,6.8672,6.7159,6.5935,6.4839,6.3841,6.2889,6.24,6.24,6.24,6.24,6.2361,6.1432,6.0986,6.0912,5.9294,5.8205,5.7535,5.6802,5.6057,5.5389,5.5389,5.5389,5.5389,5.5389,5.5389,5.5389,5.5389,5.5389,5.5389,5.5389,5.5389,5.5389,5.5389,5.5389,5.5389,5.5389,5.5389,5.5389,5.5389,5.5053,5.4567,5.4029,5.3932,5.3932,5.3932,5.377,5.3641,5.3641,5.3447,5.3123,5.2624,5.2527,5.23,5.1607,5.151,5.1413,5.1218,5.1218,5.138,5.1847,5.1005,5.0811,5.175,5.1361,5.107,5.107,5.0659,5.0378,5.0339,4.9552,4.9142,4.9171,4.9011,4.8572,4.7792,4.7401,4.7195,4.7211,4.6353,4.5898,5.8082,5.9295,5.9901,5.9901,5.9295,5.7689,0.0,5.2911,5.2019,4.8841,4.8782,4.9055,4.8341,4.8817,4.959,0.0,0.0,0.0,0.0,0.0,0.0,0.0,0.0,6.8283,7.1406,7.237,7.2798,7.2798,7.1371,7.0514,7.0514,6.992,6.8875,6.7358,6.5985,6.4622,6.3218,6.2678,6.24,6.24,6.24,6.24,6.2361,6.1432,6.0986,6.0912,5.9294,5.8205,5.7535,5.6802,5.6057,5.5389,5.5389,5.5389,5.5389,5.5389,5.5389,5.5389,5.5389,5.5389,5.5389,5.5389,5.5389,5.5389,5.5389,5.5389,5.5389,5.5389,5.5389,5.5389,5.5389,5.5389,5.5389,5.5389,5.5389,5.5389,5.5389,5.4859,5.4405,5.4405,5.3803,5.3317,5.3285,5.3285,5.3026,5.23,5.2171,5.1963,5.1283,5.1218,5.1218,5.1218,5.1218,5.175,5.3155,5.3285,5.3285,5.3285,5.3252,5.3265,5.3265,5.1972,5.1272,5.1252,4.9316,4.8374,4.8506,4.6689,4.5935,4.6099,4.5424,4.5115,5.454,5.6097,5.7382,5.6847,5.6084,5.4906,5.2613,5.2077,5.1471,4.9388,4.9127,4.9234,4.8984,4.871,4.9329,5.1756,0.0,0.0,0.0,0.0,0.0,6.6641,7.03,7.3012,0.0,7.3833,7.3387,7.2834,7.187,7.1085,7.055,7.0306,6.9299,6.7358,6.6074,6.4713,6.3199,6.2678,6.24,6.24,6.24,6.2243,6.189,6.1288,6.0853,6.0536,5.9719,5.895,5.8238,5.7514,5.6823,5.6089,5.5583,5.5389,5.5389,5.5389,5.5389,5.5389,5.5389,5.5389,5.5389,5.5389,5.5389,5.5389,5.5389,5.5389,5.5389,5.5389,5.5389,5.5389,5.5389,5.5389,5.5389,5.5389,5.5389,5.5389,5.5389,5.5227,5.5065,5.5065,5.4871,5.458,5.4146,5.4029,5.3803,5.3058,5.2961,5.2689,5.1996,5.1879,5.1685,5.1251,5.1218,5.138,5.1815,5.1847,5.1847,5.1847,5.1847,5.1847,5.1847,5.1012,5.0552,5.0552,4.9047,4.833,4.8365,4.6661,4.5681,4.5424,4.5201,4.5087,0.0,5.3755,5.4969,5.4456,5.3956,5.31,5.1208,5.1244,5.1244,4.9626,4.9555,4.9662,4.9376,4.8913,4.9258,5.1208,0.0,0.0,0.0,0.0,0.0,6.6125,0.0,0.0,7.3869,7.3958,7.3672,7.2869,7.212,7.1335,7.055,6.9987,6.8858,6.7006,6.6243,6.4897,6.2912,6.2576,6.24,6.24,6.2223,6.1971,6.1669,6.1061,6.0654,6.0356,5.9913,5.9274,0.0,5.7871,5.7179,5.6413,5.5701,5.5389,5.5389,5.5389,5.5389,5.5389,5.5389,5.5389,5.5389,5.5389,5.5389,5.5389,5.5389,5.5389,5.5389,5.5389,5.5389,5.5389,5.5389,5.5389,5.5389,5.5389,5.5389,5.5389,5.5389,5.5389,5.5389,5.5389,5.5389,5.5259,5.4859,5.4794,5.4535,5.3803,5.3706,5.3447,5.2721,5.2624,5.2462,5.2041,5.1977,5.1977,5.1977,5.151,5.1218,5.1218,5.0959,5.0826,5.0826,4.9979,4.959,4.9829,4.8583,4.7964,4.8019,4.6757,4.6032,4.5735,4.5779,4.5824,0.0,5.1792,5.247,5.2399,5.2399,5.1828,4.9626,5.0352,0.0,4.9519,4.9876,5.0197,4.9519,4.9305,4.9305,4.9578,0.0,0.0,0.0,5.8845,0.0,0.0,6.9622,7.1959,7.1959,7.3262,7.3708,7.2869,7.2156,7.1406,7.055,6.9229,6.7832,6.6446,6.6358,6.5054,6.2434,6.24,6.24,6.2381,6.1951,6.1709,6.1628,6.0823,6.0399,6.0346,5.9892,5.9274,5.8561,5.7871,5.7179,5.6413,5.5701,5.5389,5.5389,5.5389,5.5389,5.5389,5.5389,5.5389,5.5389,5.5389,5.5389,5.5389,5.5389,5.5389,5.5389,5.5389,5.5389,5.5389,5.5389,5.5389,5.5389,5.5389,5.5389,5.5389,5.5389,5.5389,5.5389,5.5389,5.5389,5.5389,5.5389,5.5389,5.5195,5.4567,5.447,5.4211,5.3479,5.3382,5.335,5.3317,5.3317,5.3317,5.3317,5.2106,5.1329,5.1272,5.0704,5.0322,5.0263,4.9078,4.8706,4.9312,4.8128,4.7529,4.7568,4.7123,4.6899,4.6865,4.6975,4.7019,4.5167,0.0,4.8258,4.7604,4.7461,4.7461,0.0,4.8294,0.0,0.0,0.0,0.0,0.0,0.0,0.0,0.0,0.0,0.0,5.7653,0.0,0.0,6.9979,7.2727,7.4368,7.4368,7.4725,7.4332,7.2905,7.262,7.1942,7.0585,6.9593,6.824,6.6465,6.5853,6.4552,6.24,6.24,6.24,6.24,6.2282,6.187,6.1165,6.0957,6.0494,5.987,5.976,5.9274,5.8561,5.7871,5.7179,5.6413,5.5701,5.5389,5.5389,5.5389,5.5389,5.5389,5.5389,5.5389,5.5389,5.5389,5.5389,5.5389,5.5389,5.5389,5.5389,5.5389,5.5389,5.5389,5.5389,5.5389,5.5389,5.5389,5.5389,5.5389,5.5389,5.5389,5.5389,5.5389,5.5389,5.5389,5.5389,5.5389,5.5357,5.5195,5.5162,5.4903,5.4244,5.4126,5.3932,5.335,5.3317,5.3317,5.3317,5.2993,5.2604,5.2057,5.1876,5.1552,5.0986,5.0176,5.0048,5.0715,4.992,4.9092,4.8267,4.8149,4.7915,4.755,4.72,4.721,4.2965,4.4928,4.6902,4.6474,4.6355,4.6462,4.6902,0.0,0.0,0.0,0.0,0.0,0.0,0.0,0.0,0.0,5.3528,0.0,0.0,0.0,6.9265,7.0942,7.3547,7.5225,7.5225,7.5225,7.4547,7.2905,7.2798,7.1977,7.005,6.9194,6.8003,6.6302,6.5282,6.3982,6.24,6.24,6.2451,6.2589,6.2252,6.1877,6.1495,6.1152,6.0748,6.0281,6.0281,5.976,5.8883,5.8155,5.7314,5.6413,5.5701,5.5389,5.5389,5.5389,5.5389,5.5389,5.5389,5.5389,5.5389,5.5389,5.5389,5.5389,5.5389,5.5389,5.5389,5.5389,5.5389,5.5389,5.5389,5.5389,5.5389,5.5389,5.5389,5.5389,5.5389,5.5389,5.5389,5.5389,5.5389,5.5389,5.5389,5.5389,5.5389,5.5389,5.5389,5.5259,5.4924,5.4859,5.4729,5.4321,5.4256,5.4256,5.4256,5.4256,5.3837,5.2801,5.217,5.1643,5.1266,5.0302,4.996,5.031,4.9982,4.9352,4.8496,4.8814,4.8565,4.7837,4.7859,4.7905,4.2726,4.4974,4.7045,4.6438,4.6545,4.6795,0.0,0.0,0.0,0.0,0.0,0.0,0.0,0.0,0.0,0.0,0.0,0.0,6.1893,6.6517,6.9783,7.0585,7.3369,7.5225,7.5225,7.5082,7.4404,7.2905,7.2584,7.1513,6.9427,6.8444,6.7356,6.6142,6.5023,6.3905,6.2863,6.2648,6.2642,6.2729,6.2226,6.1981,6.201,6.1389,6.1049,6.0986,6.0825,6.0112,5.9067,5.8264,5.7318,5.6284,5.5648,5.5389,5.5389,5.5389,5.5389,5.5389,5.5389,5.5389,5.5389,5.5389,5.5389,5.5389,5.5389,5.5389,5.5389,5.5389,5.5389,5.5389,5.5389,5.5389,5.5389,5.5389,5.5389,5.5389,5.5389,5.5389,5.5389,5.5389,5.5389,5.5389,5.5389,5.5389,5.5389,5.5389,5.5389,5.5389,5.5389,5.5389,5.5389,5.5389,5.5389,5.5389,5.5389,5.5307,5.4729,5.3547,5.2291,5.1514,5.1301,5.0197,4.9576,4.9576,4.9508,4.9257,4.8797,4.931,4.9,4.806,4.8627,4.866,4.4714,4.6616,4.7199,4.3868,4.45,4.582,0.0,0.0,0.0,0.0,0.0,0.0,0.0,0.0,0.0,0.0,0.0,6.1679,0.0,0.0,7.0621,7.1406,7.369,7.5225,7.5225,7.4564,7.3779,7.2869,7.1585,7.0407,6.9355,6.7945,6.6858,6.6142,6.5897,6.5479,6.4848,6.3825,6.3051,6.2451,6.2992,6.2717,6.1755,6.1621,6.137,6.0933,5.9963,5.9097,5.8293,5.7202,5.6281,5.5551,5.5421,5.5389,5.5389,5.5389,5.5389,5.5389,5.5389,5.5389,5.5389,5.5389,5.5389,5.5389,5.5389,5.5389,5.5389,5.5389,5.5389,5.5389,5.5389,5.5389,5.5389,5.5389,5.5389,5.5389,5.5389,5.5389,5.5389,5.5389,5.5389,5.5389,5.5389,5.5389,5.5389,5.5389,5.5389,5.5389,5.5389,5.5389,5.5389,5.5389,5.5389,5.5389,5.5389,5.4895,5.4464,5.4241,5.3436,5.2454,5.1271,5.1016,5.093,5.093,5.0508,5.0277,5.0206,4.9833,4.9353,4.8766,4.8852,4.8859,4.3618,4.5367,4.6474,4.4653,4.6284,4.8247,0.0,0.0,0.0,0.0,0.0,0.0,0.0,0.0,5.5968,5.9573,0.0,6.3805,6.459,6.7659,7.03,7.1549,7.3405,7.4528,7.4528,7.3833,7.2869,7.1656,7.0514,6.9337,6.8123,6.739,6.6883,6.66,6.6278,6.618,6.6391,6.5195,6.4287,6.3696,6.3557,6.3087,6.2291,6.2152,6.183,6.1337,6.0401,5.9325,5.8129,5.7258,5.6315,5.5389,5.5389,5.5389,5.5389,5.5389,5.5389,5.5389,5.5389,5.5389,5.5389,5.5389,5.5389,5.5389,5.5389,5.5389,5.5389,5.5389,5.5389,5.5389,5.5389,5.5389,5.5389,5.5389,5.5389,5.5389,5.5389,5.5389,5.5389,5.5389,5.5389,5.5389,5.5389,5.5389,5.5389,5.5389,5.5389,5.5389,5.5389,5.5389,5.5389,5.5389,5.5389,5.5246,5.4895,5.4602,5.4061,5.3302,5.2949,5.2298,5.1223,5.1206,5.1206,5.1206,5.0733,5.0381,5.0062,4.9551,4.9009,4.8459,4.8459,4.8459,4.319,4.4725,4.6177,4.6534,0.0,0.0,0.0,0.0,0.0,0.0,0.0,0.0,0.0,5.5669,0.0,6.1858,6.4055,6.5502,6.5768,6.7964,7.0033,7.1264,7.262,7.3458,7.3458,7.2548,7.1478,7.03,6.932,6.8337,6.7319,6.7105,6.7069,6.7247,6.6992,6.7161,6.7779,6.6561,6.5553,6.4707,6.3874,6.3195,6.2689,6.2513,6.2144,6.1622,6.0638,5.9444,5.815,5.7164,5.6234,5.5389,5.5389,5.5518,5.5668,5.5668,5.5766,5.5928,5.5928,5.5928,5.5928,5.5928,5.5928,5.5928,5.5928,5.5928,5.5928,5.5928,5.5928,5.5895,5.5701,5.5668,5.5668,5.5668,5.5518,5.5454,5.5616,5.5668,5.5713,5.5895,5.5928,5.5928,5.5928,5.5745,5.5668,5.5668,5.5518,5.5389,5.5389,5.5389,5.5389,5.5389,5.5389,5.5122,5.4475,5.4232,5.3608,5.2397,5.2306,5.1964,5.1253,5.1206,5.1206,5.1206,5.0614,5.011,4.9693,4.9058,4.8484,4.8108,4.8108,4.8108,4.5867,4.6795,4.7247,4.8699,0.0,0.0,0.0,0.0,0.0,0.0,0.0,0.0,0.0,5.9809,6.2786,6.2357,6.5427,6.7374,6.5982,6.848,7.0478,7.0585,7.1335,7.187,7.187,7.0478,6.9498,6.9391,6.8016,6.7426,6.798,6.739,6.7319,6.7997,6.868,6.9091,6.9162,6.797,6.6368,6.4416,6.3795,6.3139,6.2443,6.2415,6.2144,6.1622,5.9824,5.8718,5.8043,5.6262,5.5495,5.5389,5.5389,5.583,5.6413,5.6413,5.6834,5.7438,5.7438,5.7438,5.7438,5.7438,5.7438,5.7438,5.7438,5.7438,5.7438,5.7438,5.7438,5.7276,5.6608,5.6413,5.6413,5.6413,5.5895,5.5583,5.6284,5.6413,5.6608,5.7309,5.7438,5.7438,5.7438,5.6867,5.6413,5.6413,5.5863,5.5389,5.5389,5.5389,5.5389,5.5389,5.5389,5.5122,5.4475,5.3782,5.3051,5.2352,5.2306,5.1964,5.1253,5.1206,5.1206,5.1206,5.025,4.9742,4.9693,4.866,4.8159,4.8108,4.8108,4.8108,4.3761,4.551,4.7259,4.8365,0.0,0.0,0.0,0.0,0.0,0.0,0.0,0.0,0.0,0.0,6.3107,6.4269,6.5697,6.6803,6.716,6.7838,6.8694,6.9641,6.9998,7.0229,7.0229,6.9194,6.8373,6.7909,6.7338,6.714,6.739,6.7604,6.8052,6.8837,6.9141,6.9284,6.9284,6.7656,6.6195,6.4948,6.3957,6.3125,6.24,6.24,6.1755,6.059,5.9418,5.8239,5.7051,5.5892,5.5389,5.5454,5.5895,5.651,5.7179,5.7179,5.7374,5.76,5.76,5.76,5.76,5.76,5.76,5.76,5.76,5.76,5.76,5.76,5.7903,5.8065,5.7352,5.7179,5.7179,5.7179,5.6985,5.6834,5.7114,5.7179,5.7276,5.7535,5.76,5.76,5.76,5.7374,5.7179,5.7179,5.6952,5.677,5.677,5.6381,5.6089,5.6089,5.5297,5.4486,5.3803,5.3446,5.2807,5.1688,5.1618,5.1479,5.1229,5.1206,5.1206,5.1206,5.0543,5.0183,5.0183,4.9477,4.8934,4.861,4.861,4.8409,4.2965,4.4607,4.6569,0.0,0.0,0.0,0.0,0.0,0.0,0.0,0.0,0.0,0.0,0.0,0.0,6.5554,6.6196,6.6803,6.764,6.7319,6.7374,6.8444,6.8587,6.8587,6.8587,6.8088,6.7517,6.7033,6.7212,6.7462,6.7695,6.8195,6.8837,6.9641,6.9427,6.9284,6.9284,6.6901,6.5418,6.4912,6.322,6.2313,6.2042,6.1655,6.0818,5.9615,5.8733,5.7654,5.6446,5.5701,5.5518,5.5798,5.6284,5.7061,5.7903,5.7903,5.8065,5.8281,5.8281,5.8281,5.8281,5.8281,5.8281,5.8281,5.8281,5.8281,5.8281,5.8281,5.8615,5.8853,5.8389,5.8065,5.7903,5.7903,5.7762,5.7665,5.7871,5.7903,5.7968,5.8216,5.8281,5.8281,5.8281,5.8065,5.7903,5.7903,5.773,5.76,5.76,5.7179,5.6855,5.6855,5.5984,5.5091,5.4345,5.3884,5.3147,5.192,5.1436,5.1206,5.1206,5.1206,5.1206,5.1206,5.0733,5.0501,5.0501,4.9795,4.9252,4.8909,4.8735,4.8434,4.4371,4.4585,0.0,0.0,0.0,0.0,0.0,0.0,0.0,0.0,0.0,0.0,0.0,0.0,0.0,6.5804,6.7088,6.7854,6.7105,6.6998,6.6998,6.6998,6.6998,6.6998,6.6998,6.6998,6.6998,6.6998,6.7695,6.8444,6.9248,6.932,6.9676,7.0478,6.9712,6.9284,6.9284,6.5812,6.4059,6.4059,6.1378,6.052,6.1245,6.0049,5.9284,5.8813,5.7697,5.6943,5.6413,5.5701,5.5863,5.651,5.651,5.7364,5.8605,5.8605,5.9079,5.9694,5.9694,5.9694,5.9694,5.9694,5.9694,5.9694,5.9694,5.9694,5.9694,5.9694,5.9694,5.9694,5.9694,5.9177,5.8605,5.8605,5.8097,5.7795,5.8464,5.8605,5.882,5.9565,5.9694,5.9694,5.9694,5.9079,5.8605,5.8605,5.8032,5.76,5.76,5.76,5.76,5.76,5.76,5.727,5.6469,5.5175,5.4084,5.3361,5.1987,5.1206,5.1206,5.1206,5.1206,5.1206,5.0733,5.0501,5.0501,4.9453,4.8934,4.8909,4.8387,4.8108,4.2384,4.4178,0.0,0.0,0.0,0.0,0.0,0.0,0.0,0.0,0.0,0.0,0.0,0.0,0.0,6.5625,6.666,6.741,6.7747,6.7319,6.6998,6.6998,6.6998,6.7212,6.7695,6.7783,6.7783,6.7783,6.8516,6.9034,6.9284,6.9819,7.0264,7.0478,6.9158,6.8028,6.714,6.4603,6.2856,6.1893,6.0167,5.9742,6.0433,5.9814,5.8984,5.8085,5.7467,5.6629,5.5713,5.5486,5.6154,5.7276,5.7276,5.813,5.9371,5.9371,5.95,5.9694,5.9694,5.9694,5.9694,5.9694,5.9694,5.9694,5.9694,5.9694,5.9694,5.9694,5.9694,5.9694,5.9694,5.9533,5.9371,5.9371,5.9209,5.9134,5.9338,5.9371,5.9436,5.9662,5.9694,5.9694,5.9694,5.95,5.9371,5.9371,5.9177,5.8907,5.8367,5.8302,5.813,5.7665,5.7088,5.6469,5.5759,5.4845,5.4011,5.3284,5.284,5.2187,5.1236,5.1206,5.1206,5.1206,5.1065,5.0994,5.0994,5.0327,5.0052,5.0088,4.9566,4.9337,4.3465,0.0,0.0,0.0,0.0,0.0,0.0,0.0,0.0,0.0,0.0,0.0,6.3627,6.432,0.0,6.6946,6.7588,6.8088,6.8516,6.7909,6.7462,6.7462,6.7462,6.7588,6.8068,6.8373,6.8587,6.8587,6.932,6.9783,6.9783,6.9926,6.9872,6.9551,6.7798,6.6339,6.5258,6.2945,6.1361,6.0523,5.9044,5.8553,5.8957,5.8557,5.7916,5.712,5.6681,5.6076,5.5389,5.5389,5.6089,5.7179,5.7503,5.8259,5.9306,5.9597,5.9694,5.9694,5.9694,5.9694,5.9694,5.9694,5.9694,5.9694,5.9694,5.9694,5.9694,5.9694,5.9694,5.9694,5.9694,5.9694,5.9694,5.9694,5.9694,5.9694,5.9694,5.9694,5.9694,5.9694,5.9694,5.9694,5.9694,5.9694,5.9694,5.9694,5.9694,5.9533,5.9079,5.9047,5.8885,5.8486,5.7759,5.6961,5.6254,5.5293,5.4387,5.3642,5.3348,5.2839,5.2037,5.2007,5.2007,5.2007,5.2007,5.2007,5.2007,5.1286,5.0978,5.0979,5.022,4.9933,0.0,0.0,0.0,0.0,0.0,0.0,0.0,0.0,0.0,0.0,0.0,6.4717,6.5447,6.6339,6.7481,6.8927,6.932,6.9391,6.932,6.8658,6.8195,6.8195,6.8195,6.823,6.8302,6.898,6.9427,6.9427,6.9998,7.0371,7.03,6.9498,6.8713,6.7909,6.5897,6.4446,6.3623,6.1103,5.9803,5.9697,5.8143,5.7356,5.7233,5.6815,5.6408,5.6006,5.5572,5.5389,5.5389,5.5389,5.581,5.6575,5.7244,5.7903,5.8594,5.9241,5.9555,5.9597,5.9597,5.963,5.9694,5.9694,5.9694,5.9694,5.9694,5.9694,5.9694,5.9694,5.9694,5.9694,5.9694,5.9694,5.9694,5.9694,5.9694,5.9694,5.9694,5.9694,5.9694,5.9694,5.9694,5.9694,5.9694,5.9694,5.9694,5.9694,5.9694,5.9694,5.9694,5.9694,5.9694,5.9694,5.9017,5.8257,5.748,5.6091,5.5013,5.4336,5.3713,5.3378,5.3378,5.3258,5.3198,5.3198,5.3198,5.3198,5.3198,5.2109,5.1639,5.1672,5.0566,5.0125,0.0,4.6498,0.0,0.0,0.0,0.0,0.0,0.0,0.0,6.3912,6.3663,6.3698,6.3892,6.5605,6.7319,6.8195,6.9408,6.9998,6.9391,6.9141,6.9034,6.9034,6.9034,6.9301,6.9907,7.0157,7.0229,7.0229,6.9819,6.9284,6.8658,6.7909,6.7124,6.6303,6.4638,6.3284,6.2332,6.0492,5.9168,5.8319,5.8223,5.7687,5.6815,5.6388,5.5986,5.5531,5.543,5.5389,5.5389,5.5389,5.581,5.651,5.6672,5.7158,5.7827,5.7989,5.8389,5.8853,5.8853,5.9209,5.9694,5.9694,5.9694,5.9694,5.9694,5.9694,5.9694,5.9694,5.9694,5.9694,5.9694,5.9694,5.9694,5.9694,5.9694,5.9694,5.9694,5.9694,5.9694,5.9694,5.9694,5.9694,5.9694,5.9694,5.9694,5.9694,5.9694,5.9694,5.9694,5.9694,5.9694,5.9694,5.886,5.8072,5.7457,5.6067,5.5145,5.4995,5.485,5.4785,5.4785,5.3767,5.3198,5.3198,5.3198,5.3198,5.3198,5.2109,5.1842,5.2285,5.122,5.0971,0.0,0.0,0.0,0.0,0.0,0.0,0.0,0.0,6.4983,6.4162,6.3984,6.4091,6.4483,6.559,6.6767,6.7909,6.8801,6.9337,6.9284,6.9284,6.9284,6.9284,6.9284,6.932,6.9337,6.9337,6.9194,6.8837,6.8444,6.7838,6.7053,6.6268,6.5661,6.5217,6.3835,6.2665,6.1848,6.0774,5.9784,5.8964,5.8763,5.8104,5.7089,5.618,5.5612,5.5389,5.5389,5.5389,5.5389,5.5389,5.5636,5.6025,5.6349,5.6737,5.7114,5.7471,5.8032,5.8605,5.8605,5.9079,5.9694,5.9694,5.9694,5.9694,5.9694,5.9694,5.9694,5.9694,5.9694,5.9694,5.9694,5.9694,5.9694,5.9694,5.9694,5.9694,5.9694,5.9694,5.9694,5.9694,5.9694,5.9694,5.9694,5.9694,5.9694,5.9694,5.9694,5.9694,5.9694,5.9694,5.9694,5.9694,5.9219,5.8418,5.7172,5.6238,5.5606,5.5204,5.5179,5.5179,5.5179,5.4546,5.4156,5.4156,5.4156,5.4156,5.4186,5.3052,5.2659,5.2926,5.1846,5.1505,0.0,0.0,0.0,0.0,0.0,0.0,6.2893,6.3948,6.461,6.461,6.4717,6.4967,6.5518,6.5697,6.6232,6.7481,6.7802,6.8123,6.8785,6.8999,6.907,6.907,6.907,6.882,6.8159,6.798,6.7676,6.7069,6.689,6.6446,6.5625,6.4967,6.4508,6.427,6.3248,6.2337,6.1658,6.1184,6.0658,6.0,5.9165,5.8437,5.773,5.6381,5.5713,5.5583,5.5583,5.5539,5.5389,5.5389,5.5389,5.5454,5.6089,5.6316,5.6381,5.7017,5.7741,5.8432,5.8432,5.8982,5.9694,5.9694,5.9694,5.9694,5.9694,5.9694,5.9694,5.9694,5.9694,5.9694,5.9694,5.9694,5.9694,5.9694,5.9694,5.9694,5.9694,5.9694,5.9694,5.9694,5.9694,5.9694,5.9694,5.9694,5.9694,5.9694,5.9694,5.9694,5.9694,5.9694,5.9694,5.9694,5.9241,5.8395,5.7084,5.6433,5.5849,5.5229,5.5179,5.5179,5.5179,5.5179,5.5179,5.5179,5.5179,5.5179,5.5179,5.4152,5.3579,5.3448,5.2437,5.1896,0.0,0.0,5.4215,0.0,5.9901,6.1343,0.0,0.0,6.461,0.0,6.5145,6.5482,6.486,6.534,6.5875,6.6053,6.6696,6.716,6.7267,6.7838,6.8266,6.8266,6.8266,6.823,6.8088,6.7517,6.7105,6.6998,6.6339,6.5625,6.4789,6.4646,6.4065,6.2891,6.272,6.2085,6.104,6.0968,6.0474,5.9558,5.8725,5.8356,5.8432,5.7644,5.6952,5.6349,5.6349,5.5992,5.5389,5.5389,5.5389,5.5421,5.5518,5.5571,5.5551,5.5668,5.6575,5.773,5.773,5.8583,5.9694,5.9694,5.9694,5.9694,5.9694,5.9694,5.9694,5.9694,5.9694,5.9694,5.9694,5.9694,5.9694,5.9694,5.9694,5.9694,5.9694,5.9694,5.9694,5.9694,5.9694,5.9694,5.9694,5.9694,5.9694,5.9694,5.9694,5.9694,5.9694,5.9694,5.9694,5.9694,5.737,5.6384,5.7887,5.636,5.5305,5.5204,5.5179,5.5179,5.5179,5.5179,5.5179,5.5179,5.5179,5.5179,5.5179,5.4539,5.3942,5.3474,5.2812,5.222,4.5784,4.9924,5.4135,0.0,5.9273,6.0629,6.145,6.2485,6.3555,6.4432,6.486,6.5161,6.5268,6.5181,6.5268,6.5732,6.6089,6.6482,6.6926,6.7283,6.7319,6.6874,6.6803,6.6446,6.557,6.559,6.5482,6.5034,6.509,6.4769,6.3984,6.363,6.3409,6.3303,6.2952,6.2562,6.2185,6.2185,6.1567,6.0323,5.9741,5.9358,5.9209,5.8907,5.8162,5.7082,5.6672,5.6316,5.5992,5.5551,5.5389,5.5389,5.5389,5.5389,5.5389,5.5389,5.6316,5.76,5.76,5.8518,5.9694,5.9694,5.9694,5.9694,5.9694,5.9694,5.9814,6.0202,6.004,5.9792,6.0202,6.0008,5.9694,5.9694,5.9694,5.9694,5.9694,5.9694,5.9694,5.9694,5.9694,5.9694,5.9694,5.9694,5.9694,5.9694,5.9694,5.9694,5.9694,5.8234,5.718,5.718,5.6482,5.617,5.6482,5.6096,5.5626,5.5229,5.5576,5.5626,5.5204,5.5576,5.5626,5.5204,5.5179,5.5179,5.5179,5.459,5.4175,5.3916,5.3023,5.2462,0.0,0.0,5.2256,5.579,5.7846,5.9345,0.0,0.0,6.2393,6.3734,6.4325,6.4789,6.5375,6.5003,6.4717,6.5126,6.5375,6.5697,6.6303,6.6553,6.6482,6.5875,6.5804,6.534,6.4142,6.4376,6.4361,6.3734,6.4144,6.4136,6.3547,6.3176,6.3179,6.3622,6.3206,6.2983,6.3007,6.2878,6.2161,6.0853,6.0548,6.0141,5.9694,5.9694,5.9134,5.8065,5.7352,5.6834,5.6446,5.5928,5.5551,5.5389,5.5389,5.5389,5.5389,5.5389,5.6316,5.76,5.76,5.8518,5.9694,5.9694,5.9694,5.9694,5.9694,5.9824,6.0073,6.0429,6.0267,6.0073,6.0429,6.0105,5.9694,5.9694,5.9694,5.9694,5.9694,5.9694,5.9694,5.9694,5.9694,5.9694,5.9694,5.9694,5.9694,5.9694,5.9694,5.9694,5.9694,5.7084,5.5179,5.5179,5.5874,5.6022,5.5255,5.57,5.58,5.5229,5.5725,5.5775,5.5204,5.5725,5.5775,5.5204,5.5179,5.5179,5.5179,5.4743,5.4381,5.4071,5.3208,5.265,0.0,4.6605,0.0,5.3015,5.537,0.0,0.0,6.0594,6.1414,6.225,6.3591,6.461,6.4646,6.461,6.4361,6.3627,6.4162,6.4682,6.4717,6.5375,6.5839,6.5804,6.5804,6.5768,6.5697,6.5019,6.4575,6.4539,6.4111,6.3832,6.3797,6.3921,6.3791,6.3242,6.3205,6.2954,6.244,6.1991,6.1342,6.042,6.0399,6.0141,5.9694,5.9694,5.9662,5.9533,5.882,5.772,5.651,5.6446,5.6025,5.5389,5.5389,5.5389,5.5389,5.5389,5.6316,5.76,5.76,5.8518,5.9694,5.9694,5.9694,5.9694,5.9694,6.0202,6.0623,5.9943,6.0235,6.0591,5.9921,5.9727,5.9694,5.9694,5.9694,5.9694,5.9694,5.9694,5.9694,5.9694,5.9694,5.9694,5.9694,5.9694,5.9694,5.9694,5.9694,5.9694,5.9694,5.7084,5.5179,5.5179,5.5229,5.5255,5.5204,5.5229,5.5229,5.5179,5.5229,5.5229,5.5179,5.5229,5.5229,5.5179,5.5179,5.5179,5.5179,5.5154,5.4594,5.3527,5.3474,5.2865,0.0,0.0,0.0,5.0197,5.2944,5.5227,5.6583,5.8667,6.0558,6.1343,6.2378,6.327,6.3734,6.4662,6.5268,6.4983,6.5197,6.5375,6.5375,6.5625,6.5625,6.509,6.5038,6.484,6.4305,6.4483,6.461,6.461,6.4915,6.4904,6.4521,6.4564,6.4182,6.3237,6.357,6.3401,6.2528,6.1991,6.126,6.0399,6.0399,6.0141,5.9694,5.9694,5.9694,5.9694,5.9403,5.8756,5.7785,5.6867,5.6349,5.6057,5.5583,5.5389,5.5389,5.5389,5.6025,5.6952,5.7438,5.8194,5.9079,5.9533,5.9694,5.9792,6.0267,6.0591,6.0915,6.1562,6.1303,6.085,6.1012,6.0397,5.9694,5.9694,5.9694,5.9694,5.9694,5.9694,5.9694,5.9694,5.9694,5.9694,5.9694,5.9694,5.9694,5.9694,5.9694,5.9694,5.9694,5.7629,5.617,5.617,5.5606,5.5179,5.5179,5.5626,5.57,5.5229,5.609,5.6189,5.5229,5.5651,5.5675,5.5204,5.5179,5.5179,5.5179,5.5179,5.4769,5.3993,5.3658,5.3078,4.2312,0.0,0.0,0.0,5.0304,5.2409,5.5348,5.7011,5.8438,6.0308,6.1343,6.2143,6.2893,6.4106,6.4983,6.4983,6.4983,6.509,6.5375,6.5411,6.5304,6.5038,6.5003,6.4804,6.4269,6.4697,6.5003,6.5003,6.5306,6.5311,6.4908,6.4722,6.4288,6.3515,6.3679,6.3404,6.261,6.2169,6.1424,6.0399,6.0548,6.0292,5.9694,5.9694,5.9694,5.9694,5.9694,5.9274,5.8508,5.759,5.6931,5.6446,5.596,5.5616,5.5389,5.5389,5.5863,5.6575,5.7082,5.7838,5.8691,5.9177,5.95,5.9792,6.0299,6.0753,6.1271,6.1983,6.166,6.1174,6.14,6.0591,5.9694,5.9694,5.9694,5.9694,5.9694,5.9694,5.9694,5.9694,5.9694,5.9694,5.9694,5.9694,5.9694,5.9694,5.9694,5.9628,5.9353,5.7933,5.6844,5.6603,5.575,5.5179,5.5179,5.5874,5.5998,5.5229,5.636,5.6506,5.5255,5.5675,5.57,5.5204,5.5179,5.5179,5.5179,5.5179,5.487,5.4278,5.3762,5.3078,0.0,0.0,0.0,0.0,0.0,0.0,5.5718,5.5562,5.5013,5.8973,6.0415,6.12,6.2072,6.2821,6.3321,6.3321,6.3392,6.3663,6.4432,6.4575,6.486,6.5625,6.5732,6.5732,6.5732,6.5732,6.5732,6.5732,6.519,6.4838,6.4821,6.4323,6.4041,6.4077,6.3464,6.2943,6.2561,6.2397,6.1676,6.0366,6.0778,6.0504,5.9694,5.9694,5.9694,5.9694,5.9694,5.9306,5.8637,5.8605,5.7785,5.6543,5.651,5.6057,5.5421,5.5421,5.5863,5.6478,5.6478,5.7396,5.8572,5.8572,5.9112,5.9694,5.9727,6.072,6.1692,6.1077,6.1336,6.166,6.0947,6.0235,5.9694,5.9694,5.9694,5.9694,5.9694,5.9694,5.9694,5.9694,5.9694,5.9694,5.9694,5.9694,5.9694,5.9694,5.9673,5.9375,5.8701,5.7878,5.7101,5.6384,5.5626,5.5179,5.5179,5.5874,5.5998,5.5229,5.5899,5.5973,5.5229,5.5179,5.5179,5.5179,5.5179,5.5179,5.5179,5.5179,5.487,5.4278,5.3736,5.2865,4.0315,0.0,0.0,0.0,0.0,0.0,5.0091,5.1137,5.2587,5.6561,5.756,5.8274,6.0201,6.12,6.1736,6.1736,6.2679,6.35,6.3698,6.3734,6.3805,6.4035,6.4071,6.4071,6.4071,6.4071,6.4071,6.4071,6.393,6.3641,6.3251,6.2663,6.2731,6.3561,6.2248,6.1533,6.1535,6.0993,6.035,5.9603,6.0031,6.0022,5.9694,5.9694,5.9694,5.9694,5.9694,5.9565,5.9338,5.882,5.8367,5.7914,5.6899,5.6381,5.6122,5.5583,5.5518,5.5798,5.6316,5.7093,5.7968,5.8432,5.9112,5.9889,6.0892,6.1498,6.1983,6.289,6.2502,6.153,6.0332,5.9856,5.9694,5.9694,5.9694,5.9694,5.9694,5.9694,5.9694,5.9694,5.9694,5.9694,5.9694,5.9694,5.9694,5.9694,5.9085,5.8601,5.861,5.7409,5.653,5.6335,5.5626,5.5179,5.5179,5.5874,5.5998,5.5229,5.5899,5.5973,5.5229,5.5179,5.5179,5.5179,5.5179,5.5179,5.5179,5.5179,5.487,5.4278,5.3287,5.2462,0.0,0.0,0.0,0.0,0.0,0.0,4.8758,4.9615,5.0864,5.5455,5.6383,5.7025,5.9045,5.9794,6.0186,6.0558,6.1343,6.2164,6.2857,6.2928,6.3071,6.3357,6.3392,6.3392,6.3392,6.3392,6.3392,6.3392,6.3392,6.3253,6.2955,6.2598,6.2614,6.3066,6.1915,6.1202,6.1061,6.0235,5.9602,5.912,5.9169,5.9198,5.9241,5.9241,5.9403,5.9694,5.9694,5.9694,5.9662,5.9241,5.8885,5.8497,5.7385,5.677,5.6413,5.5668,5.5389,5.5454,5.5895,5.6726,5.7665,5.8065,5.8853,5.9889,6.1044,6.1595,6.2048,6.3214,6.2696,6.1498,6.0073,5.9694,5.9694,5.9694,5.9694,5.9694,5.9694,5.9694,5.9694,5.9694,5.9694,5.9694,5.9694,5.9694,5.9562,5.9152,5.8669,5.8188,5.77,5.6868,5.6189,5.5874,5.5456,5.5179,5.5179,5.5874,5.5998,5.5229,5.5899,5.5973,5.5229,5.5179,5.5179,5.5179,5.5179,5.5179,5.5179,5.5179,5.4769,5.3971,5.3261,5.2571,0.0,0.0,0.0,0.0,0.0,0.0,4.9424,4.9293,4.9365,5.4433,5.5419,5.5883,5.7618,5.8067,5.8424,5.9259,5.9509,6.0237,6.1929,6.2179,6.2429,6.3071,6.3143,6.3143,6.3143,6.3143,6.3143,6.3143,6.3143,6.3143,6.3143,6.3143,6.2911,6.2454,6.1858,6.1276,6.0747,5.9734,5.9123,5.8827,5.831,5.8249,5.8561,5.8518,5.8885,5.9565,5.9565,5.963,5.9694,5.9694,5.9306,5.8659,5.7871,5.7212,5.651,5.5701,5.5389,5.5389,5.5389,5.6316,5.7503,5.7568,5.8486,5.9727,6.0558,6.1271,6.1951,6.2566,6.2307,6.1498,6.0073,5.9694,5.9694,5.9694,5.9694,5.9694,5.9694,5.9694,5.9694,5.9694,5.9694,5.9694,5.9694,5.9694,5.9353,5.8395,5.8372,5.7956,5.6482,5.6238,5.5948,5.5255,5.5179,5.5179,5.5179,5.58,5.5899,5.5229,5.5825,5.5899,5.5229,5.5179,5.5179,5.5179,5.5179,5.5179,5.5179,5.5179,5.4645,5.3579,5.3556,5.2919,0.0,0.0,0.0,0.0,0.0,0.0,4.5356,4.5713,4.6926,4.9293,4.9293,4.9722,5.2529,5.4086,5.5192,5.5977,5.7204,5.8824,6.1022,6.1343,6.1379,6.1521,6.1557,6.1557,6.1557,6.1557,6.1557,6.1557,6.1557,6.1557,6.1557,6.1557,6.1295,6.0799,6.025,5.9682,5.9148,5.8195,5.7988,5.8494,5.7694,5.763,5.8267,5.7943,5.8162,5.8799,5.8799,5.9144,5.9694,5.9694,5.963,5.9338,5.8065,5.7503,5.7212,5.5895,5.5389,5.5389,5.5389,5.5992,5.6802,5.7406,5.8162,5.9047,6.0397,6.1271,6.1821,6.1983,6.1919,6.1498,6.0073,5.9694,5.9694,5.9694,5.9694,5.9694,5.9694,5.9694,5.9694,5.9694,5.9694,5.9694,5.9694,5.9694,5.9419,5.8655,5.8026,5.7315,5.6433,5.5775,5.5355,5.5204,5.5179,5.5179,5.5179,5.533,5.5355,5.5204,5.533,5.5355,5.5204,5.5179,5.5179,5.5179,5.5179,5.5179,5.5179,5.5179,5.4849,5.4123,5.371,5.3131,0.0,0.0,0.0,4.4143,0.0,0.0,0.0,4.5202,4.5998,4.8782,4.8401,4.8437,5.1185,5.166,5.2195,5.3778,5.5027,5.649,5.8488,5.9416,5.9901,5.9901,5.9901,6.0044,6.0451,6.0522,6.0665,6.1058,6.1093,6.1093,6.1093,6.1093,6.0727,5.9924,5.9664,5.9097,5.8332,5.7458,5.7301,5.7859,5.6757,5.6748,5.7638,5.7238,5.745,5.813,5.8464,5.882,5.9177,5.9533,5.9694,5.9597,5.8518,5.7871,5.7471,5.6349,5.5733,5.5389,5.5389,5.5895,5.6608,5.7374,5.8065,5.8885,6.0364,6.153,6.234,6.234,6.2081,6.1562,6.0526,5.9976,5.9694,5.9694,5.9694,5.9694,5.9694,5.9694,5.9694,5.9694,5.9694,5.9694,5.9694,5.9694,5.9474,5.8724,5.8257,5.7574,5.6457,5.5998,5.5601,5.5229,5.5179,5.5179,5.5179,5.5179,5.5179,5.5179,5.5179,5.5179,5.5179,5.5179,5.5179,5.5179,5.5179,5.5179,5.5179,5.5179,5.487,5.4278,5.3762,5.3184,0.0,0.0,0.0,0.0,0.0,4.5249,0.0,0.0,0.0,4.8354,4.7937,4.7687,4.9745,4.9162,4.9091,5.1185,5.2422,5.3551,5.4848,5.6226,5.7461,5.8367,5.8617,5.8959,5.9616,5.9544,5.9809,6.0594,6.0629,6.0701,6.0843,6.1022,6.062,5.9515,5.9482,5.8961,5.79,5.7176,5.6968,5.7289,5.6192,5.6087,5.6885,5.6572,5.6756,5.7438,5.8108,5.8497,5.8637,5.9403,5.9694,5.963,5.8885,5.8194,5.7503,5.677,5.6025,5.5389,5.5389,5.5798,5.6413,5.7147,5.7935,5.8918,6.0526,6.1789,6.2719,6.2881,6.2469,6.1821,6.1012,6.0364,5.9878,5.9727,5.9694,5.9694,5.9694,5.9694,5.9694,5.9694,5.9694,5.9694,5.9694,5.9694,5.9474,5.8724,5.8464,5.7863,5.6482,5.6164,5.5874,5.5255,5.5179,5.5179,5.5179,5.5179,5.5179,5.5179,5.5179,5.5179,5.5179,5.5179,5.5179,5.5179,5.5179,5.5179,5.5179,5.5179,5.4951,5.4458,5.3815,5.3237,0.0,0.0,0.0,0.0,4.8829,0.0,0.0,0.0,4.5213,4.3582,0.0,4.3261,4.4239,0.0,0.0,4.6462,4.8413,4.9899,5.009,5.0875,5.2993,5.7217,5.8296,5.8759,5.8831,5.8238,5.8167,5.8938,5.8973,5.9295,6.0008,6.0701,6.062,5.9515,5.9482,5.8961,5.79,5.7458,5.7252,5.7289,5.6796,5.6435,5.6204,5.6177,5.6295,5.6672,5.7406,5.8065,5.8637,5.9403,5.9694,5.963,5.8885,5.8194,5.7503,5.677,5.6025,5.5389,5.5389,5.5454,5.5648,5.6381,5.7514,5.8982,6.1054,6.1789,6.2081,6.2719,6.2848,6.2469,6.1141,6.072,6.0526,5.9856,5.9694,5.9694,5.9694,5.9694,5.9694,5.9694,5.9694,5.9694,5.9694,5.9694,5.9474,5.8724,5.7971,5.7244,5.6409,5.5725,5.528,5.5204,5.5179,5.5179,5.5179,5.5179,5.5179,5.5179,5.5179,5.5179,5.5179,5.5179,5.5179,5.5179,5.5179,5.5179,5.5179,5.5179,5.5154,5.5078,5.3997,5.3448,0.0,0.0,0.0,0.0,0.0,0.0,4.4464,0.0,4.375,0.0,0.0,0.0,0.0,0.0,0.0,0.0,4.6308,4.7414,4.789,4.902,5.0875,5.3826,5.3622,5.3966,5.5785,5.6954,5.7917,5.8638,5.8296,5.8595,5.983,5.9935,5.9781,5.9515,5.9216,5.8667,5.79,5.7514,5.742,5.7643,5.7006,5.6603,5.6427,5.6225,5.603,5.5928,5.7082,5.7762,5.8097,5.9263,5.9694,5.9662,5.9371,5.8788,5.8097,5.7406,5.6672,5.5992,5.5571,5.5389,5.5583,5.6737,5.7806,5.9015,6.1174,6.1821,6.2048,6.3214,6.3214,6.2663,6.1627,6.1077,6.0623,5.9878,5.9694,5.9694,5.9694,5.9694,5.9694,5.9694,5.9694,5.9694,5.9694,5.9694,5.9606,5.9264,5.8578,5.7808,5.7029,5.6287,5.5675,5.5229,5.5179,5.5179,5.5179,5.5179,5.5179,5.5179,5.5179,5.5179,5.5179,5.5179,5.5179,5.5179,5.5179,5.5179,5.5179,5.5179,5.5179,5.5154,5.4052,5.3474,5.141,0.0,0.0,0.0,0.0,0.0,0.0,0.0,0.0,0.0,0.0,0.0,0.0,0.0,0.0,0.0,0.0,4.5856,4.6034,4.6986,4.8449,5.0507,5.0102,5.0625,5.3122,5.4741,5.6133,5.7318,5.6918,5.7382,5.9166,5.9173,5.9139,5.9185,5.884,5.8422,5.79,5.7606,5.7551,5.7735,5.7252,5.6853,5.6525,5.6362,5.5934,5.5486,5.6952,5.76,5.7697,5.9134,5.9694,5.9694,5.9694,5.9371,5.8788,5.7903,5.7147,5.6381,5.5668,5.5389,5.5636,5.7114,5.8065,5.9015,6.1174,6.1951,6.2372,6.3635,6.3603,6.2987,6.2048,6.1433,6.085,5.9943,5.9694,5.9694,5.9694,5.9694,5.9694,5.9694,5.9694,5.9694,5.9694,5.9694,5.9694,5.9694,5.8873,5.8072,5.748,5.6572,5.58,5.5255,5.5179,5.5179,5.5179,5.5179,5.5179,5.5179,5.5179,5.5179,5.5179,5.5179,5.5179,5.5179,5.5179,5.5179,5.5179,5.5179,5.5179,5.5154,5.4052,5.3474,0.0,0.0,0.0,4.9543,0.0,0.0,0.0,0.0,4.5499,0.0,0.0,0.0,0.0,0.0,0.0,0.0,0.0,0.0,0.0,0.0,0.0,0.0,4.9567,5.0816,5.1672,5.1137,5.1695,5.3966,5.4108,5.5156,5.7539,5.8571,5.8878,5.8352,5.8582,5.8422,5.79,5.7881,5.768,5.7327,5.768,5.7252,5.6126,5.6486,5.6211,5.5486,5.6952,5.76,5.7697,5.9134,5.9694,5.9694,5.9694,5.9694,5.95,5.8119,5.7147,5.6381,5.5668,5.5389,5.5636,5.7114,5.8065,5.9015,6.1174,6.2307,6.302,6.3797,6.3968,6.3612,6.2178,6.1789,6.1433,6.0018,5.9694,5.9694,5.9694,5.9694,5.9694,5.9694,5.9694,5.9694,5.9694,5.9694,5.9694,5.9694,5.8386,5.7433,5.7409,5.6115,5.5229,5.5179,5.5179,5.5179,5.5179,5.5179,5.5179,5.5179,5.5179,5.5179,5.5179,5.5179,5.5179,5.5179,5.5179,5.5179,5.5179,5.5179,5.5179,5.5154,5.4052,5.3474,5.5455,5.5598,5.492,5.2042,5.0281,0.0,0.0,0.0,0.0,0.0,0.0,0.0,0.0,0.0,0.0,0.0,0.0,0.0,0.0,0.0,0.0,0.0,0.0,0.0,4.7854,4.946,5.128,5.3135,5.3278,5.454,5.7432,5.7248,5.7447,5.8266,5.7724,5.7606,5.79,5.79,5.7827,5.7698,5.7827,5.7402,5.6486,5.6641,5.6231,5.5454,5.6446,5.7147,5.7665,5.8594,5.9274,5.9694,5.9694,5.9694,5.9533,5.8119,5.7438,5.705,5.583,5.5389,5.5713,5.7623,5.8432,5.9112,6.1724,6.2696,6.3052,6.3797,6.4,6.3644,6.2178,6.1821,6.1465,6.0018,5.9694,5.9694,5.9694,5.9694,5.9694,5.9694,5.9694,5.9694,5.9694,5.9286,5.8972,5.8972,5.8064,5.722,5.6717,5.5825,5.5179,5.5179,5.5179,5.5179,5.5179,5.5179,5.5179,5.5179,5.5179,5.5179,5.5179,5.5179,5.5179,5.5179,5.5179,5.5179,5.5179,5.5179,5.5179,5.5179,5.441,5.3841,5.5776,5.6026,5.5562,5.3434,5.2136,5.0625,4.77,0.0,4.8032,0.0,0.0,0.0,0.0,0.0,0.0,0.0,0.0,0.0,0.0,4.2619,0.0,0.0,0.0,0.0,0.0,4.7568,4.9531,5.2256,5.2044,5.3163,5.6339,5.6018,5.6325,5.7572,5.7105,5.7137,5.79,5.79,5.79,5.79,5.79,5.7476,5.6699,5.6699,5.6231,5.5454,5.6446,5.7179,5.7665,5.8594,5.9274,5.9694,5.9694,5.9533,5.9177,5.8021,5.7276,5.6672,5.5733,5.5551,5.6122,5.7979,5.895,5.9824,6.2178,6.3084,6.3376,6.3894,6.4,6.3644,6.2178,6.1821,6.1465,6.0018,5.9694,5.9694,5.9694,5.9694,5.9694,5.9694,5.9694,5.9694,5.9694,5.9085,5.861,5.861,5.7668,5.6838,5.636,5.5651,5.5179,5.5179,5.5179,5.5179,5.5179,5.5179,5.5179,5.5179,5.5179,5.5179,5.5179,5.5179,5.5179,5.5179,5.5179,5.5179,5.5179,5.5179,5.5179,5.5179,5.459,5.3993]}]]